GFSGL_250_spd_000.txt.gz
Wind_Speed
101 104 108 112 117 120 125 128 132 133 132 130 126 115 108 103 99 96 93 90 85 82 80 78 77 79 82 84 85 85 84 81 78 83 85 86 89 89 89 92 93 95 100
107 111 115 119 125 129 131 134 134 131 124 115 109 105 101 99 98 93 88 82 77 74 72 71 68 67 69 73 75 77 80 79 75 79 82 86 90 91 93 92 92 92 95
114 118 123 128 131 134 134 132 127 119 110 107 104 101 99 95 91 84 79 75 72 69 66 63 62 60 61 61 64 67 71 73 72 73 80 84 87 91 94 94 93 92 92
123 126 129 133 136 135 126 118 111 106 105 102 99 94 91 86 82 78 73 69 64 60 57 55 54 54 55 55 56 59 61 64 66 68 75 81 83 88 92 95 95 92 90
129 131 130 130 124 118 110 105 104 103 101 96 89 83 80 76 73 70 66 61 59 57 54 52 50 49 49 49 51 53 55 58 60 62 68 76 81 84 86 93 94 94 91
135 128 124 116 110 106 106 105 102 98 93 86 80 75 71 67 65 62 61 57 55 53 50 48 47 47 47 47 48 50 51 53 55 55 60 68 74 73 77 83 86 89 88
122 118 112 107 107 106 105 100 94 88 83 79 75 70 66 62 61 58 56 54 50 45 42 42 41 41 43 44 46 47 47 48 50 50 55 61 64 65 68 74 77 81 81
115 109 106 107 105 102 97 91 85 80 76 73 68 65 62 57 54 51 51 49 47 43 40 38 39 40 39 39 41 42 43 45 45 49 52 56 60 61 63 67 69 72 73
107 106 105 103 99 93 86 80 76 74 71 67 65 61 57 53 50 48 46 46 45 40 37 36 37 38 36 35 36 36 36 37 41 43 46 48 50 51 54 58 63 63 65
105 103 101 96 88 82 78 74 71 69 67 64 60 54 50 48 47 45 42 41 39 34 33 36 36 33 31 31 32 32 32 34 36 38 41 44 46 46 49 53 55 57 59
103 98 93 86 80 78 75 69 67 65 64 60 54 49 47 46 44 45 41 37 35 31 32 34 31 30 28 30 29 29 30 32 33 35 39 41 43 45 46 49 51 53 55
98 90 84 80 76 73 70 66 64 63 61 54 50 47 45 44 43 42 39 37 34 33 32 31 29 28 27 27 28 28 29 28 30 33 35 36 38 40 41 43 45 47 52
90 83 78 75 72 69 66 63 63 61 56 51 48 47 45 43 41 38 35 31 30 30 29 27 26 26 27 26 26 27 26 26 28 30 31 32 32 34 36 38 41 44 47
81 77 74 71 69 65 62 61 58 55 51 49 48 46 42 39 36 32 28 26 25 25 25 24 24 24 25 24 25 24 25 25 26 28 28 27 27 28 29 30 33 37 42
76 74 71 68 64 62 61 59 53 50 49 48 46 43 40 35 31 27 25 23 22 21 21 21 20 21 23 23 23 23 24 24 25 25 24 24 24 25 26 27 30 32 36
72 70 67 64 62 60 59 53 50 46 47 45 42 40 35 31 28 25 22 20 18 17 17 17 17 19 21 21 21 22 23 23 23 21 22 22 23 24 25 27 27 28 32
68 65 63 61 59 57 53 50 48 44 42 41 38 36 33 30 26 24 22 20 18 17 16 15 15 17 19 20 21 22 23 22 21 20 21 22 22 23 25 25 27 28 29
64 61 59 57 55 52 49 47 46 44 40 37 34 33 31 27 25 23 21 18 16 16 17 16 17 18 19 21 22 22 22 21 21 21 21 22 22 24 23 23 25 27 27
60 57 54 52 50 48 48 46 44 42 39 36 33 31 28 25 23 21 19 17 16 16 16 16 17 19 20 21 22 22 22 22 22 22 21 21 20 20 20 21 21 25 27
55 53 51 49 48 47 46 44 43 41 37 34 33 30 28 25 22 19 19 18 17 16 17 17 18 19 20 21 22 22 23 23 23 22 22 22 21 21 21 20 19 21 23
51 49 48 48 47 45 44 44 42 40 37 35 32 29 27 25 22 20 19 19 18 17 17 17 18 20 21 23 23 23 24 24 23 23 23 23 22 21 21 19 18 18 20
48 48 47 47 45 44 43 42 41 40 38 34 31 29 26 25 22 21 20 19 19 18 18 18 19 21 22 23 24 24 25 25 25 24 23 23 22 22 21 20 18 17 18
48 47 46 45 44 43 42 41 41 39 36 33 31 28 27 25 24 22 21 20 19 19 18 19 20 21 22 23 24 25 25 25 25 25 24 23 23 23 23 21 20 18 18
47 46 45 45 44 42 41 41 39 37 35 33 31 30 28 26 25 23 22 22 21 20 20 20 20 21 22 23 24 25 25 25 25 25 25 24 24 23 23 22 21 19 19
46 46 45 43 43 42 41 39 38 36 36 34 33 31 28 26 25 24 23 22 22 22 21 21 21 22 22 23 23 24 25 25 25 25 26 26 26 25 23 22 21 21 20
46 44 42 42 42 41 39 39 38 36 35 34 33 30 28 26 24 23 22 22 21 22 22 22 22 22 22 23 24 24 24 25 25 25 26 26 27 26 25 24 23 22 21

GFSGL_250_spd_003.txt.gz
Wind_Speed
96 102 105 109 115 118 123 127 132 137 139 137 131 121 114 108 108 104 102 100 97 93 89 83 80 77 73 74 74 75 79 80 80 83 87 88 87 85 83 83 86 90 96
104 108 113 117 122 126 130 136 139 138 132 120 112 109 109 106 103 100 96 93 88 83 80 76 72 69 67 66 66 68 71 74 74 75 78 82 84 86 87 82 85 89 91
112 116 121 125 130 134 135 138 131 121 116 113 111 109 106 103 99 94 89 82 79 76 71 68 65 61 60 59 60 60 62 66 67 69 72 75 78 84 86 85 86 87 86
118 123 129 134 136 135 133 126 120 116 112 109 108 105 99 93 86 84 80 77 73 70 66 63 60 57 57 56 56 56 56 58 60 62 66 69 72 77 81 84 86 85 84
126 129 133 136 131 128 123 119 114 111 109 106 100 93 87 83 78 78 74 72 67 64 62 58 56 55 55 54 54 55 55 53 52 55 62 65 66 70 74 78 81 82 82
135 135 131 125 120 117 115 111 109 106 101 95 88 83 79 75 69 70 67 66 64 60 55 52 49 47 49 49 49 51 52 51 49 50 57 61 62 62 64 70 73 76 79
129 122 115 111 111 110 108 106 102 96 88 83 79 75 71 67 62 65 62 59 56 54 48 43 41 40 41 43 44 44 46 46 47 47 52 55 54 56 59 64 67 69 73
112 109 109 108 106 105 101 95 89 84 79 75 70 66 62 62 58 58 55 51 48 46 42 38 37 38 39 40 38 40 40 40 40 43 49 52 52 52 54 59 61 63 66
107 108 107 104 101 97 92 84 80 75 72 69 63 60 59 59 54 53 50 46 42 40 37 36 35 37 34 34 32 32 33 33 36 40 44 48 49 50 51 55 59 58 61
104 104 103 101 97 90 84 78 75 70 65 63 60 57 55 54 51 50 47 45 39 36 35 36 34 33 32 32 31 30 30 32 33 35 39 42 44 45 48 52 52 54 57
103 100 96 92 86 80 75 72 68 65 62 60 59 54 51 50 50 47 44 41 37 34 35 36 33 30 30 31 30 29 28 29 30 32 34 37 39 40 41 43 46 49 51
99 95 88 83 77 73 69 66 63 62 60 57 53 50 47 47 46 43 40 37 34 32 32 32 29 27 29 29 28 27 27 27 28 30 33 36 38 39 40 41 43 46 51
92 86 80 76 72 68 65 63 61 61 57 53 49 48 46 44 42 39 36 33 30 29 28 28 25 25 26 26 26 26 25 26 28 30 32 34 35 36 36 37 38 42 45
83 78 74 70 68 64 62 60 57 55 51 49 47 46 43 41 39 36 32 29 27 26 25 24 23 23 23 23 23 23 24 25 27 27 27 28 30 32 33 34 36 39 42
76 73 69 66 64 61 59 57 51 49 47 47 46 43 42 38 35 33 30 26 23 22 21 21 21 21 22 22 21 22 22 24 24 23 23 26 28 29 29 30 32 34 36
72 69 65 62 60 58 55 51 50 47 45 43 43 42 38 36 32 29 25 23 21 20 19 18 18 19 20 20 20 21 21 21 22 22 23 25 25 26 25 27 30 31 32
69 65 62 59 56 54 51 48 46 44 45 44 41 38 34 32 29 25 23 21 19 18 18 18 18 18 17 18 18 20 20 20 21 22 22 23 24 23 24 26 27 28 30
65 62 58 55 53 51 49 47 45 43 41 39 40 35 32 29 26 24 22 19 18 17 17 17 18 18 18 18 19 20 21 22 22 22 22 22 23 24 24 25 26 27 28
61 58 55 53 51 49 47 46 45 44 42 39 36 35 31 27 24 23 21 19 18 18 17 17 18 19 20 20 21 22 23 23 23 23 22 22 23 24 24 23 24 25 25
58 55 53 51 49 47 46 46 45 43 40 38 35 32 29 26 24 22 21 19 19 19 19 18 18 19 21 22 23 23 23 24 24 23 22 23 23 23 23 24 25 24 22
55 53 51 49 47 46 46 46 44 42 41 38 34 29 28 25 24 23 22 20 20 20 20 20 20 20 21 22 23 23 24 25 25 24 24 24 24 24 24 24 24 24 22
53 51 49 47 48 47 46 44 43 42 39 36 33 30 27 27 25 23 23 22 21 22 22 21 21 22 22 23 24 25 26 26 25 25 25 25 24 23 24 23 23 22 21
51 49 48 48 47 45 44 43 41 40 38 37 33 30 29 27 26 24 23 23 23 23 23 23 22 22 23 25 25 26 26 26 26 25 25 25 25 24 23 23 22 22 21
49 49 49 47 46 45 44 42 40 39 38 36 33 30 28 27 26 25 24 23 23 24 24 24 24 24 24 24 25 26 26 26 26 26 25 24 24 25 24 24 23 22 22
50 49 47 46 46 45 42 41 39 38 37 35 33 31 29 27 26 25 25 23 22 23 23 24 25 25 25 25 24 26 27 27 27 26 26 26 25 25 26 25 24 24 24
48 47 46 46 45 43 41 40 38 37 36 35 34 32 30 27 25 25 24 24 23 23 23 23 24 25 25 25 25 24 25 26 27 27 26 26 26 25 25 26 25 25 25

GFSGL_250_spd_006.txt.gz
Wind_Speed
96 100 107 113 120 125 131 133 131 133 137 133 125 119 114 111 109 107 105 103 100 94 90 84 79 75 72 70 68 67 65 64 64 70 73 78 83 88 92 86 77 78 90
103 109 118 123 128 132 133 135 133 133 128 124 120 118 116 114 111 106 103 98 90 85 81 78 74 70 67 64 62 60 59 58 57 63 69 73 76 81 84 84 78 79 83
111 116 127 128 133 136 137 132 125 121 118 117 118 115 112 108 104 98 93 86 81 79 75 73 71 66 62 59 57 56 54 54 53 56 63 66 71 75 75 77 75 76 82
118 122 133 134 136 136 127 119 116 115 116 116 113 110 104 97 89 88 85 79 75 73 68 65 65 64 60 56 54 53 52 52 50 51 55 60 64 67 68 70 71 72 78
129 130 132 130 124 119 116 114 114 113 112 109 104 97 91 84 79 79 79 74 70 67 64 61 58 58 57 53 49 49 49 47 49 51 53 56 57 58 60 62 65 68 71
132 132 127 123 109 107 106 105 104 102 99 94 89 83 79 75 72 72 71 66 63 61 59 55 52 50 49 48 46 45 46 45 46 48 51 52 54 52 52 54 57 60 64
130 125 122 114 112 109 105 99 93 89 85 81 77 74 74 70 65 64 63 61 59 55 52 50 48 47 45 44 45 43 43 43 44 45 47 48 48 49 47 49 53 55 57
125 122 114 109 105 102 98 93 87 82 79 76 72 70 67 66 60 58 58 56 53 47 44 43 46 46 41 39 42 38 38 39 40 41 42 42 45 44 47 47 48 49 52
118 115 110 104 99 94 90 86 82 78 75 72 67 63 61 61 57 54 50 49 47 45 44 42 44 44 38 36 36 33 32 33 36 37 37 37 38 41 44 48 49 47 50
111 107 102 100 94 88 83 79 77 73 68 66 62 57 55 53 50 49 49 48 45 42 40 39 38 37 35 34 33 30 29 31 33 33 33 34 35 37 39 42 44 45 45
103 99 96 91 86 82 78 74 71 66 63 60 58 54 52 49 49 49 46 43 40 37 35 34 31 30 30 31 31 29 28 27 28 30 30 31 31 32 34 37 40 40 44
99 94 89 85 80 76 73 69 65 62 59 56 53 52 50 49 48 46 43 39 36 33 31 28 26 25 25 26 26 27 26 25 26 27 28 27 28 29 30 33 34 36 40
93 88 82 77 74 71 68 64 62 58 56 53 51 51 50 47 45 43 40 36 34 31 28 26 24 23 22 21 22 24 24 24 24 26 26 27 27 29 30 31 33 35 38
86 80 77 73 71 67 64 62 59 55 52 51 50 50 47 45 44 40 37 34 31 28 25 23 21 20 20 19 20 21 22 22 24 25 26 27 28 29 30 30 31 33 34
81 76 74 71 67 64 61 60 57 53 50 49 47 45 46 44 40 38 35 32 28 25 23 21 19 18 18 18 19 19 20 22 23 24 24 26 27 27 27 27 29 31 32
78 74 71 68 65 62 60 57 54 52 49 46 44 43 42 40 38 36 33 29 26 24 21 19 19 18 17 16 17 18 20 21 22 22 22 23 24 25 26 27 28 29 30
75 71 67 65 62 60 57 54 51 49 49 48 45 42 41 40 37 34 30 27 24 22 20 18 18 18 17 17 16 17 19 20 20 21 21 21 23 24 25 27 27 27 28
71 68 64 62 59 57 54 50 48 47 46 45 44 43 41 37 34 31 28 25 23 21 19 18 18 18 18 18 18 19 19 20 20 21 21 22 23 24 24 26 25 26 27
68 65 62 59 56 53 50 49 48 45 44 43 42 40 38 35 32 29 27 24 22 21 20 20 19 20 20 20 20 21 21 22 22 22 23 24 24 24 24 24 24 24 26
65 62 59 55 52 50 49 48 46 44 44 43 40 39 35 33 31 29 27 25 23 22 21 21 21 21 21 22 22 23 23 24 24 24 24 25 25 26 25 25 26 25 25
62 58 54 52 51 50 47 46 46 45 43 43 41 37 36 33 31 29 28 26 25 23 23 22 22 23 23 24 24 25 25 25 25 26 26 26 26 26 25 26 26 26 26
58 55 52 52 50 47 46 45 45 44 43 42 40 37 33 31 30 29 28 27 25 25 24 24 24 24 24 25 26 26 26 26 27 27 27 27 27 27 26 26 26 26 25
55 53 53 50 48 47 46 45 43 43 42 40 39 37 34 33 31 30 29 27 26 25 25 24 25 25 25 26 26 27 27 27 27 27 27 28 28 27 26 26 27 27 27
55 53 51 49 48 47 46 44 42 41 40 40 39 37 34 33 32 30 30 28 27 26 25 25 24 25 26 26 26 27 28 27 27 27 27 28 28 27 26 26 27 28 28
54 52 50 48 48 48 46 44 41 40 40 40 39 37 34 33 32 31 29 28 27 25 25 25 24 24 24 26 27 27 27 27 27 28 28 28 28 28 28 28 29 29 28
53 51 50 49 48 48 45 42 41 41 40 40 39 37 34 33 32 31 29 27 27 26 25 25 25 25 25 24 25 27 27 26 26 27 27 27 28 28 28 27 27 28 28

GFSGL_250_spd_009.txt.gz
Wind_Speed
92 98 102 108 113 119 125 130 132 137 138 132 128 124 119 115 111 108 105 102 96 90 86 81 78 74 70 68 64 62 60 57 56 67 67 71 76 79 85 92 94 98 98
97 103 110 114 120 124 132 135 137 138 129 124 123 118 114 110 106 101 97 93 87 81 77 75 71 68 67 63 60 58 57 56 53 61 64 65 68 72 76 84 90 95 96
102 109 116 123 127 129 130 126 124 120 116 118 116 113 110 104 98 93 89 86 80 76 73 70 67 63 62 60 56 53 52 53 52 55 61 61 63 66 71 74 81 86 89
111 115 122 128 129 130 128 121 115 113 108 106 103 98 93 88 84 81 81 79 75 72 69 66 62 58 56 56 54 54 50 50 51 53 57 57 60 62 64 67 71 76 78
119 125 126 129 129 129 121 115 114 109 103 95 89 84 81 78 75 74 75 71 69 67 64 62 61 57 54 51 51 51 46 44 48 49 54 55 56 58 58 58 61 66 69
124 129 132 132 133 124 117 113 108 100 93 87 82 77 76 74 70 69 69 66 64 62 59 59 57 54 50 45 43 44 42 39 41 42 46 49 50 52 53 53 55 56 57
127 132 132 130 122 117 112 105 97 90 86 82 77 75 73 69 66 63 63 62 59 57 53 50 49 47 45 42 39 39 36 35 37 37 38 40 41 42 45 49 51 52 54
131 129 130 122 115 109 104 96 90 85 82 78 74 70 66 65 62 60 56 55 53 50 48 47 47 45 40 40 40 37 33 35 36 34 35 35 38 38 41 42 45 48 52
132 128 128 119 107 98 93 86 82 78 77 74 69 64 62 61 59 56 53 52 49 45 43 42 41 39 38 37 36 33 32 32 33 32 32 33 35 35 38 41 42 46 50
129 128 117 105 97 90 85 79 77 75 72 69 65 60 58 56 54 52 50 47 44 41 39 37 35 34 33 32 30 29 31 30 30 31 29 30 32 33 36 38 41 43 46
128 118 106 98 90 84 79 76 74 71 67 65 62 59 56 54 52 49 47 45 43 38 35 32 31 29 27 26 26 26 27 27 28 28 27 27 27 29 32 35 37 40 43
116 108 99 92 86 79 75 73 69 66 63 61 60 57 53 51 48 46 45 43 39 35 33 31 28 26 24 22 22 22 22 24 26 26 26 26 26 27 29 31 32 35 37
108 99 93 87 80 76 72 69 65 63 61 58 57 54 52 51 48 45 42 39 36 34 31 28 25 22 21 21 20 20 21 23 23 24 24 25 25 25 26 27 28 30 31
101 93 88 81 77 72 68 65 63 60 57 54 52 51 50 49 47 42 40 37 35 32 29 26 23 21 19 18 18 19 19 20 20 22 23 24 23 24 24 25 26 28 30
95 89 82 77 73 69 66 63 61 58 54 52 51 50 49 46 43 42 40 36 32 29 26 24 21 19 18 16 17 17 18 19 20 21 22 23 23 24 24 26 28 29 31
90 83 78 73 69 66 64 61 57 55 52 51 49 45 41 42 41 39 36 33 31 27 24 22 20 17 16 15 16 16 17 18 19 20 21 23 24 25 25 26 26 27 29
84 77 74 69 66 64 61 58 56 54 52 48 46 44 42 40 39 37 34 31 29 26 24 21 19 17 15 15 16 16 17 18 19 20 22 24 25 25 25 24 25 27 28
79 74 69 66 64 61 57 55 55 53 50 47 47 44 43 40 37 36 34 31 28 27 25 22 20 18 17 16 16 17 18 19 20 21 22 23 24 25 25 25 25 26 27
74 69 65 63 61 57 56 54 51 49 48 47 44 44 41 39 37 35 33 30 29 27 26 24 22 20 19 19 18 19 20 21 22 23 23 24 25 25 26 27 26 26 27
70 66 63 61 58 56 54 51 49 48 48 46 42 39 39 37 35 33 32 30 29 28 26 25 24 22 22 21 21 21 22 24 25 25 26 26 26 27 28 28 27 27 28
66 64 61 58 57 54 52 50 49 47 46 45 43 39 37 37 35 33 32 31 29 28 27 25 25 24 24 24 23 23 24 25 26 27 27 27 27 28 28 29 29 28 29
63 61 59 57 55 53 51 50 49 47 44 42 41 39 38 37 35 34 32 31 30 28 27 26 25 25 25 26 26 26 26 27 27 27 28 29 29 29 29 29 30 29 30
60 59 58 56 53 52 51 50 48 45 41 39 38 39 39 38 36 35 33 32 31 28 26 25 25 24 24 25 27 28 28 28 28 28 29 30 30 30 30 30 30 29 29
59 57 56 54 52 52 51 49 46 42 40 37 36 38 39 37 35 34 33 32 31 28 27 25 25 25 24 24 25 26 28 29 29 29 29 30 30 30 30 30 29 29 30
57 56 55 53 52 51 50 46 44 41 39 39 39 38 37 37 36 35 33 32 31 29 27 26 26 25 24 24 24 25 26 28 29 30 29 29 30 30 31 30 30 31 31
55 54 53 51 50 50 48 45 43 41 41 40 40 38 37 36 35 34 34 33 32 30 29 28 26 26 25 24 24 24 25 26 27 29 30 29 29 29 29 30 30 30 31

GFSGL_250_spd_012.txt.gz
Wind_Speed
82 88 95 102 107 112 116 121 124 129 130 129 125 124 121 119 115 108 103 96 93 90 85 80 76 73 70 66 63 61 60 59 57 68 77 80 82 85 88 90 93 97 101
88 95 100 107 112 115 121 125 129 128 123 123 122 117 113 108 102 98 92 89 85 81 77 74 72 68 65 62 60 60 58 56 53 61 69 72 73 74 79 82 85 89 95
95 102 107 112 116 121 126 129 127 126 125 123 115 108 99 94 91 88 83 80 76 74 72 68 65 62 60 57 55 55 55 53 49 53 62 63 65 67 72 75 77 80 88
102 108 112 115 121 127 127 127 126 123 119 113 106 98 91 86 82 79 77 75 72 68 66 63 60 57 55 53 52 52 51 50 49 47 56 57 56 60 63 67 71 73 80
108 112 116 121 125 124 126 123 122 117 110 103 97 91 86 82 78 76 73 69 67 64 62 58 55 53 49 47 47 47 47 46 45 45 49 54 55 55 56 59 64 67 74
113 121 124 127 125 126 123 121 115 105 101 93 88 82 79 76 73 71 68 66 62 58 55 54 52 48 46 43 42 43 44 44 42 40 44 49 50 48 48 52 59 62 67
121 125 128 129 125 121 120 113 105 97 92 86 81 78 75 71 69 66 62 61 59 55 53 52 52 48 44 43 39 40 42 42 38 38 43 46 43 42 43 49 53 55 61
123 128 128 128 123 119 113 104 97 89 82 78 75 72 68 66 64 61 59 55 52 49 49 48 47 45 43 41 38 35 35 36 35 38 41 36 36 37 41 45 47 51 55
129 128 128 126 120 115 104 94 87 81 78 74 70 67 64 61 59 56 54 50 47 46 43 43 43 40 38 36 33 31 31 31 32 34 32 33 34 37 39 41 43 46 50
129 127 125 121 113 107 96 88 81 78 74 71 67 63 60 57 54 52 50 50 48 45 42 39 36 35 33 31 29 27 27 26 27 28 29 30 29 30 34 36 38 41 44
127 125 124 119 107 98 89 82 78 74 70 66 63 59 57 53 52 51 50 48 46 42 39 35 32 31 29 27 25 24 23 21 22 24 25 26 26 28 29 30 33 36 38
129 125 122 112 101 92 85 79 75 70 67 63 59 55 53 52 51 49 47 44 42 40 37 34 30 28 26 23 22 21 20 19 20 22 23 24 25 25 26 28 29 31 34
127 123 114 105 94 87 80 76 70 67 64 60 56 55 55 53 50 45 43 43 41 37 34 31 28 26 23 21 19 18 17 18 18 19 21 23 23 23 24 26 27 29 33
123 115 106 97 88 81 76 71 67 64 60 58 57 54 51 50 48 46 42 38 37 34 31 28 25 24 22 20 18 17 15 16 17 18 20 21 22 23 24 24 26 29 32
114 105 96 89 82 76 72 67 64 61 59 57 54 51 49 48 47 45 42 39 35 32 29 27 24 22 20 19 18 16 15 14 16 18 19 19 20 21 23 24 26 28 31
103 95 88 82 77 72 67 64 60 59 57 54 51 48 48 46 44 42 39 36 34 31 27 25 23 22 20 18 18 17 15 14 15 16 17 19 20 21 22 23 25 27 29
93 88 81 77 72 68 65 61 58 57 54 51 49 47 45 43 40 38 37 34 31 29 26 24 23 21 20 19 18 18 17 16 16 18 18 19 20 20 21 22 24 27 28
86 81 76 72 69 66 63 59 58 55 51 49 49 47 44 41 39 36 35 33 31 28 26 24 23 22 21 21 20 20 20 19 19 19 20 20 21 21 23 24 25 26 27
80 76 72 68 65 63 59 57 56 53 51 50 48 46 42 40 38 36 35 33 29 28 27 25 24 23 22 22 22 22 22 21 22 22 22 22 22 23 24 24 24 26 27
77 73 69 66 63 60 57 55 53 51 50 48 46 43 40 38 37 36 34 33 30 28 27 26 25 23 22 23 24 24 24 24 24 24 25 25 25 26 26 26 26 27 27
72 69 67 63 60 58 55 54 52 50 47 44 43 40 39 37 36 34 33 31 30 29 28 26 25 24 23 23 24 26 26 26 26 26 27 27 28 28 27 28 28 28 28
68 66 63 60 58 56 54 52 51 49 45 43 41 39 37 36 36 34 32 31 30 29 27 27 25 24 24 24 24 25 27 28 29 29 30 29 29 29 30 30 30 31 30
65 63 60 57 56 54 53 52 50 47 44 42 40 37 36 36 36 35 33 32 30 29 27 25 24 24 24 24 24 25 26 27 29 30 31 31 32 32 32 31 32 32 32
63 60 56 55 53 51 50 51 48 45 43 41 39 38 37 36 35 35 34 33 32 30 28 25 23 24 24 23 24 25 26 26 27 29 31 32 32 33 32 32 33 33 33
59 55 54 53 52 50 50 49 47 43 42 40 40 39 38 37 35 34 33 32 32 31 29 26 24 23 24 24 24 25 26 26 27 27 27 30 32 33 33 32 33 33 34
54 53 52 51 50 49 49 48 45 42 41 41 40 40 39 38 37 35 34 32 31 30 29 27 25 23 22 23 23 23 24 25 26 27 27 28 29 31 32 33 32 32 33

GFSGL_250_spd_015.txt.gz
Wind_Speed
71 75 81 87 93 99 106 111 117 122 123 126 125 121 119 117 117 111 105 101 94 89 84 80 77 73 71 70 67 65 64 61 58 61 72 77 82 80 81 85 91 97 103
76 82 88 94 101 107 114 120 125 125 126 124 118 116 114 111 108 102 97 91 85 80 77 74 72 69 67 64 63 62 59 58 54 56 63 73 74 75 73 74 80 85 92
83 90 98 104 109 113 120 126 126 124 122 117 115 111 107 103 97 92 88 82 79 76 72 69 67 66 64 62 58 55 55 55 53 52 58 65 67 71 67 68 71 76 80
92 99 105 108 114 118 124 128 123 119 116 111 106 103 98 93 89 84 81 77 74 71 68 65 63 62 60 57 56 54 52 51 50 49 54 57 59 64 62 62 66 70 74
100 105 109 114 120 125 130 126 123 118 112 105 102 96 90 86 81 78 75 73 70 68 65 63 60 58 55 53 53 52 50 49 48 44 47 52 57 57 57 54 58 64 70
105 110 115 121 126 132 129 125 120 115 106 99 94 89 84 79 75 74 71 69 66 64 61 59 57 53 50 47 44 42 43 46 46 42 41 44 49 51 52 51 56 61 66
110 115 121 125 132 133 127 123 119 112 104 93 85 81 77 72 70 70 68 64 61 58 56 55 55 51 48 46 43 39 38 40 41 39 38 40 44 44 43 49 53 58 64
115 121 126 131 132 126 124 118 112 105 96 89 82 76 71 68 67 65 63 58 55 53 52 52 51 48 44 41 39 36 35 35 35 34 34 36 41 39 40 41 46 53 58
122 129 132 129 124 125 123 116 107 96 89 82 77 72 68 65 62 59 59 57 54 51 48 46 44 41 38 36 35 33 31 30 30 29 29 33 37 38 37 40 43 46 49
129 131 128 127 127 124 119 109 98 90 83 77 72 68 65 61 59 58 57 55 52 49 44 42 40 39 36 33 31 29 28 26 25 24 24 27 29 32 35 35 38 40 40
133 130 126 128 124 121 110 100 92 84 78 72 67 64 60 60 58 54 52 50 48 46 44 41 38 35 32 29 27 25 23 22 21 21 21 23 25 27 29 31 32 34 36
130 126 127 126 121 112 102 95 86 79 73 69 64 61 59 57 54 51 49 47 47 46 42 39 35 32 28 26 24 21 19 18 17 17 18 20 22 24 26 27 29 31 36
128 127 126 122 115 103 96 86 79 74 69 65 61 58 56 53 51 48 46 44 43 43 40 36 33 29 26 24 22 19 17 17 16 16 16 18 20 22 24 25 26 30 33
128 127 122 117 107 98 88 80 74 69 65 62 58 56 53 52 50 48 45 41 39 38 37 34 29 27 25 22 21 18 16 16 16 16 16 16 17 19 21 23 25 27 30
126 122 117 108 99 90 81 74 70 66 62 59 57 54 52 51 49 47 44 41 38 36 35 31 28 25 23 21 19 18 16 15 16 15 14 14 15 17 18 20 22 24 26
119 115 109 99 90 82 75 70 66 63 60 57 55 53 52 50 47 44 40 38 36 35 33 30 27 25 23 21 18 18 16 15 16 15 14 14 15 16 17 18 20 22 24
113 107 100 90 83 76 70 66 63 60 58 55 53 53 51 48 44 41 38 36 35 33 32 29 26 24 22 21 19 18 18 16 16 16 15 15 16 17 18 19 21 23 25
104 98 90 83 76 71 67 65 61 57 54 52 52 51 48 45 41 39 36 34 34 33 29 27 25 24 22 21 20 19 18 19 18 17 17 17 18 19 20 22 23 25 26
95 89 82 77 72 68 66 63 59 54 52 50 49 48 45 43 41 39 37 35 32 31 29 27 26 24 23 22 21 20 20 20 21 20 20 20 20 21 22 22 23 24 25
87 81 77 72 70 67 64 59 56 52 50 48 48 46 43 40 39 38 37 35 31 29 28 27 26 25 24 23 22 21 21 22 23 24 22 22 23 23 25 25 25 25 26
80 76 72 70 68 65 60 56 52 50 48 47 46 43 41 39 38 37 36 35 32 29 28 27 26 26 25 24 23 23 23 23 24 25 26 26 25 26 26 27 27 28 28
76 71 69 68 65 62 57 52 49 47 46 46 44 41 40 39 38 36 35 34 33 31 28 27 26 25 25 25 24 23 23 24 25 25 27 28 28 28 28 29 30 30 31
71 68 67 65 62 58 54 50 47 46 45 45 42 40 39 38 38 35 33 32 33 32 31 28 26 24 24 25 25 24 23 24 25 26 27 28 29 30 31 31 31 31 32
67 66 64 61 58 55 51 48 47 45 44 44 41 39 38 38 37 36 34 32 31 31 31 31 27 25 23 24 25 25 25 24 25 26 26 27 29 31 32 32 32 33 34
65 63 60 58 56 53 50 48 47 45 44 43 40 39 38 37 37 36 35 33 31 30 30 30 28 25 22 23 23 24 25 25 26 26 26 27 28 29 30 32 34 34 33
61 59 57 55 54 53 50 48 46 45 44 42 39 38 38 37 37 37 37 35 33 30 30 29 28 25 23 22 22 23 24 25 26 26 26 27 28 28 30 30 32 34 34

GFSGL_250_spd_018.txt.gz
Wind_Speed
63 66 70 75 81 87 93 100 107 111 114 114 115 115 115 115 112 108 103 99 95 92 88 83 81 77 76 71 68 65 63 60 54 66 67 71 71 71 71 71 76 82 86
67 71 77 82 87 95 101 107 113 116 118 118 118 114 112 110 106 99 95 91 88 85 82 79 76 72 69 66 64 62 58 55 51 53 64 66 64 66 66 65 70 75 78
72 78 83 89 95 103 108 115 119 120 118 117 117 113 110 103 95 91 88 86 83 79 76 73 70 67 65 63 60 58 55 54 51 50 59 61 61 62 62 62 63 66 72
78 83 89 98 104 110 117 121 121 124 120 119 116 110 100 94 89 86 83 80 76 72 70 68 66 62 60 58 57 55 52 50 48 46 51 56 57 56 57 58 60 58 65
86 92 99 106 110 119 124 125 127 123 122 119 111 102 94 90 87 82 79 76 72 69 67 64 61 58 55 53 51 51 50 48 46 45 46 50 50 51 53 52 55 56 59
93 99 107 111 118 124 125 126 121 123 121 115 106 95 89 86 82 78 75 72 68 64 63 63 59 57 55 52 49 47 46 46 45 43 43 46 47 47 49 48 49 55 56
101 107 111 117 124 127 127 124 123 120 115 110 100 93 86 81 76 73 72 69 64 60 60 58 57 53 50 48 45 42 41 39 39 38 39 41 43 41 45 47 45 49 54
107 113 117 123 126 127 125 125 123 118 110 101 95 89 84 78 73 71 69 66 62 56 54 53 50 48 45 44 42 39 36 35 34 33 33 34 37 39 40 43 42 46 48
113 118 122 124 125 125 125 123 119 112 103 97 90 84 79 73 70 67 66 63 58 54 52 49 47 45 43 41 39 37 35 33 32 32 31 31 31 33 35 35 38 41 41
119 122 124 122 121 123 123 119 114 105 100 92 85 79 74 69 67 64 62 59 57 54 51 48 44 42 40 37 35 32 30 30 29 28 27 27 27 28 30 31 33 33 34
122 123 119 118 120 122 120 115 107 101 94 86 79 73 70 67 63 61 59 57 56 54 51 47 41 38 35 33 31 29 27 25 25 24 22 23 24 24 26 28 29 31 33
121 118 117 118 119 119 116 111 102 97 89 80 74 70 67 64 61 60 57 55 54 52 49 44 38 35 33 30 28 25 23 21 21 20 19 19 20 21 23 25 27 30 33
118 117 117 118 117 115 112 105 98 92 83 75 71 68 64 61 60 57 55 53 50 46 44 41 38 33 30 27 25 23 21 18 18 18 17 17 18 19 21 24 25 28 30
115 116 116 115 113 111 107 99 93 85 77 72 69 65 62 59 57 55 53 50 45 41 39 39 37 32 29 27 24 21 19 17 16 16 15 16 17 18 19 21 23 24 26
114 115 113 112 110 107 101 95 87 79 73 70 66 63 59 57 54 53 50 46 43 39 37 37 36 32 28 26 23 20 18 16 15 15 14 14 16 17 19 20 22 23 24
112 112 111 109 105 101 96 89 81 74 72 68 63 60 57 54 52 50 47 43 40 38 37 36 35 31 28 26 24 20 18 16 14 15 14 14 14 16 18 19 22 22 22
111 109 108 104 101 95 89 83 76 72 69 65 61 57 55 52 50 47 44 41 39 37 36 36 32 31 27 25 24 21 19 17 15 15 15 15 15 16 17 19 20 21 22
108 106 102 99 94 89 83 77 72 69 65 63 59 55 52 51 48 45 42 39 38 37 36 34 32 29 28 25 24 23 20 18 18 17 16 16 16 16 17 18 19 20 21
105 101 97 94 88 83 78 73 70 66 62 59 55 53 50 49 47 43 40 38 37 36 34 31 31 29 27 26 24 23 21 19 19 19 18 18 18 19 19 20 21 22 23
100 96 92 88 82 78 73 70 66 63 59 56 52 50 49 48 45 42 39 37 36 34 33 31 30 30 29 28 26 23 22 21 19 20 20 21 21 20 21 23 24 25 25
94 91 87 82 77 72 71 67 63 60 57 53 51 49 47 46 43 41 39 37 35 34 33 32 31 30 29 29 27 25 22 23 21 21 21 22 23 24 24 24 26 27 28
90 86 80 76 72 68 67 63 60 57 55 53 51 48 47 45 42 40 38 36 35 34 32 31 31 31 30 29 29 27 25 23 23 23 23 24 24 26 27 27 27 28 30
85 79 76 71 67 65 63 59 57 54 53 52 50 48 46 44 41 39 38 36 36 35 33 32 31 31 30 28 28 29 27 26 24 23 24 24 25 26 28 30 30 30 30
78 74 71 67 64 61 59 57 55 53 53 52 50 48 45 42 40 39 37 37 36 35 34 32 31 31 30 28 26 26 28 28 26 25 25 26 26 26 27 29 30 32 33
74 70 67 64 62 59 57 54 54 53 51 51 50 48 45 41 39 39 37 36 36 35 34 32 30 30 29 28 27 25 26 28 27 26 26 26 27 27 27 28 29 30 32
70 67 63 62 60 56 54 53 53 52 51 51 50 47 44 41 39 39 37 36 35 35 33 32 29 28 28 28 28 26 25 26 27 28 27 26 27 27 28 28 29 30 31

GFSGL_250_spd_021.txt.gz
Wind_Speed
61 61 64 66 71 76 80 86 91 97 104 107 110 111 110 111 112 108 100 97 92 89 86 84 80 77 76 73 69 67 64 59 55 68 66 69 67 62 62 65 68 71 75
61 63 68 73 79 83 89 93 99 105 109 109 111 111 113 114 108 101 95 91 87 82 79 77 75 72 70 68 65 63 59 55 51 56 63 64 65 63 59 59 65 65 69
63 69 75 81 85 90 96 102 106 108 111 113 114 114 117 111 103 95 90 84 81 78 76 73 71 69 67 65 62 59 55 52 48 46 57 57 58 60 58 57 58 61 63
69 76 81 86 92 97 104 107 109 114 113 113 115 117 115 107 95 89 83 80 77 75 72 70 68 66 65 63 61 58 55 53 50 45 51 52 52 52 52 54 54 53 57
78 84 88 93 99 104 109 111 115 113 114 116 117 116 108 97 90 85 81 78 75 73 70 68 66 63 61 58 55 52 51 50 47 44 46 48 49 49 46 48 50 47 54
85 91 95 100 106 111 113 116 114 115 116 116 116 111 102 93 85 80 78 75 72 70 67 66 63 59 57 53 49 47 46 46 44 41 40 40 42 44 44 41 41 44 49
93 97 102 107 111 114 116 115 114 117 117 116 112 103 95 89 82 78 75 73 71 67 64 62 60 56 54 52 49 46 44 42 41 39 38 37 37 38 38 37 38 40 44
99 103 108 112 114 115 114 114 115 115 116 112 106 97 91 85 79 76 74 72 68 64 61 58 57 54 52 49 46 43 41 39 38 36 36 34 33 34 35 34 35 37 38
103 109 111 114 114 112 113 113 114 113 112 107 101 93 87 81 77 74 73 70 66 63 59 56 54 51 47 45 43 40 38 36 35 33 32 31 30 30 30 31 32 34 35
108 111 114 112 110 112 112 112 111 109 107 102 97 90 83 77 74 73 70 66 63 61 57 53 49 45 41 40 38 37 35 33 32 31 29 28 28 27 26 26 28 30 33
111 114 114 110 110 112 112 110 110 107 104 97 92 86 80 75 73 70 66 64 61 59 56 52 46 42 38 36 36 34 32 30 30 29 27 25 25 24 23 24 26 29 34
114 115 111 108 110 111 111 109 108 105 101 95 88 82 76 73 70 66 63 60 58 57 53 49 45 40 36 35 32 31 29 28 27 26 24 22 22 21 20 21 24 27 30
114 110 107 109 110 110 109 106 105 101 96 90 84 77 73 71 67 63 60 58 56 53 50 46 43 38 35 34 30 28 27 26 24 23 22 20 20 19 18 20 21 23 24
108 107 108 108 108 108 105 104 101 97 92 85 79 73 70 67 63 60 58 56 54 50 46 42 39 38 34 31 31 27 26 24 22 21 19 19 19 18 18 19 20 21 22
107 107 105 106 107 105 103 100 97 92 87 81 74 70 66 63 61 58 56 54 52 47 43 40 38 36 35 32 28 27 25 23 21 20 19 17 18 18 18 19 20 21 22
109 104 105 106 106 104 100 97 92 87 81 77 70 67 63 60 58 56 54 52 49 44 41 39 37 35 32 29 28 25 24 22 21 20 19 17 17 18 18 18 19 20 22
107 110 110 106 103 98 97 94 87 81 77 72 67 63 60 57 55 54 53 50 46 42 40 39 37 34 32 29 26 26 23 22 21 20 19 18 17 18 18 18 19 19 21
108 107 102 101 98 96 94 88 81 76 73 67 65 61 57 54 54 52 51 48 45 40 39 37 35 33 32 29 27 25 24 22 22 20 20 20 19 18 18 18 19 20 20
109 102 100 97 96 94 88 82 76 72 68 64 60 58 55 53 52 50 49 47 44 39 38 36 34 32 31 29 27 25 23 22 21 21 20 20 21 21 19 20 20 20 21
102 100 96 96 92 87 82 76 71 68 64 60 57 55 53 51 51 50 48 45 42 38 36 35 33 32 31 29 26 26 24 22 21 20 21 22 22 23 23 21 22 23 23
98 97 94 90 85 81 76 72 68 64 60 57 55 52 50 49 49 49 47 43 40 38 36 35 34 32 31 31 29 26 25 23 22 21 21 23 23 24 25 25 25 25 25
96 90 87 83 80 75 70 69 65 60 57 55 52 49 49 47 48 47 45 43 40 37 36 34 33 32 31 30 30 28 25 24 23 22 22 22 24 24 25 28 29 29 28
89 83 81 77 73 70 67 65 61 57 54 52 50 48 47 46 46 45 44 41 39 38 36 34 33 32 31 30 29 28 26 24 23 23 22 23 24 25 26 27 29 31 32
79 78 75 71 68 66 63 62 58 54 53 51 49 47 45 45 45 44 42 40 38 37 35 34 33 32 30 29 29 28 26 25 24 24 23 23 24 25 27 27 28 30 32
75 72 70 67 65 63 60 57 56 53 51 50 49 47 45 43 43 41 40 39 37 36 35 34 34 33 31 30 30 29 27 26 24 24 24 24 24 25 26 28 29 30 31
70 67 66 64 62 58 55 54 52 51 51 50 48 46 45 44 41 39 38 38 37 36 35 34 34 33 31 30 30 29 28 26 25 24 25 25 25 25 26 27 29 29 31

GFSGL_250_spd_024.txt.gz
Wind_Speed
63 66 66 64 64 67 72 79 85 89 94 97 101 104 104 106 108 108 110 109 105 101 96 92 87 84 80 75 72 68 66 63 57 71 65 64 62 59 56 58 63 68 70
66 68 68 67 69 74 79 86 92 96 100 103 103 101 104 106 108 108 108 106 100 93 89 84 80 76 72 70 67 64 61 60 54 61 64 61 60 59 55 55 57 62 66
70 71 69 70 75 80 87 93 98 101 106 108 104 103 105 107 109 110 106 99 91 86 82 77 73 70 70 67 63 61 59 57 54 53 58 55 56 56 56 56 53 55 61
74 75 74 77 81 87 93 99 103 106 109 109 105 105 109 110 108 106 99 91 85 81 76 72 70 68 66 64 62 60 57 55 52 50 52 50 49 49 52 53 53 52 53
79 79 80 83 88 93 99 104 107 111 110 107 106 108 110 110 106 100 91 84 80 76 72 71 68 66 64 62 58 57 55 54 51 48 47 44 43 43 46 48 50 49 48
84 83 85 89 94 100 105 109 112 110 108 107 108 108 110 106 103 95 86 81 76 72 71 69 65 63 61 59 57 54 51 50 49 46 45 43 41 39 41 41 44 45 44
84 86 90 95 100 106 110 113 114 109 109 108 110 110 107 104 98 88 82 77 73 71 69 65 62 59 58 58 55 51 47 44 43 43 42 39 37 35 36 36 37 39 42
88 92 96 101 106 110 113 113 109 109 108 109 109 109 104 101 91 84 79 74 72 70 66 62 59 56 55 55 51 47 43 41 39 37 36 34 33 32 31 33 34 34 36
94 98 102 107 110 113 110 106 106 107 106 108 109 104 102 95 86 80 76 72 70 66 62 59 55 54 53 50 47 44 40 39 37 35 32 30 28 28 28 29 30 31 33
99 104 108 112 114 112 108 108 109 109 108 108 104 102 99 89 83 77 72 70 66 62 58 55 53 51 48 45 43 40 38 37 35 32 30 27 26 25 25 25 26 28 30
105 109 112 114 110 106 107 109 109 109 108 104 101 100 93 84 78 74 70 67 63 59 56 53 52 49 44 41 38 38 37 34 32 30 27 25 24 23 23 22 22 23 25
110 112 111 109 106 106 107 109 109 107 103 102 102 95 87 80 75 70 67 63 59 56 53 52 52 47 41 39 36 35 34 32 30 28 26 24 23 22 20 19 19 19 20
112 108 105 105 109 109 108 108 108 102 100 99 95 89 82 76 72 67 63 60 56 53 52 51 50 46 41 37 36 34 31 30 27 26 24 22 21 20 18 17 18 17 19
107 104 106 107 106 106 107 104 102 102 102 96 90 83 78 72 67 64 59 56 54 51 50 49 47 43 41 37 32 31 30 28 26 24 22 21 20 20 17 16 17 17 19
104 108 108 106 111 108 101 100 104 103 96 90 83 80 73 68 64 60 55 53 51 49 48 47 44 40 39 38 35 32 30 28 26 24 21 20 20 20 18 16 16 17 18
107 110 115 111 107 105 104 106 102 97 90 85 80 74 70 65 61 56 53 51 49 47 46 45 41 37 36 35 34 32 29 28 26 24 21 19 19 19 17 16 16 18 19
119 119 113 106 105 107 105 99 95 89 85 78 75 70 66 62 59 54 51 49 47 47 45 43 39 35 33 33 32 31 29 28 26 24 22 19 18 19 18 17 16 17 19
118 114 110 108 106 103 97 94 90 85 78 72 70 66 63 59 56 52 49 47 46 45 44 40 37 34 32 31 30 30 28 26 26 24 22 20 17 18 19 18 17 17 19
111 111 111 107 101 97 92 88 84 77 72 67 65 63 60 57 53 49 47 45 43 43 41 39 36 33 32 31 30 28 27 26 25 25 23 20 18 17 19 19 19 18 19
109 106 100 99 96 92 85 81 75 71 67 63 62 60 57 54 50 48 46 44 42 41 39 37 35 34 32 31 30 29 27 26 24 24 23 22 20 18 18 20 21 21 21
102 99 96 91 88 83 76 74 70 66 63 61 59 57 54 50 48 47 45 43 40 39 38 35 34 33 32 31 30 29 28 25 24 24 23 22 21 20 19 20 22 24 24
95 91 87 84 80 75 72 69 67 65 62 59 57 54 52 48 46 45 44 41 40 38 37 34 33 32 32 31 30 29 27 26 24 24 23 22 22 22 21 21 22 24 26
85 82 79 76 73 69 68 66 64 62 60 57 54 51 47 47 46 44 43 41 39 37 35 33 32 31 30 30 30 29 27 26 25 23 24 23 21 21 22 22 23 24 26
76 75 73 71 69 66 65 63 61 59 57 54 51 48 45 45 44 43 41 40 38 37 35 33 31 31 30 29 29 29 27 27 26 25 24 24 23 22 22 23 24 25 26
73 71 69 67 66 64 62 60 58 56 53 50 48 46 45 44 42 41 40 39 38 36 34 33 30 30 30 29 29 29 28 27 27 25 24 24 25 24 22 22 24 26 27
69 67 66 65 62 60 58 56 54 52 49 47 45 44 44 43 42 40 38 38 37 36 34 32 30 29 29 29 29 29 28 27 27 26 25 25 25 25 24 23 24 25 27

GFSGL_250_spd_027.txt.gz
Wind_Speed
65 69 72 72 72 74 76 76 76 79 83 89 95 101 106 108 111 109 106 109 108 107 106 103 97 94 92 87 82 77 72 68 60 69 68 64 63 61 60 59 61 66 68
72 75 75 77 78 77 77 78 81 86 91 96 101 106 109 111 110 107 108 108 109 106 101 96 92 90 86 80 75 72 69 66 60 59 67 61 58 56 57 57 58 60 64
77 79 81 80 81 80 82 85 88 93 98 102 106 110 112 111 110 108 107 106 105 101 97 91 88 83 78 74 71 68 65 62 60 56 60 58 54 52 53 53 54 56 57
81 83 83 81 81 81 87 92 95 99 103 107 110 111 108 108 108 107 107 105 99 96 92 88 82 77 72 70 67 64 62 60 58 55 55 54 51 49 49 49 50 52 53
85 85 82 82 83 87 93 98 101 105 110 112 112 109 107 108 110 108 106 99 97 92 88 82 74 71 69 66 63 61 59 58 55 52 51 49 47 44 45 46 46 47 50
85 82 84 84 89 93 99 102 106 110 111 110 107 106 107 111 112 106 100 98 92 89 82 75 70 66 65 62 60 58 55 54 51 48 46 43 42 40 42 42 40 42 44
82 84 85 90 95 100 103 107 112 107 105 105 106 106 110 107 107 101 97 94 89 83 75 70 66 63 61 58 55 53 52 48 46 45 43 40 39 38 37 36 37 39 39
85 87 91 96 101 104 108 112 104 101 103 105 108 110 110 101 100 97 92 89 84 75 71 67 63 61 58 55 52 51 48 45 42 41 40 39 36 33 32 32 34 35 37
90 94 97 102 106 109 111 105 98 101 106 110 112 107 103 98 99 91 90 86 77 70 66 64 61 58 55 53 50 47 43 42 40 39 37 34 32 30 29 28 30 30 33
95 100 103 107 110 111 104 101 104 107 111 113 107 101 102 99 94 89 87 80 72 67 63 60 59 55 53 50 47 44 41 39 37 35 33 31 29 28 26 25 25 27 29
101 103 107 110 108 105 103 105 110 112 108 101 100 103 102 96 92 89 82 73 67 64 60 57 55 54 51 48 44 41 39 37 34 33 31 29 27 25 23 22 21 23 25
106 108 109 109 105 107 109 110 113 110 101 104 102 101 95 95 92 82 74 68 65 61 57 55 53 51 49 47 42 38 37 35 31 29 28 27 25 22 19 19 18 20 21
113 113 110 107 111 116 113 111 102 104 105 103 100 100 97 93 85 77 69 65 62 58 55 52 50 49 48 45 41 36 33 32 29 27 26 25 23 20 17 17 16 17 17
112 111 112 116 117 115 110 106 113 110 107 107 102 100 94 83 76 71 67 62 58 56 54 50 48 48 47 44 39 36 32 29 28 26 24 23 22 19 16 16 15 16 16
111 114 115 110 113 113 110 108 105 103 103 101 98 92 85 77 72 67 62 60 56 55 51 48 46 46 44 42 38 36 33 29 27 25 23 22 22 20 16 15 15 15 16
114 116 121 126 123 115 108 107 104 103 100 95 89 83 77 73 68 64 59 56 54 52 49 46 45 44 42 39 37 34 32 30 27 25 23 21 21 20 17 16 15 15 15
115 115 119 120 114 112 110 108 104 97 91 86 81 77 73 67 64 61 57 53 52 50 46 44 43 42 40 37 35 34 32 30 27 25 23 21 20 20 18 16 15 15 15
117 117 119 119 113 106 98 93 90 85 82 78 76 72 68 65 61 58 54 52 50 47 45 43 41 40 38 35 33 33 31 30 28 24 22 21 19 19 19 17 16 16 16
118 114 108 103 97 94 90 87 84 80 75 73 70 67 64 61 59 56 52 50 48 45 42 41 40 39 38 35 32 31 30 29 28 26 22 21 19 18 19 18 17 17 17
104 101 97 95 92 88 84 79 76 74 71 69 65 62 60 59 56 54 51 49 46 43 42 40 39 38 37 35 32 30 29 27 26 26 24 21 20 18 18 19 19 19 19
98 97 93 89 84 79 77 74 73 70 66 65 62 59 57 56 54 52 50 47 45 42 40 39 38 37 36 35 32 30 28 26 25 24 24 22 20 19 19 20 20 20 20
89 85 83 81 78 74 72 71 68 65 63 63 60 57 55 53 52 50 48 47 45 41 39 38 37 35 35 34 32 30 28 27 25 24 24 23 20 19 19 20 21 22 22
83 80 78 77 74 70 68 67 66 63 61 59 57 55 53 51 49 48 45 45 44 41 38 37 36 35 34 34 32 30 29 27 26 24 23 23 22 20 20 20 21 23 23
79 76 72 71 69 68 66 64 63 60 57 55 54 52 51 49 47 46 44 43 42 41 38 36 35 34 33 33 31 30 29 28 26 24 24 23 23 22 21 21 22 23 24
72 72 71 68 66 64 61 60 58 56 54 53 52 50 48 47 45 44 43 42 41 39 38 36 34 33 32 32 30 30 29 28 26 24 24 24 24 23 23 23 23 24 25
70 69 67 66 63 59 57 56 57 56 54 52 51 49 48 46 44 43 42 40 40 39 38 36 35 32 32 31 30 30 29 27 26 25 24 24 24 24 24 25 24 24 25

GFSGL_250_spd_030.txt.gz
Wind_Speed
64 68 72 77 80 82 85 87 85 82 81 83 89 94 100 104 108 111 109 107 107 106 108 106 105 101 101 98 94 89 83 77 70 70 72 70 67 63 64 63 63 63 64
71 75 79 82 83 86 88 85 81 82 84 89 94 101 104 107 110 107 103 105 108 108 108 104 101 100 98 94 89 82 77 73 68 65 68 65 61 58 58 60 60 60 62
76 80 80 82 86 88 85 83 85 87 92 96 101 104 107 109 105 103 103 106 109 107 103 99 97 96 93 87 81 76 72 70 67 62 61 62 58 55 54 54 55 56 57
76 78 82 87 88 86 84 85 89 93 97 101 104 107 107 104 104 105 103 104 107 106 102 97 94 89 86 81 76 71 68 66 63 61 58 56 55 53 49 50 50 49 54
76 82 87 90 87 86 86 92 96 100 103 105 107 109 103 104 108 106 106 102 99 99 96 94 90 82 79 76 71 67 63 61 59 58 56 54 52 49 46 45 43 45 47
82 86 89 89 87 88 92 98 102 105 109 109 106 102 105 107 110 111 110 108 99 94 92 89 83 76 75 70 68 64 59 58 58 55 54 49 46 42 41 41 38 39 43
86 91 93 89 90 94 99 103 106 110 112 106 103 105 105 108 109 111 103 99 96 90 87 82 77 72 70 65 61 59 58 57 55 54 49 44 41 38 38 37 37 37 39
92 94 92 91 94 99 105 110 113 112 109 107 106 107 108 112 113 99 95 96 92 87 82 76 74 67 65 62 59 55 55 54 53 50 45 43 40 38 36 35 35 34 35
93 93 93 95 100 105 109 114 110 109 107 107 105 101 104 109 100 99 96 93 88 81 75 73 70 63 61 59 56 54 53 52 49 45 43 41 38 36 33 31 31 31 31
94 95 98 102 107 110 110 108 107 109 111 111 111 114 102 97 99 99 92 86 82 77 73 68 66 60 59 56 53 52 51 50 47 41 39 37 35 33 30 29 29 29 29
97 101 105 109 111 111 110 111 113 115 113 113 114 113 109 102 99 96 88 82 78 74 69 64 60 60 57 53 51 50 50 48 43 39 35 34 32 30 28 27 26 26 26
103 109 113 114 113 114 113 112 114 116 115 113 111 108 103 100 92 92 85 80 76 71 65 61 58 56 54 50 49 48 48 46 41 37 34 33 30 27 24 24 23 22 22
108 113 115 118 118 117 117 114 113 112 113 109 102 98 96 92 90 89 84 76 70 65 63 59 57 54 50 48 47 46 46 43 37 35 33 31 29 26 23 21 21 20 20
115 118 118 117 116 116 116 118 116 108 104 102 98 96 93 90 84 79 75 71 65 63 60 57 55 52 48 46 45 44 44 40 34 31 30 29 27 25 22 20 19 19 17
119 119 119 115 111 112 110 109 109 103 98 98 95 90 87 83 77 70 66 66 65 61 56 54 52 49 46 45 43 43 42 38 33 29 28 27 25 24 21 19 18 18 16
118 118 115 115 115 113 110 110 109 105 98 92 87 81 77 73 72 67 64 61 59 58 55 52 50 46 45 44 42 41 41 37 33 30 28 25 24 24 22 19 17 17 16
118 114 114 114 113 112 104 97 92 91 88 84 82 79 75 71 67 63 60 58 56 55 52 50 48 45 44 43 41 40 39 35 33 30 27 26 23 23 23 19 17 16 17
115 112 109 111 108 103 99 94 89 85 82 80 76 73 72 67 63 60 59 57 55 52 49 47 45 43 44 42 41 39 37 34 32 30 28 25 23 23 22 20 17 16 17
113 111 109 108 106 99 93 90 86 82 78 75 73 68 67 65 62 57 56 54 52 50 47 45 43 43 43 40 39 37 35 33 31 29 27 26 22 22 22 21 19 16 16
109 105 101 96 92 89 85 82 81 80 75 71 69 66 63 63 60 55 53 51 49 47 45 43 41 42 41 39 38 36 33 31 30 28 26 25 23 21 21 21 20 18 17
103 99 94 89 85 85 82 78 74 71 71 68 66 63 60 58 56 54 51 48 47 45 43 42 41 40 39 38 37 34 32 30 29 27 26 25 23 22 21 21 21 20 18
97 92 87 85 81 79 77 74 71 67 66 64 62 60 58 56 54 52 50 48 46 44 42 41 40 39 38 37 35 34 31 30 29 26 25 25 24 22 21 21 21 21 21
91 88 85 81 77 77 74 70 67 65 62 61 60 59 57 56 55 52 49 46 44 44 42 40 39 38 37 35 33 33 31 29 27 27 25 24 24 24 22 21 22 22 21
88 84 80 77 73 71 72 69 63 62 61 60 59 58 57 56 54 52 49 46 44 43 42 41 39 37 36 36 33 32 31 29 27 26 25 24 23 23 24 23 22 23 23
84 80 78 74 72 69 66 66 65 62 59 58 57 56 55 52 51 49 46 44 42 41 40 40 39 38 34 34 34 30 30 28 28 27 26 24 23 23 24 24 22 23 24
79 76 75 71 68 67 66 65 64 63 60 57 55 53 51 48 47 46 43 42 40 39 38 38 38 37 34 33 32 31 29 28 27 26 25 24 23 22 23 24 23 23 24

GFSGL_250_spd_033.txt.gz
Wind_Speed
59 62 65 67 70 73 74 77 83 87 92 94 90 87 90 94 100 106 109 111 108 104 102 101 105 107 107 106 105 101 99 94 88 84 78 70 66 63 63 61 59 59 59
57 61 65 67 69 73 77 83 86 91 94 91 89 91 95 101 107 111 110 105 103 101 99 102 103 106 103 103 102 99 95 90 82 74 70 66 62 60 58 58 57 57 57
65 68 68 66 73 78 82 86 92 95 93 91 92 97 102 106 110 111 106 103 103 103 103 102 102 99 98 98 96 92 87 82 75 68 66 62 60 56 55 53 53 53 55
69 67 67 74 79 84 87 92 97 94 93 95 98 104 109 111 108 106 104 104 105 107 104 99 97 93 92 90 88 84 79 74 68 65 62 60 58 54 52 53 52 49 51
68 71 76 82 83 88 92 98 95 95 97 102 107 110 109 106 106 105 105 105 105 104 102 98 92 87 85 81 81 78 71 66 64 62 59 57 56 53 50 47 47 48 44
74 80 84 87 89 93 97 97 97 99 104 110 114 112 106 100 99 103 107 108 106 101 95 92 89 83 79 76 74 70 65 62 61 57 55 54 52 51 48 43 43 43 44
81 84 88 91 94 97 97 98 101 106 111 115 112 108 105 105 108 109 107 104 102 99 93 89 86 81 76 72 67 64 61 60 57 55 54 52 51 49 45 41 40 39 41
87 90 92 96 97 96 98 102 107 111 116 114 111 108 107 109 106 105 105 100 99 98 92 84 80 74 70 67 64 61 57 57 53 51 50 50 48 48 45 41 38 36 38
92 93 96 99 98 100 104 110 116 119 117 112 110 109 111 111 112 109 104 98 93 92 86 78 75 70 66 65 62 60 56 54 51 49 48 48 46 44 43 38 37 38 35
95 98 99 99 101 105 110 114 119 117 113 110 108 111 111 106 106 105 101 95 88 85 79 73 70 65 63 60 59 57 54 52 49 46 45 45 43 39 40 37 36 35 34
97 96 97 101 107 112 115 120 117 113 112 111 110 110 107 102 98 95 91 85 81 77 73 69 67 64 60 58 55 53 52 49 46 45 44 43 39 36 35 34 34 33 32
98 99 102 107 112 116 120 118 115 112 115 115 113 109 103 98 93 90 87 84 78 74 71 68 64 62 58 56 53 51 49 46 44 42 43 42 38 34 33 32 31 31 29
101 103 108 114 117 121 119 115 113 114 115 111 105 100 96 91 86 83 80 78 74 68 65 63 61 58 55 53 51 49 45 44 42 40 40 40 37 33 31 30 29 29 28
105 109 114 118 122 122 119 115 114 112 110 106 102 95 89 86 80 79 77 74 72 67 62 60 58 55 52 50 48 47 43 41 40 38 37 37 35 33 30 27 27 26 26
111 115 118 122 124 121 115 113 112 110 106 99 94 88 82 80 76 72 70 67 65 63 60 57 55 52 50 48 46 44 41 39 38 36 35 34 33 31 29 26 25 25 24
116 119 122 123 119 115 112 111 110 105 100 95 89 84 82 77 73 68 65 64 61 59 57 55 52 50 47 45 43 40 40 38 37 34 33 32 30 29 27 26 23 23 22
119 123 122 116 113 113 110 106 101 99 94 91 87 81 76 73 69 66 63 59 55 55 53 52 50 47 45 43 41 38 37 36 35 33 32 30 28 27 25 25 23 21 21
123 120 116 113 110 106 105 101 96 91 87 86 84 77 71 69 65 61 59 56 53 51 51 49 48 46 43 42 40 38 36 34 33 31 30 29 27 25 24 24 23 21 20
120 118 113 108 104 102 98 94 89 88 85 80 77 75 68 66 63 58 56 56 53 51 50 48 46 44 41 39 38 37 35 34 31 29 28 27 26 24 23 23 23 20 20
118 113 107 103 99 94 92 88 83 78 78 75 72 70 65 62 62 59 56 55 53 51 50 48 45 42 40 37 37 36 34 32 30 29 28 27 26 24 24 23 22 21 19
113 110 104 99 96 92 88 84 79 74 73 70 65 65 63 61 60 59 57 56 54 51 49 47 45 42 39 37 35 34 32 30 29 28 27 26 26 24 24 23 22 21 20
109 103 98 96 92 88 84 79 75 71 70 68 63 62 61 58 57 56 55 54 52 49 45 44 43 40 38 37 35 33 32 30 28 27 26 25 24 24 24 23 21 21 21
102 99 96 92 88 84 79 76 72 67 66 66 65 63 60 57 55 54 51 49 47 46 44 41 39 38 36 35 34 32 31 30 28 26 25 23 23 23 24 23 21 21 22
96 93 89 86 83 79 76 73 70 67 65 64 62 62 61 58 54 51 49 47 45 44 41 39 38 37 35 33 31 32 29 29 27 26 24 22 22 22 23 24 23 21 22
91 88 85 81 78 76 73 70 67 67 65 63 62 60 59 58 54 51 48 45 44 43 40 37 36 35 35 33 31 29 29 29 27 25 24 23 22 22 22 23 24 24 23
87 83 80 77 74 70 68 67 65 64 64 63 58 56 55 53 50 47 43 41 40 39 39 36 34 33 33 32 32 30 28 27 26 26 24 24 23 22 22 22 24 25 25

GFSGL_250_spd_036.txt.gz
Wind_Speed
53 56 60 62 63 66 66 67 70 75 79 83 86 90 96 97 96 98 102 108 112 111 103 100 99 101 105 109 109 109 105 100 93 90 90 86 82 78 72 65 61 57 53
56 60 63 65 63 66 71 74 78 81 85 88 90 96 97 97 99 104 108 110 108 105 103 101 101 102 105 109 108 105 101 94 89 87 86 81 75 69 65 61 57 53 53
62 64 66 65 65 70 75 80 84 87 90 92 97 96 96 98 104 108 111 107 104 103 104 104 106 106 105 103 99 95 93 88 85 82 78 74 70 63 61 57 54 51 51
64 66 67 67 69 75 80 85 88 91 94 95 95 95 99 105 107 108 107 105 104 104 106 107 106 106 99 94 92 90 87 82 80 76 72 69 63 59 57 55 52 50 48
65 66 68 71 76 81 85 86 92 95 94 94 95 101 105 108 111 108 106 106 106 108 109 108 103 100 97 92 87 85 80 77 75 71 67 63 58 57 53 51 48 51 46
62 68 73 77 81 86 88 91 97 97 96 98 103 105 110 114 110 107 108 110 109 109 103 102 100 99 93 87 81 77 74 69 68 65 61 56 56 53 51 48 48 47 45
69 74 79 84 87 89 90 98 99 96 99 106 109 113 116 114 111 111 111 110 107 103 100 98 95 91 86 81 77 71 67 64 62 61 59 54 53 49 49 46 45 44 39
77 82 86 90 89 91 98 99 98 100 106 109 114 118 117 114 113 113 112 109 104 99 96 91 87 83 77 75 72 69 65 61 57 55 54 54 50 47 46 45 46 41 36
85 88 91 92 93 99 104 99 100 106 111 115 119 120 117 115 113 112 110 105 97 93 89 84 81 76 74 72 68 64 61 56 54 52 51 48 46 45 44 43 41 39 35
90 92 95 95 98 104 101 101 106 112 116 120 120 118 113 112 111 109 105 98 92 88 83 79 76 72 70 68 66 62 59 56 52 49 48 45 43 42 40 41 39 36 35
91 95 96 97 104 104 103 106 111 115 120 122 117 115 114 113 110 105 97 92 87 84 79 75 71 68 65 62 60 58 56 53 50 47 44 41 40 39 38 37 36 35 32
95 97 98 102 104 103 106 112 115 120 123 118 115 114 113 110 106 98 92 88 84 79 72 68 65 64 62 60 58 55 52 51 47 44 42 39 37 36 35 34 32 33 31
99 99 102 105 103 106 111 115 119 123 119 114 114 111 109 105 98 91 89 84 80 75 69 66 63 60 59 57 55 52 49 47 43 41 40 39 37 34 32 30 30 30 32
99 102 104 104 108 111 115 118 121 119 115 115 112 108 104 99 93 87 83 79 75 72 67 62 58 57 54 52 50 48 46 43 41 38 37 37 36 34 31 28 28 29 30
103 104 104 107 112 117 118 121 120 117 115 112 108 103 96 90 87 81 78 74 71 67 63 58 54 53 52 50 48 46 43 41 39 37 36 35 34 33 31 28 26 27 27
105 106 109 113 118 118 120 119 120 115 112 108 103 96 88 84 80 76 73 70 67 62 60 56 54 51 50 48 46 44 41 38 37 36 35 32 32 31 29 27 25 25 26
107 110 114 118 118 120 119 117 112 112 110 104 100 95 87 79 76 71 68 64 63 61 59 56 53 51 49 47 44 42 39 36 35 35 33 31 31 29 27 25 24 23 24
111 115 118 120 122 121 120 116 112 106 98 94 94 90 87 79 75 70 64 62 61 60 58 56 54 52 50 47 44 41 37 35 34 34 33 31 29 28 26 25 22 22 23
115 118 119 119 118 117 113 110 104 98 91 86 83 82 82 75 71 67 63 60 58 57 56 56 54 52 49 46 43 40 36 34 33 33 32 30 28 27 25 25 22 21 21
119 120 119 118 117 113 110 104 98 92 85 81 78 76 75 72 68 65 62 58 57 56 56 55 52 49 46 44 41 38 35 33 32 32 30 29 27 26 25 23 22 20 20
119 119 116 113 111 109 102 97 92 85 80 76 73 72 70 68 67 63 61 58 55 54 52 50 49 46 43 42 39 36 34 32 31 31 30 29 27 26 25 22 21 20 19
117 114 112 111 107 102 96 91 85 80 76 72 70 68 66 64 64 63 60 58 54 51 50 48 47 45 41 40 38 35 32 30 30 29 29 27 26 25 24 22 21 20 20
113 111 109 104 98 93 88 84 81 76 73 69 66 64 64 62 61 61 58 56 53 49 47 45 44 42 40 39 37 35 32 30 29 28 28 26 25 24 23 23 22 21 20
109 106 101 95 90 86 82 79 77 74 70 67 64 63 62 62 57 57 55 52 50 47 43 42 41 39 37 36 35 34 32 29 29 28 27 27 25 24 23 23 23 22 20
103 98 93 87 83 81 79 76 71 69 67 66 64 62 59 59 56 54 51 49 47 44 41 39 38 37 36 34 33 32 31 30 28 27 26 26 25 24 23 23 23 23 22
96 91 85 81 79 76 73 71 68 65 63 62 61 60 58 55 52 50 48 45 43 40 38 36 35 35 34 33 32 31 30 29 27 26 26 26 24 24 24 24 23 23 24

GFSGL_250_spd_039.txt.gz
Wind_Speed
48 48 51 53 55 58 61 65 68 70 71 75 78 82 84 88 96 94 92 96 103 105 107 110 110 109 108 111 113 113 112 108 102 98 93 88 84 81 79 77 72 66 59
48 52 54 56 60 63 67 66 67 71 75 79 82 84 89 95 94 93 94 101 103 108 109 109 110 110 111 110 110 108 105 101 95 89 85 81 77 74 71 70 65 60 56
53 58 59 62 65 68 66 68 73 78 82 86 87 88 95 96 94 96 101 104 108 110 109 109 110 110 111 108 106 102 97 92 85 81 78 75 72 68 66 62 60 56 52
60 61 63 66 67 67 70 76 81 84 86 89 90 94 99 95 97 102 104 109 113 110 109 110 111 111 109 106 101 94 89 84 80 76 74 71 68 65 62 60 56 53 49
61 64 66 68 69 73 76 81 85 88 90 91 93 99 98 99 104 105 109 114 114 113 113 113 113 110 106 99 93 87 83 79 76 74 71 67 63 61 58 55 53 51 45
65 66 69 70 73 76 81 85 88 91 91 94 99 99 101 105 107 111 116 119 116 114 116 114 111 109 102 94 88 83 79 76 73 69 66 62 58 55 53 52 50 48 45
66 68 70 73 78 82 86 89 92 94 95 98 99 101 105 109 112 116 119 118 117 117 116 113 108 103 95 89 84 78 74 71 68 64 62 58 56 53 51 48 46 45 43
68 71 74 79 83 87 90 92 93 96 99 102 101 105 108 112 116 118 120 121 118 116 113 109 102 96 89 83 79 75 72 67 64 60 59 57 55 52 49 46 44 42 41
74 78 82 85 88 92 90 94 96 96 101 101 103 107 111 114 116 120 120 117 115 112 109 102 95 90 84 78 74 71 68 65 61 58 55 53 51 49 48 45 42 41 38
79 83 87 90 93 95 98 98 98 102 103 103 107 111 114 116 120 120 116 114 110 108 103 95 90 84 78 73 70 66 64 60 57 54 52 50 49 48 45 43 40 38 39
84 88 91 94 96 98 99 100 102 105 104 107 111 115 117 119 120 118 114 112 109 104 98 91 84 78 74 69 65 62 58 56 53 51 48 46 45 45 43 40 39 38 37
88 92 95 96 99 100 101 103 106 106 107 113 115 116 118 119 117 114 112 109 105 98 93 85 79 73 70 65 60 57 55 53 51 49 47 44 42 41 38 38 37 36 37
92 95 97 100 100 102 103 106 107 108 112 115 115 116 117 116 115 111 108 102 97 92 86 81 74 69 66 62 58 55 53 50 49 47 45 43 40 37 35 34 35 35 35
95 96 100 100 102 104 106 107 108 113 116 115 116 117 115 114 113 108 102 97 93 86 81 77 70 65 62 60 57 53 52 48 47 46 44 41 38 36 35 33 32 33 32
97 100 101 103 105 108 108 109 113 117 117 116 117 116 113 109 106 102 98 93 88 82 76 73 66 63 61 57 54 51 49 48 46 44 42 39 37 36 34 32 31 30 30
101 102 104 106 109 107 110 112 118 119 118 120 118 115 110 106 97 93 93 89 83 76 74 69 64 61 58 55 52 50 48 46 44 42 40 38 36 35 33 31 30 29 28
103 106 108 110 109 113 116 117 116 116 121 121 119 114 108 99 95 88 86 82 78 72 69 67 62 59 57 54 52 50 47 45 42 40 38 37 35 34 31 30 29 28 27
105 108 110 110 115 117 120 120 119 117 112 110 113 108 102 95 90 86 82 77 73 70 64 64 60 58 56 54 49 46 44 42 40 38 36 35 34 33 30 28 27 27 25
109 111 111 115 118 119 119 118 116 113 111 106 100 97 94 90 85 83 77 71 66 65 64 60 57 55 54 52 48 44 42 40 38 36 35 34 33 31 29 28 27 26 25
111 113 116 119 121 121 119 115 114 111 107 101 95 91 86 82 79 76 73 69 64 61 61 58 56 53 51 49 47 44 41 38 36 34 34 33 32 30 28 28 26 25 24
114 118 121 121 119 117 114 112 109 105 99 95 90 86 80 75 73 72 70 68 64 58 55 53 52 50 48 46 44 42 39 37 35 33 32 31 31 30 27 26 26 24 23
119 120 119 118 116 112 110 107 103 97 92 89 83 78 74 70 68 68 68 66 61 57 54 51 49 47 46 43 41 40 36 33 33 32 30 30 29 30 27 26 25 24 22
120 118 117 113 110 108 105 100 96 91 86 82 77 72 70 68 65 64 63 62 59 56 53 49 48 45 43 40 40 38 35 31 30 30 29 29 28 28 28 26 25 24 22
117 114 111 109 106 102 97 93 90 85 80 76 72 70 68 65 62 60 60 58 55 53 51 48 45 43 41 39 38 36 34 30 29 28 29 28 28 27 27 26 24 24 22
111 109 108 104 98 95 91 87 83 78 76 73 70 67 64 63 61 58 55 54 51 50 47 44 42 40 39 37 35 33 32 31 29 27 28 28 27 26 26 25 24 24 24
107 105 101 96 92 88 83 80 76 74 72 70 67 63 61 59 58 56 53 50 48 47 43 40 39 38 37 36 34 32 31 30 29 27 27 27 26 26 25 25 24 23 24

GFSGL_250_spd_042.txt.gz
Wind_Speed
41 46 49 51 53 54 59 62 62 65 69 70 70 75 79 82 85 88 90 93 96 98 99 103 107 106 109 111 113 114 113 109 102 99 94 88 84 80 78 75 73 70 66
42 46 46 47 53 59 62 64 67 69 72 75 75 79 83 86 89 92 93 96 100 99 102 106 107 110 112 114 115 113 109 106 100 93 90 85 81 77 74 71 70 64 60
43 49 48 52 61 64 67 68 69 72 74 77 82 84 87 91 92 95 97 101 101 103 108 109 112 114 116 117 114 111 108 103 96 89 87 82 78 72 69 65 64 60 54
47 52 53 60 63 67 69 69 72 74 76 81 86 89 92 95 97 99 101 104 106 109 113 115 116 118 118 116 113 110 104 97 91 86 81 77 72 67 63 60 60 54 52
51 56 61 64 68 70 71 73 76 78 81 85 90 94 98 100 101 103 106 108 108 113 116 116 118 119 117 115 113 106 98 91 86 81 77 72 67 63 59 56 55 51 47
58 63 66 68 71 74 76 77 79 82 86 89 92 97 98 101 103 106 108 108 112 117 118 118 118 118 117 115 108 99 92 85 80 76 72 68 64 60 56 53 50 50 47
63 65 68 71 74 76 79 81 83 87 92 95 99 100 102 105 106 109 109 111 116 120 118 118 119 118 115 109 100 93 87 79 75 71 67 64 61 57 54 50 46 45 45
65 67 70 74 76 79 81 84 87 92 97 97 100 103 106 108 110 110 112 117 120 119 118 119 119 116 109 100 94 89 82 75 71 66 63 60 57 55 52 49 46 42 41
68 71 74 76 79 81 84 87 91 95 98 102 105 108 108 111 110 113 117 120 119 117 119 118 115 109 101 93 88 84 77 71 67 62 60 58 56 53 51 49 44 41 39
72 74 76 78 82 85 88 91 95 97 101 104 106 108 111 111 114 118 121 120 117 116 116 115 109 100 95 89 84 80 72 67 62 59 57 56 54 52 49 47 45 39 37
74 78 80 83 87 90 93 96 99 102 104 105 107 111 112 114 118 122 122 118 117 114 113 110 102 94 89 85 80 75 68 64 60 58 56 54 52 50 48 46 44 40 37
79 81 85 89 92 94 97 100 102 104 105 108 110 113 115 119 122 123 120 117 115 111 109 104 98 90 85 81 75 71 64 61 58 54 53 51 50 47 46 43 42 39 39
82 86 91 93 95 98 100 102 104 105 107 110 114 114 117 122 123 121 117 115 112 106 103 98 92 87 80 75 72 66 61 58 55 52 51 49 48 46 44 40 40 38 37
88 92 94 95 98 100 101 103 105 108 111 115 115 117 120 119 119 118 115 113 109 102 95 94 88 82 76 71 67 62 58 55 53 51 50 48 46 44 42 39 36 37 36
92 93 94 98 100 102 103 106 107 112 116 116 118 121 119 114 115 113 113 110 103 94 89 88 84 78 71 67 64 60 56 54 52 49 48 45 43 42 39 37 36 36 34
94 96 99 100 102 103 104 107 112 115 116 120 123 122 115 114 110 110 106 101 96 91 85 82 76 72 68 65 62 59 55 53 51 48 45 43 41 40 37 36 34 35 33
95 98 100 101 103 105 107 110 111 113 120 125 127 124 121 116 112 109 99 93 90 87 81 76 71 68 66 63 60 58 54 52 49 45 43 41 39 38 36 34 33 33 31
97 98 100 102 105 108 112 113 114 115 116 117 119 119 116 113 107 100 93 87 83 81 77 72 69 66 64 61 58 55 52 49 47 44 41 39 37 36 35 33 31 31 30
99 101 103 106 109 111 111 115 118 118 115 110 109 111 109 104 97 93 88 81 77 74 74 71 67 64 61 58 55 52 49 45 43 42 39 37 35 35 34 32 30 29 29
101 103 106 108 110 113 117 118 116 113 111 110 108 103 99 94 90 87 83 77 73 73 72 69 64 60 58 55 53 50 45 43 41 40 37 35 33 33 32 30 29 28 27
105 107 108 111 114 117 117 114 112 111 109 107 104 96 91 87 82 79 77 76 72 70 68 64 61 57 55 51 48 46 43 41 38 37 35 33 31 30 30 30 27 26 25
106 110 112 115 116 116 114 112 111 108 104 99 93 90 86 82 78 74 72 71 71 68 64 61 57 54 50 47 45 42 39 38 35 34 33 31 30 29 28 28 26 25 24
111 114 115 115 115 113 111 109 105 103 95 90 87 83 81 79 76 72 68 67 66 65 60 57 53 51 47 44 41 38 37 35 32 32 31 30 29 27 26 26 26 24 23
116 114 115 115 113 111 108 106 100 93 89 85 81 78 77 76 73 70 66 62 60 59 59 51 49 47 44 40 38 36 35 33 31 30 30 28 27 26 25 25 25 24 22
114 114 114 112 110 107 104 98 92 88 84 80 77 76 73 71 69 67 63 59 56 54 52 49 45 44 40 38 36 35 34 32 30 29 29 28 27 25 24 25 23 23 22
114 112 111 108 105 100 94 90 87 83 80 77 74 71 69 67 64 62 59 55 52 50 48 45 42 41 38 37 35 34 32 31 29 28 28 27 26 24 23 23 22 22 22

GFSGL_250_spd_045.txt.gz
Wind_Speed
34 34 35 36 41 44 47 55 60 66 66 73 75 76 76 76 76 80 84 86 89 93 95 98 101 103 107 107 110 114 116 115 113 114 110 106 96 88 83 79 73 69 65
30 34 36 37 43 48 55 58 64 65 70 75 78 79 81 82 81 86 90 92 92 96 100 102 104 107 108 111 115 118 117 116 114 110 109 101 94 86 80 74 68 63 60
35 37 39 45 49 53 56 63 66 69 73 76 80 84 86 86 86 89 93 95 98 101 103 105 109 109 111 115 119 120 118 116 111 108 104 96 88 82 76 70 66 61 56
40 41 46 51 54 58 62 65 69 73 76 79 83 85 88 90 91 92 94 98 101 103 107 109 112 112 116 121 121 120 117 113 108 103 97 90 82 77 72 67 64 57 53
44 48 52 56 59 62 65 69 73 76 79 82 85 86 88 91 94 97 100 103 105 108 110 114 113 116 122 123 121 119 114 108 104 97 92 81 78 73 68 63 59 55 49
50 53 56 59 62 65 69 74 77 79 82 85 86 89 92 95 99 102 103 107 108 112 114 117 117 122 125 123 119 115 110 104 98 91 84 77 74 69 64 59 56 53 50
53 55 59 63 67 70 74 77 79 82 86 86 88 91 95 98 102 105 109 110 112 115 117 118 121 126 125 120 116 111 105 100 92 86 78 74 70 65 61 58 54 51 48
56 61 65 69 71 74 77 80 83 85 86 89 91 95 98 102 104 108 110 111 113 116 119 121 125 126 122 117 113 108 100 93 86 81 74 70 66 61 59 57 53 50 45
62 66 70 72 75 77 80 83 85 87 89 92 96 98 102 106 108 110 112 113 115 119 121 124 126 122 117 112 107 100 94 87 83 75 71 67 63 60 57 54 51 49 45
68 70 72 74 77 81 83 85 88 90 93 97 100 102 106 108 111 112 114 114 118 121 123 126 123 117 114 108 101 93 89 83 78 71 67 61 60 57 53 51 51 49 45
69 71 74 78 81 83 86 89 90 94 97 99 102 106 108 109 111 113 116 119 121 121 124 122 117 113 107 101 94 88 83 78 73 66 62 58 56 54 52 51 50 49 46
71 75 78 80 82 85 88 92 95 97 99 101 102 104 107 110 112 115 119 121 122 122 119 115 111 106 100 94 89 82 77 72 67 63 59 56 54 52 51 51 48 46 45
73 76 79 81 84 86 90 94 97 99 99 100 102 104 106 111 116 121 121 123 122 117 112 108 104 100 93 88 83 78 72 67 64 60 57 54 52 51 50 49 46 43 41
76 77 77 79 84 89 92 96 97 99 101 104 105 106 108 111 114 117 120 121 120 113 109 103 97 93 88 82 77 73 68 66 63 59 56 52 51 49 48 47 43 40 37
75 77 81 85 91 95 99 101 100 100 103 104 106 107 108 110 113 115 114 111 109 105 102 99 91 87 82 76 71 69 66 64 61 58 54 51 49 47 46 44 41 38 35
82 86 86 89 95 97 100 99 99 102 105 107 108 111 113 115 113 111 107 104 102 98 92 90 87 82 77 71 67 67 64 61 59 57 52 49 46 45 44 42 39 37 34
89 91 93 95 100 102 100 98 101 104 107 111 114 115 116 116 113 107 103 101 99 93 89 85 80 77 73 69 66 64 62 58 56 53 50 47 44 42 41 40 37 34 33
96 100 102 100 104 101 99 99 99 102 107 111 115 116 114 111 108 105 99 94 91 89 83 79 76 73 69 65 63 61 58 55 52 50 47 44 42 40 39 37 35 33 31
102 100 99 102 102 100 100 101 104 107 109 110 110 109 108 108 106 102 97 90 84 81 78 75 72 70 66 62 59 57 54 51 47 46 44 42 40 37 36 34 33 30 29
97 99 99 101 101 101 104 107 110 110 109 108 105 101 101 102 100 97 92 88 81 77 74 71 69 67 63 58 54 52 50 47 43 42 41 39 37 34 34 32 31 28 26
99 100 101 100 103 107 110 112 111 110 108 105 101 98 96 92 89 87 83 80 78 74 71 68 67 63 58 53 50 48 46 44 40 39 38 36 33 32 32 30 29 27 25
101 101 102 106 109 112 113 112 111 110 106 101 98 96 91 87 82 78 77 75 72 68 67 66 62 59 54 48 46 44 43 40 37 36 35 34 31 30 29 28 28 26 25
103 105 107 110 113 114 113 112 111 106 101 98 93 89 86 81 76 75 74 71 69 65 61 59 58 55 51 45 42 41 39 36 33 33 32 31 29 28 27 26 26 25 23
107 110 112 115 115 114 112 110 106 102 98 93 87 84 80 77 74 72 70 69 66 61 57 54 52 51 47 43 39 38 36 33 32 31 30 28 26 26 25 25 25 24 23
111 114 115 114 113 111 110 105 101 97 92 87 83 80 76 73 70 69 67 64 60 57 53 51 48 47 44 41 38 36 34 31 31 29 28 27 24 24 24 23 24 23 22
114 113 113 111 109 107 104 101 97 91 87 84 80 77 74 70 69 65 62 59 56 53 50 47 46 44 41 38 36 33 32 30 29 28 26 25 23 22 22 22 22 22 21

GFSGL_250_spd_048.txt.gz
Wind_Speed
40 41 41 41 43 45 45 47 49 54 57 60 63 66 71 77 82 83 87 87 89 90 93 95 97 100 103 105 106 108 110 112 113 114 118 120 114 112 105 100 91 84 80
41 42 45 45 43 44 46 49 53 55 61 63 68 71 78 81 83 85 88 92 95 96 97 98 101 104 107 109 111 113 114 116 117 118 121 120 112 108 101 94 85 79 75
42 43 44 43 44 47 49 52 56 62 64 68 72 76 80 83 86 88 90 92 96 99 102 104 107 110 112 114 115 117 117 119 122 122 120 116 110 104 96 87 83 77 71
44 45 46 48 49 51 54 58 62 66 70 74 76 78 83 86 89 92 94 97 101 102 105 107 110 113 115 116 117 118 121 123 125 123 116 111 107 100 91 84 80 74 67
44 48 48 50 53 56 59 63 68 71 74 76 79 82 87 91 94 95 98 101 102 105 107 110 112 113 116 117 119 122 123 125 126 120 113 109 102 94 86 81 75 70 64
50 53 55 56 58 61 64 68 71 74 76 79 83 87 91 94 96 100 100 101 103 106 108 110 112 114 117 119 121 122 126 128 122 116 111 105 97 90 82 76 70 66 61
50 53 57 60 62 64 67 70 72 76 80 83 87 90 93 96 98 99 100 102 105 107 108 111 114 117 118 121 122 125 126 123 119 112 106 98 91 84 77 72 66 63 58
51 52 55 58 61 64 68 72 76 80 83 86 87 91 94 95 96 99 102 104 105 107 110 113 115 118 120 122 125 124 122 119 112 106 98 91 85 78 72 67 62 60 57
50 52 55 59 64 68 72 76 79 82 84 85 88 89 90 96 98 102 105 105 105 108 112 114 116 118 123 124 124 122 118 114 104 98 91 85 79 73 68 62 60 59 56
54 57 61 64 68 72 75 77 79 81 84 86 86 89 92 96 101 106 107 104 105 108 111 113 117 121 125 123 121 116 111 105 96 87 86 80 71 68 65 60 59 57 55
58 61 64 67 70 73 75 79 82 83 82 86 89 92 96 100 103 107 106 106 108 108 110 115 120 121 121 121 114 109 102 94 89 84 78 72 66 66 63 60 57 55 53
61 63 66 69 73 76 78 78 80 82 85 89 93 98 102 104 107 106 106 107 109 111 115 117 119 119 116 112 108 100 92 87 84 78 74 69 63 64 60 57 55 53 50
63 67 69 71 72 76 79 81 84 87 92 96 99 106 104 106 106 105 107 110 115 121 122 118 116 114 111 106 99 92 85 82 78 75 70 67 62 60 57 55 52 50 47
66 69 72 76 81 85 87 90 94 97 101 102 103 102 104 104 104 104 106 111 116 118 118 117 113 108 106 97 90 86 81 77 73 71 68 64 59 56 54 51 49 46 44
72 75 79 84 89 91 92 96 98 99 99 99 100 103 102 103 104 107 111 113 113 111 108 106 104 102 95 91 86 80 76 74 71 67 63 60 56 53 51 48 46 43 42
77 81 87 91 91 92 95 95 96 96 97 100 101 101 101 103 107 111 111 110 109 107 103 99 95 91 89 85 80 76 72 70 66 63 60 57 53 50 47 45 43 40 39
81 89 92 94 92 91 93 95 95 96 99 102 103 102 105 108 111 110 108 110 109 104 97 92 89 86 83 79 76 72 67 64 62 59 56 53 49 47 44 42 40 38 36
90 91 93 92 92 93 93 95 97 99 100 101 102 106 111 112 111 109 108 106 100 98 91 86 84 80 78 74 70 67 63 61 58 55 51 49 46 43 41 39 38 36 34
91 93 95 97 99 99 99 100 102 103 102 104 107 110 112 113 111 109 106 97 91 88 87 82 78 76 73 69 65 62 59 56 54 51 47 45 43 40 38 37 35 33 32
101 101 104 107 106 104 104 104 105 106 107 109 111 113 113 112 110 106 98 92 88 84 81 78 75 72 68 65 61 57 53 51 50 47 44 42 40 38 35 34 33 32 30
113 113 113 113 113 111 109 109 109 110 112 113 113 112 110 108 103 94 89 85 82 79 77 74 72 68 63 59 56 53 49 46 46 45 40 39 37 34 32 31 31 30 28
119 116 117 118 119 115 112 112 113 113 114 113 111 109 107 100 92 86 83 78 76 73 72 70 68 63 59 55 51 49 46 44 42 41 37 37 34 31 30 30 30 28 27
121 122 121 123 120 116 114 114 115 115 113 111 108 104 97 90 85 81 77 74 72 69 68 66 61 58 55 51 48 44 43 41 41 38 35 35 32 29 28 29 29 27 26
123 122 121 118 116 115 115 114 114 112 110 105 99 94 89 84 80 76 73 70 68 65 63 61 57 54 51 49 45 42 40 38 38 36 34 33 30 28 27 28 27 26 25
120 118 117 117 116 115 114 114 111 107 101 97 93 88 83 79 76 73 70 67 64 61 58 56 54 51 48 45 43 40 38 36 35 33 32 30 28 26 26 26 26 25 24
118 117 114 115 114 114 113 109 103 100 96 92 87 83 80 76 73 69 66 63 60 57 55 54 51 47 45 42 40 38 36 34 33 31 30 28 27 25 25 25 25 24 23

GFSGL_250_spd_051.txt.gz
Wind_Speed
42 44 46 48 49 49 49 48 51 55 60 63 62 62 64 68 72 75 80 81 86 90 91 95 97 100 103 106 109 110 111 114 115 113 116 118 118 119 117 116 117 110 103
45 48 49 45 48 48 51 53 54 58 60 62 63 65 67 72 77 82 84 88 89 93 92 95 100 103 104 107 109 113 115 115 115 114 116 120 120 122 121 116 113 109 103
47 48 47 46 44 47 50 53 56 58 61 63 65 69 73 76 79 83 88 90 90 94 96 99 102 104 106 109 113 114 115 114 115 116 117 119 121 124 119 115 107 104 99
44 43 44 44 47 49 53 55 57 60 64 67 69 71 76 79 83 86 87 90 94 96 98 100 101 104 107 111 115 116 114 113 116 118 120 122 124 122 116 109 105 100 90
44 43 42 45 45 50 54 57 60 64 66 70 73 76 79 82 84 86 89 92 95 98 99 98 102 106 110 114 117 115 114 115 118 120 124 125 122 118 114 107 100 91 86
46 46 49 51 53 55 56 59 62 67 70 74 76 78 80 83 86 89 91 94 97 97 97 102 107 112 114 117 117 115 115 117 121 128 128 125 121 118 112 105 95 87 81
47 48 49 51 52 53 53 56 58 62 66 69 73 77 81 84 88 91 93 94 93 97 100 104 109 114 116 118 115 113 117 120 127 126 124 123 120 116 108 96 88 81 74
43 43 43 44 46 49 52 55 59 62 67 71 76 80 84 87 91 91 90 92 95 99 105 109 114 114 116 117 116 118 118 121 124 123 121 118 116 110 99 88 82 75 71
44 45 47 49 52 54 57 60 64 68 72 76 79 82 85 85 88 93 96 98 101 106 110 114 114 114 115 115 117 120 122 123 124 121 116 111 105 97 90 83 76 70 67
48 49 52 54 57 59 61 64 67 69 71 73 76 83 89 92 94 97 101 104 106 109 109 109 112 114 114 115 120 125 123 120 120 117 111 102 96 89 83 77 73 68 65
52 53 55 56 58 61 60 60 65 70 76 78 84 90 94 96 97 99 105 108 106 105 106 108 110 111 114 117 121 120 118 117 115 110 101 95 88 77 78 73 69 64 62
55 56 55 53 55 59 64 68 73 79 78 87 89 94 95 97 98 99 102 104 106 107 108 108 109 112 116 119 119 117 117 112 106 98 92 87 81 77 71 67 66 65 60
50 51 54 60 62 66 71 75 76 80 85 86 88 88 89 92 96 99 101 103 105 108 109 110 113 116 117 115 116 116 112 105 97 91 85 81 77 72 68 63 61 59 57
57 61 62 66 70 73 74 75 78 84 86 90 94 94 93 95 97 98 99 101 104 107 108 111 114 114 115 115 113 108 101 96 90 85 81 77 73 67 65 61 59 55 52
64 66 68 72 74 74 75 78 84 91 95 98 96 96 99 102 105 103 102 103 105 108 108 109 111 110 110 109 104 97 92 89 84 80 77 73 69 64 61 57 55 51 49
65 66 69 73 74 77 81 87 95 98 99 99 104 107 107 107 108 105 106 108 109 110 110 108 107 107 103 98 94 90 86 82 80 75 72 69 65 60 57 53 51 48 46
72 72 77 77 79 88 92 97 100 106 110 112 111 110 110 108 106 107 109 109 110 110 109 107 102 96 93 92 88 84 80 77 74 70 68 63 58 55 53 50 48 45 43
79 81 82 84 87 94 102 107 109 112 111 110 110 112 110 110 112 113 111 111 112 111 106 99 94 91 89 87 82 79 75 71 69 65 61 57 54 51 50 47 45 43 40
86 84 90 93 101 106 111 115 112 114 118 117 115 112 112 114 113 112 112 111 108 103 97 92 89 87 84 81 78 73 68 66 62 59 56 53 51 48 46 44 42 40 37
89 96 100 105 110 113 117 114 118 123 119 115 113 115 116 115 115 112 111 107 100 94 89 85 84 83 80 77 73 68 63 59 57 54 52 50 48 45 43 40 38 36 34
96 104 109 114 119 119 120 121 122 120 119 118 117 116 117 116 115 112 107 100 94 88 84 82 80 78 75 71 68 63 57 55 53 50 49 47 46 42 40 37 35 34 33
105 110 114 118 116 117 121 124 129 124 121 120 119 118 118 116 113 108 101 94 88 84 80 78 76 73 69 65 62 58 55 52 50 47 47 46 44 40 38 34 33 32 31
112 117 119 117 122 125 126 126 124 123 121 119 119 119 117 113 105 100 94 90 86 80 77 74 71 68 63 60 57 55 52 49 47 45 44 44 41 38 35 31 31 31 29
117 115 116 122 126 124 128 133 125 122 121 119 119 115 109 104 99 95 91 86 82 78 73 69 65 63 60 57 54 51 49 46 43 43 43 41 38 36 33 30 30 29 28
117 122 128 127 131 132 132 125 123 121 119 117 113 107 102 98 95 91 85 82 77 73 68 64 62 61 57 53 50 47 45 43 42 41 41 38 35 33 30 29 29 28 26
126 126 128 130 130 128 125 124 122 119 115 110 104 100 96 92 88 85 80 75 71 68 65 62 60 57 53 49 46 43 42 41 40 39 38 35 32 31 28 27 28 27 25

GFSGL_250_spd_054.txt.gz
Wind_Speed
27 35 37 41 48 49 54 60 60 64 60 58 59 60 64 69 73 78 78 78 81 84 88 90 93 96 98 100 103 104 107 109 108 108 113 116 119 121 118 114 111 110 114
29 34 45 48 50 50 48 53 58 56 59 59 61 63 67 71 75 77 77 80 84 86 89 93 96 98 100 102 106 107 108 110 112 111 116 121 122 122 121 115 115 118 113
31 41 47 52 49 49 50 54 57 54 56 59 60 61 64 67 70 74 80 82 86 89 92 94 95 98 101 104 105 106 110 114 117 120 122 121 121 122 120 117 116 118 114
40 45 53 54 53 50 51 52 55 56 56 55 58 62 65 68 72 75 78 80 83 85 88 93 97 100 101 102 106 111 115 117 122 123 120 119 121 121 121 120 118 115 110
36 39 42 45 46 49 52 54 55 58 60 63 63 64 64 65 66 67 71 75 80 85 90 93 97 100 105 110 113 115 119 122 122 122 120 121 119 121 124 123 118 110 104
38 43 45 47 49 51 54 57 58 59 58 57 56 57 59 62 65 69 74 80 83 85 91 96 100 104 107 109 112 114 116 117 116 121 122 123 123 125 126 123 117 109 99
44 44 47 47 48 47 46 47 48 50 52 55 58 61 63 66 68 71 74 80 83 92 96 100 103 104 104 106 107 107 108 112 115 118 120 122 125 126 125 119 110 102 92
44 45 45 45 46 47 49 51 54 56 58 60 62 64 64 66 69 76 80 84 89 92 92 93 95 96 99 101 102 104 106 109 114 118 121 121 122 119 117 111 104 93 87
47 47 48 49 51 53 56 57 59 60 60 60 62 64 66 68 74 78 82 83 89 93 93 96 97 97 99 100 101 104 107 111 114 117 120 121 119 112 107 102 95 89 80
49 50 51 53 54 56 58 59 60 57 58 61 65 68 73 72 74 83 87 90 92 95 95 97 98 100 100 102 105 107 109 111 114 116 117 116 111 105 98 92 87 81 73
49 51 53 54 56 57 56 56 57 59 65 70 73 75 74 73 78 86 94 96 96 96 94 96 99 100 101 105 110 112 113 113 114 114 112 109 102 95 90 86 81 78 71
47 51 52 52 54 53 57 61 64 70 71 73 76 74 76 78 83 97 98 100 99 96 97 98 98 100 103 107 110 112 113 114 112 109 105 101 96 92 85 80 76 74 71
53 56 59 62 63 64 67 70 70 71 71 73 76 80 84 89 92 101 101 101 99 102 101 101 102 104 107 111 113 113 111 109 106 102 99 96 91 86 81 77 71 66 66
66 64 63 64 65 65 69 70 74 71 74 81 82 82 88 94 100 99 101 104 107 108 105 106 107 110 114 115 113 110 109 106 101 97 94 89 84 80 77 72 68 63 59
67 68 70 70 70 71 74 74 73 78 83 84 83 88 95 99 99 105 109 107 115 111 110 110 111 114 114 112 108 105 102 98 95 90 86 83 79 75 71 68 62 58 55
72 74 74 74 74 75 78 81 81 82 83 84 89 95 102 102 104 109 112 118 120 117 114 114 114 114 109 104 99 96 94 92 89 85 81 79 75 71 66 62 57 55 52
78 77 81 80 78 85 85 80 81 85 86 91 100 102 101 108 115 120 121 124 126 118 119 118 115 109 103 98 93 89 89 88 84 81 78 74 70 64 60 56 53 52 49
83 85 84 86 89 88 87 88 86 88 92 102 110 111 118 124 123 125 128 127 123 123 120 116 109 104 100 94 90 87 84 83 80 77 73 68 63 59 56 52 50 49 45
88 89 92 94 94 95 100 94 92 96 101 110 114 117 120 125 131 132 127 127 124 121 117 113 107 102 96 90 86 83 81 79 75 71 67 63 58 55 53 49 47 45 42
97 95 97 100 102 104 103 101 101 104 111 118 121 123 128 129 131 131 128 124 123 119 112 108 104 97 92 87 85 82 78 73 68 65 62 59 55 53 50 46 43 42 39
99 102 104 107 108 104 104 107 109 114 119 124 126 128 132 131 131 130 127 125 117 113 108 102 97 93 89 84 80 77 73 69 64 61 58 57 53 50 47 43 40 39 37
104 107 109 108 106 105 107 116 119 119 123 126 128 131 132 132 129 126 123 118 114 108 101 96 92 89 85 80 76 73 69 65 61 57 55 53 49 46 43 40 38 36 35
111 110 113 110 107 114 119 119 122 124 124 127 132 132 129 128 127 124 118 111 105 101 97 91 87 85 82 77 71 69 66 61 57 53 50 48 45 43 41 38 36 34 33
113 113 112 114 118 119 119 122 124 124 127 130 132 129 130 125 120 113 108 104 101 96 91 86 84 80 76 73 68 63 59 55 52 49 47 44 42 40 38 36 34 32 31
114 117 118 116 117 121 120 122 125 127 128 128 128 126 121 117 110 106 102 99 94 90 86 82 78 74 69 66 62 57 54 50 48 46 44 42 40 37 35 33 31 30 30
117 119 118 118 120 120 121 124 126 127 126 126 124 118 113 108 103 100 97 93 89 85 80 75 71 67 64 61 57 54 50 47 44 43 41 39 37 34 32 31 29 29 28

GFSGL_250_spd_057.txt.gz
Wind_Speed
31 30 27 30 35 41 45 44 48 49 51 52 58 64 67 70 73 72 73 75 77 79 82 86 87 87 90 94 96 96 97 101 102 103 109 115 118 123 123 119 115 111 110
28 29 31 29 39 31 47 50 57 60 53 56 62 67 71 74 78 78 74 76 75 76 78 81 84 86 86 87 91 96 98 102 106 108 112 112 110 111 113 114 114 113 111
12 35 40 43 44 47 53 59 57 54 55 59 67 71 74 75 73 72 72 73 75 76 76 77 77 79 83 87 92 97 102 104 104 103 102 106 108 108 108 109 113 115 114
34 46 47 48 52 56 59 61 64 69 73 74 75 73 69 71 71 72 73 73 71 71 72 75 77 80 84 89 94 99 102 105 108 108 109 105 104 105 108 111 113 115 115
41 44 47 50 51 58 62 65 70 73 72 68 70 70 69 68 67 66 66 68 70 72 75 76 79 84 87 91 95 103 105 106 105 105 104 102 102 107 111 113 117 118 116
42 46 48 51 54 55 60 64 65 67 70 68 65 63 61 62 64 66 68 70 72 75 74 77 81 84 89 94 96 99 100 98 98 102 100 103 103 109 115 120 120 120 115
36 41 43 48 50 51 53 57 59 59 59 59 60 61 63 65 67 70 71 73 74 76 79 79 82 89 91 93 95 98 100 100 100 101 101 104 108 114 120 120 119 116 110
42 45 44 44 44 48 49 51 54 56 57 59 61 63 65 68 70 71 71 74 77 78 77 80 84 88 91 94 95 101 101 100 99 104 108 110 115 119 120 117 114 110 101
30 35 39 44 47 49 51 54 56 58 60 62 63 65 67 69 70 71 76 76 72 75 80 83 88 90 94 99 103 105 100 100 101 107 112 117 121 118 117 115 109 101 95
38 35 32 34 36 38 42 47 51 55 59 61 64 64 68 72 76 76 76 76 79 83 84 88 90 94 101 109 111 105 105 107 107 107 112 120 119 117 114 110 103 96 89
37 39 41 43 44 47 49 46 47 51 54 58 61 66 69 71 76 79 77 79 84 86 85 89 95 100 108 117 114 115 115 111 111 113 115 112 111 108 104 101 97 92 84
48 51 49 50 52 52 55 56 57 59 61 62 62 66 69 74 78 80 84 85 85 86 87 91 99 109 115 117 116 118 118 117 115 112 110 109 105 100 97 94 91 87 82
58 59 59 60 58 59 61 63 63 65 68 69 71 74 74 78 82 81 84 85 88 88 92 98 107 112 116 120 121 121 120 117 116 112 108 103 99 95 92 88 83 80 76
62 64 66 66 66 66 68 69 69 71 73 77 81 83 82 83 87 90 90 90 91 93 99 105 111 117 121 122 123 124 121 119 115 108 102 97 94 90 88 83 80 73 69
66 70 72 72 74 74 73 75 76 76 79 82 85 89 90 90 93 92 92 92 94 101 110 112 117 123 125 126 125 122 121 117 110 105 99 94 91 86 83 78 72 67 63
71 76 76 78 78 79 79 82 83 85 86 88 93 94 94 97 97 96 100 100 104 111 115 118 122 124 126 124 124 121 116 110 103 99 94 89 86 82 76 71 66 62 58
76 79 82 83 82 85 86 88 92 90 93 96 98 99 101 105 103 101 101 107 112 116 121 123 126 127 125 124 121 117 110 104 97 92 87 85 80 75 70 65 63 59 55
81 84 88 86 88 88 90 94 98 101 102 104 106 106 108 110 108 105 107 113 119 122 124 127 127 126 125 122 116 110 103 97 94 90 84 80 75 70 65 62 59 55 52
85 89 88 93 93 95 99 101 104 106 108 109 109 107 108 110 112 110 114 119 122 126 128 130 128 127 124 116 109 101 97 94 90 86 81 75 71 66 61 58 55 51 49
88 90 93 96 102 103 105 107 108 111 114 113 112 112 113 113 114 117 122 125 127 128 128 125 126 122 115 109 103 98 93 89 86 82 76 71 67 62 57 54 51 48 45
94 97 101 104 106 108 108 109 114 118 114 115 116 115 115 118 121 123 125 126 127 127 126 123 118 113 109 103 97 93 89 85 80 76 70 65 61 58 51 49 47 44 41
102 103 105 107 109 110 112 114 117 115 116 116 116 117 119 122 125 128 127 126 127 126 122 117 113 107 100 94 89 88 85 79 73 69 65 59 56 53 49 46 44 40 38
104 107 109 112 113 113 115 117 115 115 116 117 119 121 124 124 124 124 124 125 124 121 114 109 104 99 96 91 86 80 76 73 68 64 61 55 52 49 46 43 41 38 36
110 113 115 115 113 116 117 117 118 119 120 121 122 123 123 123 123 124 123 120 116 111 106 101 97 92 89 85 80 75 69 66 62 59 57 52 48 45 43 40 37 36 35
113 116 113 115 119 119 118 117 118 120 121 122 122 122 124 123 121 118 115 111 106 103 99 94 91 88 84 78 72 67 63 60 57 55 51 48 45 41 39 36 35 33 32
110 115 118 119 118 118 118 120 121 121 121 120 120 121 119 117 113 109 106 101 99 96 93 88 84 80 76 71 66 62 59 56 54 50 47 44 40 38 36 33 32 31 30

GFSGL_250_spd_060.txt.gz
Wind_Speed
21 21 21 26 29 31 32 22 32 39 49 52 54 53 53 54 62 68 71 75 78 81 85 86 88 85 85 85 87 84 81 84 86 91 93 101 102 106 109 116 117 115 112
18 21 25 31 39 36 31 28 25 32 63 61 52 55 60 62 62 64 68 74 82 88 88 87 86 86 88 81 79 83 84 87 88 92 96 99 100 105 110 107 106 107 106
25 28 31 34 46 43 42 37 45 58 61 63 66 68 63 65 69 74 82 88 85 83 84 86 83 77 77 81 83 86 86 88 92 95 93 92 98 102 106 108 106 106 106
32 33 37 45 48 43 49 56 55 60 66 72 74 76 73 75 78 85 87 84 84 87 80 76 77 79 81 83 83 84 89 92 91 92 94 93 99 105 107 108 104 106 107
36 41 45 50 48 49 50 60 64 67 72 72 73 75 80 86 85 83 84 84 79 77 77 78 79 81 82 82 86 92 91 90 94 96 97 96 101 106 110 109 110 111 112
35 48 50 55 57 63 59 60 61 63 67 70 70 73 74 76 80 78 74 75 77 78 79 80 80 81 81 88 88 85 91 92 92 93 97 98 105 110 112 110 110 113 115
37 41 45 47 50 54 59 59 59 62 65 69 71 71 71 71 72 73 73 75 74 74 76 79 82 85 86 84 86 89 94 97 95 94 98 104 106 114 112 110 108 112 112
27 40 44 46 54 60 63 62 58 60 59 60 62 63 66 67 67 68 69 68 69 73 78 79 80 82 83 86 89 93 93 101 96 98 105 109 116 116 116 113 114 115 113
28 30 34 37 39 41 43 43 43 43 44 47 46 49 50 53 56 57 60 63 63 66 68 68 71 76 79 84 86 87 92 94 95 102 107 114 118 119 120 118 120 114 111
36 37 37 33 33 36 39 42 40 41 44 46 50 50 53 57 59 58 62 68 68 73 73 75 79 81 83 84 86 86 86 90 97 104 111 118 121 121 121 122 117 110 107
40 41 43 43 45 45 44 44 46 46 48 50 54 56 58 62 65 68 72 73 75 79 83 84 85 85 89 92 91 88 89 92 100 105 113 120 119 120 117 116 112 108 101
46 46 47 49 51 53 53 53 54 53 55 60 62 63 64 68 69 72 77 79 82 84 89 90 90 91 94 95 95 92 97 104 106 112 117 117 117 114 115 112 107 102 97
52 53 54 54 55 56 58 60 61 61 63 65 66 67 69 72 74 77 80 83 86 89 91 91 93 97 98 98 99 99 104 110 115 118 119 117 111 111 112 104 101 97 93
61 61 61 61 63 62 63 66 68 69 71 71 73 75 77 81 82 85 88 88 93 96 94 94 97 98 98 100 101 106 113 117 120 119 119 115 112 109 105 98 94 93 86
65 67 67 68 69 69 69 73 74 76 78 77 81 82 84 88 91 93 95 97 101 101 99 98 99 98 100 103 109 114 119 121 121 123 118 115 110 105 100 94 90 86 80
72 72 71 72 73 76 76 77 78 80 81 85 87 87 90 93 98 101 103 106 108 106 105 103 103 104 107 111 114 117 119 121 123 121 118 112 103 100 95 92 86 81 74
75 76 77 78 79 81 82 83 83 85 87 91 91 92 96 98 103 105 107 109 111 110 111 109 109 111 113 115 118 120 122 123 121 118 111 105 99 95 91 86 80 74 69
80 81 83 83 83 84 85 87 88 89 93 97 98 99 102 106 109 110 110 116 115 115 112 112 114 115 116 118 120 122 123 121 118 111 104 100 93 89 84 77 74 69 65
86 84 87 87 88 89 90 91 91 94 99 102 103 105 108 113 116 115 117 118 115 113 115 117 118 118 121 121 122 122 120 115 108 104 98 94 88 82 77 74 68 65 60
90 90 90 90 90 91 90 93 97 102 106 107 107 111 113 118 118 120 123 118 115 116 118 119 119 121 120 123 121 118 112 106 102 96 92 88 82 77 72 69 64 60 55
93 93 94 94 93 94 98 102 105 108 109 112 114 115 120 116 121 122 117 116 118 119 119 120 122 121 122 118 113 110 103 99 93 90 85 81 75 71 68 63 58 56 52
95 95 93 96 100 103 107 109 111 112 114 115 118 121 119 121 120 117 117 117 118 120 121 122 120 118 115 110 106 101 97 93 88 82 80 75 69 64 63 59 55 50 48
96 99 102 104 106 109 113 113 114 115 117 121 120 120 122 120 119 120 118 119 121 122 121 118 115 112 108 103 97 93 89 85 82 77 74 69 63 60 58 55 51 46 44
103 104 106 110 115 115 114 116 117 120 119 116 120 119 121 119 118 118 120 119 119 118 116 112 107 102 98 94 91 87 82 78 75 71 67 62 58 55 52 50 46 43 41
109 111 112 112 112 114 115 119 118 115 118 119 125 121 120 118 118 118 117 116 114 110 106 102 97 96 92 88 84 80 76 71 67 64 59 56 54 51 48 45 42 40 38
110 111 111 113 116 116 115 117 119 117 121 121 119 117 117 118 116 114 111 107 104 101 97 93 89 88 85 81 77 72 69 65 61 58 55 52 50 47 44 40 39 37 36

GFSGL_250_spd_063.txt.gz
Wind_Speed
27 24 19 16 16 18 24 26 33 34 28 34 40 44 49 46 49 56 57 53 59 67 71 72 72 78 85 92 97 92 89 84 83 82 86 87 87 93 97 97 97 100 106
27 22 22 22 17 28 41 38 40 36 35 29 46 51 54 56 62 64 69 69 73 79 82 82 85 90 94 97 90 83 84 84 84 85 81 85 90 92 95 98 102 102 105
31 28 25 21 15 35 45 44 45 43 43 38 44 51 60 65 69 78 83 85 82 83 86 86 90 93 89 83 83 84 83 85 83 82 84 89 91 95 97 100 101 103 105
31 36 35 33 39 42 45 48 51 55 60 58 52 61 68 71 77 82 86 85 84 86 88 91 89 80 80 82 84 84 82 83 86 88 87 89 91 95 96 96 97 103 102
26 33 39 43 46 48 51 48 53 54 61 56 61 66 70 73 77 79 82 85 87 85 82 86 84 83 81 78 75 75 76 81 82 81 82 85 89 91 96 99 100 99 97
22 26 33 43 46 49 52 55 55 58 60 63 66 69 67 76 79 79 80 84 86 82 79 78 76 70 66 66 69 71 72 74 77 80 84 88 93 98 98 98 100 98 94
24 26 29 36 45 54 56 56 60 63 65 68 73 73 74 77 74 73 73 69 62 60 59 60 62 62 65 68 73 75 77 79 82 84 85 90 94 94 95 98 101 99 99
25 26 29 34 41 47 50 54 58 62 64 65 64 63 57 55 55 60 57 55 54 54 57 59 62 65 69 72 76 81 84 85 87 89 90 94 95 97 100 102 100 95 95
31 30 31 31 32 37 41 44 49 54 55 53 53 54 55 54 54 54 56 57 58 59 61 65 66 69 73 76 81 85 88 90 92 94 94 97 99 104 105 102 100 100 99
39 41 41 38 38 39 40 41 43 48 52 54 56 57 58 58 57 59 62 60 62 65 66 67 71 76 78 80 84 88 91 92 94 94 97 100 104 105 106 107 107 106 111
47 48 46 48 48 48 47 47 48 51 53 54 56 58 60 62 63 65 67 65 68 70 71 71 75 79 83 86 89 91 96 98 98 96 99 102 102 103 105 108 110 115 115
53 53 53 49 51 54 56 56 57 59 61 61 61 63 65 68 70 72 73 73 75 78 80 80 82 85 89 94 95 99 103 102 100 101 103 104 102 103 106 111 116 121 119
57 56 57 59 60 61 61 62 62 63 65 67 69 70 72 75 75 75 78 79 82 84 85 86 90 93 97 101 103 106 110 106 106 107 107 105 106 109 112 115 119 117 114
60 60 61 61 63 64 65 67 67 69 71 71 73 75 76 79 80 81 83 84 89 92 91 93 97 100 102 106 108 112 114 111 110 110 108 107 111 112 116 117 113 110 106
65 65 65 67 68 69 70 72 73 75 74 75 78 78 81 83 86 87 88 90 95 97 97 98 102 103 108 110 114 117 115 114 112 112 110 112 112 115 117 114 109 103 98
71 69 70 71 71 73 76 78 78 79 79 81 83 85 86 87 90 90 92 96 99 101 100 103 105 107 114 115 118 117 116 116 115 114 114 114 116 116 113 111 105 98 94
72 73 74 77 78 80 81 81 80 81 82 85 88 90 90 93 94 93 98 101 104 104 103 107 110 117 117 120 121 120 120 117 116 115 115 117 116 112 109 104 99 94 88
78 77 79 82 82 82 84 84 84 86 89 93 94 95 96 97 97 100 103 105 107 108 110 114 120 119 121 123 124 120 118 118 115 116 118 114 110 107 101 97 92 87 81
80 80 83 86 88 88 87 89 90 93 98 98 100 99 99 99 102 104 108 111 112 115 118 122 122 122 124 125 121 116 117 115 116 117 113 109 105 98 95 91 86 82 77
83 85 87 90 91 92 92 94 96 98 98 103 100 100 102 104 108 113 115 116 118 122 124 124 125 126 125 120 116 116 116 117 115 111 108 102 97 92 89 86 81 77 71
88 91 91 91 93 95 97 98 99 102 101 103 103 105 107 113 117 119 119 120 124 123 125 127 125 123 118 117 116 115 116 114 108 104 100 96 91 85 83 78 75 69 66
89 91 92 95 98 99 96 99 99 102 104 106 108 113 117 118 121 118 123 124 124 126 125 123 120 117 116 115 114 112 109 105 101 96 93 89 83 80 76 71 68 64 59
96 99 102 102 99 99 100 104 107 106 109 114 115 117 118 117 121 123 123 123 122 121 119 116 114 115 114 112 109 105 102 98 94 90 86 82 76 72 69 66 61 59 56
101 101 101 103 105 105 106 107 110 112 113 114 114 117 121 123 122 121 121 120 117 115 113 113 112 110 108 104 100 95 91 88 85 82 79 75 69 65 63 59 56 54 50
102 102 103 104 105 107 109 110 110 110 112 116 118 119 118 120 120 118 116 114 112 111 110 108 105 102 99 96 92 88 83 80 76 73 70 66 62 60 57 54 52 50 46
100 103 105 105 106 107 107 109 112 114 117 116 117 118 118 116 114 112 110 108 108 107 103 99 97 93 91 87 83 80 77 72 69 66 63 59 57 55 52 49 48 45 41

GFSGL_250_spd_069.txt.gz
Wind_Speed
21 23 27 30 31 36 39 40 42 44 44 44 43 43 44 45 41 39 42 44 47 48 49 51 48 51 57 61 62 67 71 76 79 74 81 83 79 71 73 73 76 77 80
24 21 26 32 35 36 39 42 44 46 48 50 51 52 53 50 44 42 46 44 49 49 49 51 62 61 62 62 63 70 75 77 79 73 73 70 70 69 73 76 75 78 76
23 25 22 27 37 40 41 41 43 44 45 48 52 54 55 49 47 44 43 43 46 51 53 56 59 63 61 66 69 73 78 70 73 71 71 69 70 75 75 75 81 82 83
25 24 25 24 21 32 43 44 44 45 46 50 51 54 56 56 54 50 49 49 51 52 55 58 59 56 61 70 75 67 72 74 70 66 70 66 68 72 74 78 82 82 83
35 29 26 24 25 25 25 35 47 51 50 52 51 53 50 49 51 52 56 58 62 62 61 56 64 64 64 64 65 65 69 70 72 70 71 74 74 73 75 78 81 84 86
39 37 32 26 24 24 27 25 22 26 29 35 38 42 44 46 49 54 59 58 48 45 48 51 55 59 61 63 66 69 71 72 73 73 72 73 77 79 81 81 83 85 87
41 41 39 34 30 28 28 30 30 29 29 30 33 36 38 38 40 42 45 45 43 45 50 52 54 57 61 64 67 69 71 73 74 75 77 78 83 84 85 88 89 89 93
45 44 44 43 41 38 35 35 35 34 36 36 38 40 40 41 43 45 46 47 49 53 55 57 60 64 67 70 72 72 73 75 77 79 82 84 86 89 89 92 93 96 99
49 48 49 45 46 47 45 43 43 43 42 43 45 45 46 46 49 51 54 55 58 61 63 64 66 69 70 73 75 77 78 79 82 84 87 89 92 93 94 97 98 100 102
57 52 52 52 51 54 52 49 49 49 50 53 52 52 53 55 57 58 60 62 65 67 68 70 74 73 74 77 80 82 85 86 87 90 91 94 97 99 100 102 103 104 107
62 58 54 57 56 62 64 57 53 57 55 56 59 59 59 61 62 63 65 67 69 71 73 75 78 77 79 82 85 88 89 91 92 95 96 100 102 104 105 106 107 109 112
63 61 58 61 65 65 63 61 61 60 59 62 65 67 67 67 68 70 73 75 77 77 79 80 81 84 87 89 91 92 91 93 95 100 102 105 106 107 109 108 110 113 119
66 65 65 64 66 67 66 67 66 63 65 69 71 73 73 73 76 78 80 81 82 84 87 86 88 90 92 93 93 94 95 97 101 104 104 107 110 110 110 112 114 120 124
67 66 67 69 71 74 74 76 72 70 71 74 76 79 81 83 83 83 83 87 88 89 89 91 93 96 97 97 97 98 99 105 104 104 107 114 112 111 113 116 120 125 128
72 73 75 76 78 79 79 79 78 78 77 76 80 85 86 87 88 88 89 92 94 98 97 98 99 99 100 103 101 103 106 105 105 112 113 113 113 116 118 123 127 130 132
78 81 80 81 82 81 80 81 83 84 83 83 84 88 91 91 94 95 97 100 103 102 100 103 104 103 105 106 106 107 108 109 114 113 114 116 119 121 125 130 133 134 133
79 83 85 85 84 87 86 87 86 88 89 91 92 93 95 96 100 102 103 102 103 104 104 106 104 107 110 111 110 113 112 119 116 116 120 123 124 127 131 135 135 131 127
84 89 87 92 93 93 94 95 94 94 97 97 98 99 99 101 104 103 104 105 104 103 106 109 111 115 115 113 114 115 123 119 121 124 125 127 130 132 134 132 128 125 122
87 91 95 94 96 99 98 99 98 98 99 100 100 102 103 104 106 105 102 104 106 108 111 114 118 115 115 120 120 124 122 125 127 127 129 132 133 131 129 125 122 117 111
86 93 97 95 97 102 106 103 100 101 102 103 105 107 108 106 105 106 107 111 113 117 117 113 114 114 118 121 124 126 126 128 129 129 132 130 128 126 121 117 110 104 99
84 88 90 96 95 97 99 100 103 104 105 104 105 105 107 108 108 108 111 110 109 116 115 117 118 121 123 123 127 125 129 131 131 131 127 126 121 118 111 104 98 95 92
86 90 92 94 98 100 102 105 104 104 104 106 107 110 110 110 111 110 110 111 114 116 119 119 119 121 125 125 127 129 130 130 127 124 120 117 111 103 97 94 90 87 83
82 84 89 93 96 101 104 106 107 108 108 107 108 108 109 111 112 113 114 116 117 117 116 118 121 122 124 125 125 125 123 121 119 114 110 103 97 92 88 86 83 79 74
87 91 92 95 98 102 106 108 112 112 112 113 113 112 111 111 112 114 114 114 117 118 119 120 121 121 121 119 117 116 113 110 105 101 96 92 88 85 81 78 74 70 67
92 94 96 100 104 107 108 111 112 111 111 112 110 108 110 111 111 112 114 114 114 117 118 116 115 114 113 113 109 106 102 97 94 89 86 82 79 76 73 70 66 63 59
91 95 99 102 103 105 106 107 108 105 103 105 107 108 107 110 110 110 113 114 111 110 110 109 109 108 105 102 99 95 91 87 83 79 77 74 71 69 66 62 59 56 53

GFSGL_250_spd_072.txt.gz
Wind_Speed
26 25 21 18 24 31 37 40 40 41 43 44 46 48 49 50 51 53 56 57 59 58 56 50 49 47 44 44 51 52 54 55 56 60 62 64 71 74 82 72 72 74 75
26 27 25 22 18 23 33 37 36 41 45 46 47 45 45 47 49 50 52 52 54 53 52 44 43 46 49 54 54 57 58 59 57 65 65 69 82 83 73 72 76 77 79
27 28 27 26 24 20 20 28 39 41 42 42 44 46 47 47 45 43 41 48 53 46 48 45 47 46 48 58 61 61 60 64 65 70 76 78 72 70 72 74 77 77 78
26 30 31 30 28 25 21 18 23 32 39 43 44 46 46 46 49 51 51 54 51 50 48 46 48 48 48 56 59 59 60 68 70 72 69 69 70 70 74 79 81 81 86
29 30 33 35 33 30 28 25 22 23 28 32 37 43 46 49 52 55 57 51 45 46 47 52 60 57 59 61 65 64 69 68 64 67 70 73 75 77 79 82 83 86 87
33 32 33 36 37 36 34 32 32 27 25 26 28 32 40 42 43 44 44 44 45 50 53 55 56 55 54 56 59 60 63 65 68 72 75 75 77 80 84 87 89 90 93
44 38 38 42 41 41 38 40 39 37 34 33 31 32 34 35 36 35 38 39 40 41 42 45 48 52 55 59 62 66 68 72 75 75 78 79 83 86 89 90 92 95 98
48 48 45 46 46 45 47 43 44 43 42 41 39 40 40 41 42 44 45 45 47 49 51 54 57 60 64 66 69 71 73 76 78 81 83 85 88 90 92 94 96 95 97
54 52 52 49 50 52 53 53 49 48 50 49 48 47 48 46 49 51 53 52 53 55 57 61 65 67 69 71 74 75 79 81 84 87 89 91 93 95 97 97 100 99 101
59 55 55 55 54 56 55 58 58 58 55 55 59 59 56 53 54 56 56 58 60 62 64 66 68 70 72 76 80 84 87 89 92 93 92 94 96 99 102 104 103 102 108
61 61 61 60 60 58 58 61 62 64 63 63 64 62 61 61 60 63 66 67 68 69 70 72 74 78 80 85 87 89 91 94 94 95 98 102 105 105 107 107 107 107 106
69 68 68 63 61 61 58 58 63 66 65 66 67 66 67 66 66 68 70 70 72 74 77 79 83 88 90 93 94 94 95 98 100 105 110 108 109 110 109 110 112 112 110
70 73 69 66 61 62 65 64 66 69 70 70 70 70 72 72 73 71 73 76 81 83 84 87 92 94 95 98 97 98 101 104 108 112 111 112 112 113 112 116 115 114 114
74 71 70 66 65 62 66 66 68 71 74 73 74 76 78 81 81 80 80 83 84 86 89 90 93 98 100 102 105 108 110 114 113 113 114 113 111 113 117 119 117 118 116
80 75 72 72 70 74 72 71 74 76 79 80 80 81 82 83 84 85 86 87 89 91 92 94 97 100 103 107 109 112 115 116 114 115 114 113 118 118 118 118 119 121 123
79 75 77 77 78 77 79 79 81 84 85 84 86 86 87 88 91 91 90 91 93 94 98 101 103 106 109 111 114 114 115 117 116 114 116 120 123 125 124 121 122 124 128
82 83 82 82 84 84 83 84 87 93 92 92 93 93 95 94 96 97 99 101 102 104 106 106 109 111 115 116 119 121 122 119 118 119 122 126 127 125 125 122 125 129 129
89 89 89 87 87 88 89 92 92 99 100 102 104 106 104 102 103 104 106 108 109 110 113 114 116 117 117 118 117 117 119 122 122 123 125 123 124 122 122 125 127 128 129
87 89 91 93 92 96 97 98 98 102 105 108 112 114 110 110 109 111 112 112 114 116 118 118 117 120 120 122 121 122 126 126 125 125 123 121 121 122 124 125 126 127 126
88 88 92 94 95 95 100 100 102 107 110 114 117 117 114 115 115 115 115 115 115 114 116 118 120 121 123 124 123 125 126 124 121 119 119 120 122 125 124 123 123 123 122
86 88 93 95 98 99 100 100 98 98 99 107 111 112 114 114 113 112 111 113 114 115 117 117 117 119 120 121 121 118 118 120 118 119 122 123 121 120 121 120 119 114 109
84 85 86 87 88 91 93 90 93 99 103 105 111 115 116 117 119 117 115 115 116 118 119 119 119 120 117 114 113 115 117 119 119 120 119 117 118 117 115 113 106 101 97
76 81 85 86 91 91 96 99 103 106 107 113 118 119 120 118 116 117 118 118 119 119 120 119 117 113 112 113 115 115 115 116 116 114 115 115 113 109 103 98 94 92 88
80 82 84 87 89 93 95 98 99 103 106 111 113 114 115 119 120 122 121 121 121 118 114 114 114 114 113 113 112 111 110 110 112 111 109 104 98 94 92 89 86 83 80
82 85 89 92 95 99 100 101 103 104 107 110 111 116 119 120 120 119 117 115 112 112 111 110 110 110 108 107 106 106 106 106 103 98 94 91 88 86 83 81 78 74 71
81 85 88 93 96 97 100 102 104 106 110 113 114 115 116 113 110 107 105 105 104 104 106 105 104 103 102 102 102 100 96 93 90 88 86 84 81 78 75 72 69 66 64

GFSGL_250_spd_075.txt.gz
Wind_Speed
20 22 19 20 19 17 14 21 33 36 34 34 37 43 47 47 44 43 45 46 46 50 52 49 49 53 50 54 51 49 53 54 53 54 54 56 56 55 57 63 65 69 71
20 21 18 21 23 22 19 17 17 29 39 42 42 45 48 49 47 49 48 46 44 45 44 47 45 50 51 51 50 52 49 51 54 59 57 63 64 66 60 67 72 68 71
23 22 20 19 20 25 25 23 21 20 24 33 40 43 43 45 46 46 45 45 47 46 48 50 51 53 53 54 53 52 51 51 53 53 58 63 70 70 72 67 72 73 75
28 28 22 24 23 23 27 28 26 25 23 23 30 39 43 44 45 48 48 48 47 49 53 54 55 55 58 55 54 53 54 58 59 60 61 64 67 66 70 73 75 79 80
41 33 32 26 28 29 25 29 30 28 28 29 29 28 30 38 46 49 49 51 50 53 55 56 57 57 54 52 50 55 59 64 64 61 62 66 69 72 75 78 81 83 85
44 40 37 38 35 34 34 32 36 37 33 31 34 33 34 33 34 35 37 41 45 52 49 46 48 46 47 49 51 55 57 58 62 65 69 73 75 77 80 82 86 89 92
50 49 47 43 41 39 39 35 37 41 40 40 39 40 39 38 39 39 40 40 41 43 43 44 47 48 50 52 55 57 60 63 66 68 71 74 78 81 84 88 90 91 94
52 53 53 50 48 46 47 45 39 41 45 47 45 46 45 46 47 47 44 42 48 50 51 52 54 54 52 55 57 61 63 67 71 74 77 79 84 89 90 92 94 96 99
54 58 61 58 53 56 58 50 51 47 50 52 53 52 52 52 53 53 54 55 52 51 54 54 57 58 59 63 67 69 71 73 75 79 84 88 91 93 97 98 102 101 102
59 61 63 65 66 66 68 62 58 53 54 58 58 56 60 61 60 60 61 61 59 60 63 61 61 65 66 68 70 73 76 78 81 85 89 90 97 100 104 105 103 103 108
66 68 67 70 74 75 76 69 61 62 61 61 63 64 62 61 62 63 65 65 65 67 69 70 71 70 71 74 76 79 83 87 90 94 96 98 100 102 104 107 107 110 115
75 78 80 81 78 76 74 70 69 64 63 62 67 69 69 67 66 67 69 68 68 69 71 72 78 79 80 81 82 87 91 95 96 98 101 102 104 108 111 110 113 116 120
85 85 83 80 79 78 76 74 72 68 64 66 69 71 69 69 70 70 71 73 75 77 78 80 81 84 85 86 88 89 92 94 97 100 103 105 109 111 113 113 118 122 122
88 87 86 84 83 82 81 78 75 71 70 70 68 72 72 72 74 77 77 80 81 80 82 84 85 86 88 90 93 97 98 100 104 107 110 110 111 113 115 123 126 127 128
98 98 96 95 95 92 88 85 81 78 77 77 74 77 81 82 83 87 86 87 88 89 92 93 93 95 95 98 101 103 105 107 108 111 113 117 120 122 123 128 128 129 130
95 97 97 95 93 90 89 88 83 81 80 83 84 84 86 88 89 92 94 96 95 98 101 100 102 103 106 107 110 112 115 116 115 117 121 124 126 125 127 128 130 128 127
93 98 99 100 100 99 93 90 86 84 85 86 86 88 90 92 96 98 98 103 103 105 110 108 112 113 113 116 119 120 119 119 121 122 122 124 126 126 130 126 128 128 130
86 91 92 90 90 90 89 87 88 89 89 91 94 93 97 99 101 103 102 103 102 102 104 104 110 114 117 120 122 125 121 122 124 119 120 122 122 124 126 125 126 127 121
82 90 79 71 82 85 84 87 91 96 98 98 98 99 100 103 107 108 104 108 113 115 114 120 124 126 126 125 125 126 124 124 125 123 126 124 125 125 127 127 122 121 122
87 89 77 73 77 82 78 72 73 80 88 91 95 97 99 102 107 111 115 117 119 120 124 123 122 123 120 124 126 127 129 130 132 133 127 128 127 124 121 120 121 120 118
83 84 80 84 88 82 80 77 80 88 94 97 97 101 102 101 104 109 110 115 120 119 120 118 118 123 129 130 131 132 135 130 127 129 130 125 120 124 119 115 114 113 112
76 80 82 87 93 89 86 88 93 99 103 106 109 109 110 111 110 111 114 114 112 115 120 121 124 129 132 137 140 138 135 129 127 125 123 121 117 115 114 112 110 107 105
71 75 81 86 87 91 93 96 102 105 108 107 103 107 109 109 109 109 113 117 120 121 124 127 133 136 138 139 138 135 130 125 123 123 116 113 112 110 107 105 102 100 96
71 75 79 84 88 91 93 93 94 99 101 103 102 105 108 109 111 114 116 121 127 130 135 136 134 135 133 130 128 124 122 119 115 113 110 108 106 104 100 97 94 91 88
70 73 76 82 87 91 95 97 98 97 98 100 102 104 108 111 112 114 116 121 122 124 125 126 126 125 123 120 119 114 111 109 107 105 103 102 98 95 92 89 86 82 79
71 73 75 78 82 88 90 92 94 96 99 102 105 108 111 114 113 113 113 115 117 117 114 111 109 109 108 107 106 105 104 102 100 97 94 92 89 87 84 81 78 75 73

GFSGL_250_spd_078.txt.gz
Wind_Speed
24 26 25 20 16 13 12 11 11 20 31 31 31 31 31 34 34 36 39 40 42 42 44 45 48 51 54 53 47 48 46 47 51 54 55 57 58 61 57 56 49 48 53
29 28 25 24 22 19 16 15 19 16 15 19 37 41 39 37 40 45 45 48 50 51 50 50 53 51 49 49 47 50 52 53 54 56 57 59 57 57 54 54 54 55 59
36 36 32 27 24 25 25 22 20 21 20 20 21 20 34 43 45 48 50 51 52 53 53 50 49 50 52 51 51 53 56 59 60 58 56 59 57 54 53 56 60 61 63
38 40 41 37 29 27 27 26 27 24 22 25 25 24 24 24 26 34 45 50 52 52 52 50 51 52 51 52 54 56 59 61 59 59 57 52 54 55 59 62 65 68 70
40 41 48 46 41 38 34 31 31 29 27 31 30 33 31 30 31 32 32 32 31 34 41 49 52 52 52 52 53 54 52 53 53 54 56 57 58 61 65 67 70 74 73
45 46 45 48 48 43 41 40 35 33 31 33 32 33 37 38 38 38 38 37 36 37 39 40 41 43 43 43 46 48 50 54 56 57 59 60 63 64 66 69 72 77 79
52 51 50 46 47 52 47 44 47 43 42 44 39 38 40 40 43 44 45 43 42 44 44 43 42 45 46 50 54 55 56 55 58 58 66 68 73 70 74 77 82 82 86
57 58 56 53 52 52 57 55 50 51 51 49 47 51 52 52 49 49 53 49 48 49 51 51 50 53 52 52 54 56 58 57 56 65 67 72 80 78 81 86 87 91 93
63 63 62 62 60 58 60 61 58 54 56 58 59 57 60 59 57 53 53 57 61 56 57 58 57 57 59 62 62 62 64 63 68 70 72 75 79 83 86 89 94 97 100
67 66 67 67 66 62 61 66 60 57 58 62 63 66 66 64 61 62 59 61 58 64 69 66 66 67 66 67 69 70 72 73 75 77 80 82 84 86 89 94 97 99 102
75 75 72 73 73 71 72 69 68 64 64 66 69 72 72 66 65 68 67 62 68 67 67 70 70 71 72 72 73 74 75 76 77 79 82 86 88 91 94 97 100 104 106
84 86 84 76 67 68 67 67 68 70 73 75 77 78 74 72 67 67 72 67 66 69 71 71 72 73 76 75 75 77 80 82 84 86 88 91 94 97 100 103 106 107 109
81 77 75 73 69 70 72 72 75 79 82 83 81 79 75 73 74 73 72 73 72 69 65 77 79 80 80 81 82 83 87 89 91 93 95 98 100 104 108 108 111 115 118
90 89 90 90 87 86 86 87 90 85 82 80 79 77 81 82 82 78 76 76 73 68 71 87 85 89 89 90 91 92 95 98 100 102 103 105 107 110 113 114 115 115 118
99 100 103 103 103 101 97 99 100 100 98 97 97 96 91 91 82 79 76 81 83 79 83 89 94 101 100 101 101 101 102 105 108 109 110 113 115 112 113 112 119 122 117
102 103 104 103 101 100 100 98 98 97 96 95 92 96 74 82 92 87 77 90 89 86 88 96 100 101 100 102 105 106 108 111 109 108 114 112 111 117 117 122 128 126 128
90 90 90 91 89 89 90 93 94 96 96 97 96 95 92 98 94 85 89 82 95 93 102 102 102 102 105 105 109 113 108 111 111 113 115 118 122 120 127 129 130 128 126
84 82 82 82 76 83 82 84 83 70 80 83 86 81 88 88 91 97 99 99 99 98 101 106 112 111 113 115 116 109 112 112 116 117 121 125 128 129 131 129 129 130 133
80 79 79 76 80 83 86 82 77 80 92 93 90 87 98 106 107 103 101 102 103 109 112 113 115 116 116 117 114 111 111 116 120 120 126 128 131 130 129 131 136 135 134
71 73 73 73 77 82 83 86 83 90 91 92 88 85 89 90 91 91 92 94 95 101 104 103 102 101 105 108 114 116 117 121 125 127 129 132 134 133 134 135 136 135 135
59 62 66 71 75 80 86 91 89 87 89 94 89 88 92 93 93 90 89 93 95 98 102 106 107 114 117 118 117 124 129 127 128 129 129 132 134 135 137 137 135 131 127
59 61 63 67 73 80 86 93 97 98 101 102 99 96 100 94 93 100 101 102 103 106 111 116 119 120 122 124 126 133 133 130 131 133 132 133 137 138 136 134 125 121 118
62 63 63 66 71 78 86 91 97 102 104 104 103 103 102 103 106 107 109 108 111 114 118 122 125 127 129 132 134 133 132 131 131 131 131 129 128 124 117 114 113 110 108
62 63 66 68 70 74 79 85 92 94 96 101 104 107 111 113 114 113 115 116 120 123 126 128 129 130 131 131 128 125 125 125 124 121 118 113 112 111 109 107 105 101 96
63 64 65 67 70 73 77 79 83 87 91 95 99 100 103 109 113 115 116 115 116 117 120 122 120 118 116 117 117 116 114 110 108 109 108 107 106 104 102 99 95 92 87
65 66 67 69 71 74 76 79 81 84 87 90 92 95 98 101 104 106 107 108 111 111 112 113 115 115 112 109 107 107 107 107 106 105 103 100 98 95 92 89 86 83 79

GFSGL_250_spd_081.txt.gz
Wind_Speed
31 32 31 28 24 23 18 14 12 11 13 14 21 29 34 37 38 39 44 48 50 51 48 43 44 44 45 46 46 47 48 49 50 49 49 52 53 56 58 61 62 60 60
33 32 35 37 37 28 28 28 24 22 16 15 18 19 21 36 42 40 39 39 43 47 47 44 47 48 50 51 53 54 53 53 51 50 52 55 55 58 61 63 61 59 55
42 39 34 36 37 34 31 33 34 33 31 26 25 21 20 24 26 32 46 51 51 50 49 49 52 55 57 58 57 56 56 57 56 57 56 57 59 60 57 55 52 53 57
45 45 44 40 37 40 40 42 39 38 38 36 32 32 31 31 26 30 31 31 30 33 38 43 50 56 58 59 58 57 57 58 58 56 56 54 51 53 55 57 59 60 60
47 49 50 47 43 41 42 42 43 43 44 41 37 34 37 36 39 34 29 33 35 34 34 35 38 40 42 42 43 43 42 44 46 48 49 51 53 56 59 64 64 62 65
54 51 51 52 51 49 46 42 43 44 45 43 42 41 38 41 44 41 41 36 35 40 42 44 45 46 48 47 44 45 45 47 49 51 54 55 57 59 64 62 65 68 73
55 53 55 55 55 56 52 50 49 49 46 48 50 48 49 50 48 45 45 48 46 46 46 45 46 51 54 55 54 55 55 57 57 57 56 58 62 65 66 67 70 73 74
60 61 59 55 52 54 56 55 54 53 53 51 51 52 57 56 55 57 58 55 56 55 54 56 52 57 53 52 59 64 63 62 63 65 66 67 68 68 68 71 74 76 82
62 60 59 57 57 60 59 60 59 58 58 58 58 58 55 62 61 61 62 61 60 61 62 60 64 61 59 60 62 59 65 71 72 73 76 75 75 76 77 80 83 85 85
60 59 62 64 64 64 63 59 64 65 63 63 62 62 63 65 69 65 64 67 64 66 69 69 68 67 66 67 68 72 67 70 74 75 76 78 81 82 82 85 86 86 88
72 72 72 72 72 69 68 68 69 69 68 69 73 75 71 70 67 66 67 69 71 73 74 72 72 68 72 78 75 75 78 73 71 70 73 80 81 81 83 87 89 92 95
71 71 73 74 73 73 70 71 77 80 79 84 80 73 67 68 71 70 71 74 77 77 75 76 74 76 79 79 77 80 77 78 79 83 83 87 89 88 89 93 95 98 101
79 81 83 85 86 87 86 88 93 91 89 74 71 69 70 70 70 73 75 81 80 81 80 78 81 84 74 74 75 74 71 78 90 91 98 103 101 97 101 105 104 106 106
89 90 92 96 99 102 99 96 93 90 80 75 76 75 79 82 83 86 91 89 89 87 84 90 79 77 78 75 72 82 85 84 100 94 103 101 105 107 111 109 110 112 116
108 108 110 111 113 113 111 107 99 95 92 92 91 92 92 95 98 100 101 96 96 93 83 87 70 79 83 79 72 91 92 98 102 107 106 107 111 117 118 114 119 122 119
106 105 106 108 111 110 110 109 107 103 103 101 103 102 102 104 108 108 102 99 90 87 79 81 73 62 89 90 86 85 98 108 114 115 106 110 117 120 119 120 124 118 116
100 100 100 101 98 98 96 95 93 93 93 94 98 101 102 107 103 98 95 94 90 95 95 92 83 91 95 102 104 105 117 112 109 111 115 121 123 123 124 129 128 123 121
93 93 92 90 90 89 90 85 85 84 82 83 89 86 86 90 80 82 94 98 96 94 97 92 94 91 93 105 111 116 120 116 117 121 125 124 123 129 131 125 120 119 121
85 85 86 86 86 86 84 82 83 82 80 79 83 81 79 78 89 94 92 91 90 87 87 93 100 95 98 104 120 125 119 123 119 116 120 124 122 123 125 122 123 125 128
79 80 81 81 78 78 77 76 77 77 77 81 83 83 82 82 81 84 86 83 88 92 96 90 100 106 107 115 118 122 126 122 118 118 118 120 123 124 125 124 128 132 132
74 77 76 74 71 68 68 69 73 75 75 80 82 82 82 87 94 91 93 98 101 103 107 109 106 112 111 108 108 111 114 120 120 120 120 123 125 127 127 131 133 134 137
70 71 69 68 67 65 64 65 67 71 74 76 83 89 89 91 95 95 99 105 110 113 116 117 111 107 110 111 112 114 117 118 120 123 125 126 127 128 131 133 131 128 129
69 68 67 66 66 66 65 66 68 69 72 76 81 86 90 94 98 99 102 104 103 106 108 110 113 112 113 115 119 120 122 125 126 127 127 128 127 127 123 124 123 116 112
72 71 69 67 65 66 67 66 67 69 72 76 78 83 89 93 98 101 106 106 106 108 110 113 115 117 119 118 118 120 122 123 125 126 123 118 113 116 116 110 108 106 104
66 65 66 65 65 66 68 70 70 71 73 75 80 82 87 91 95 99 102 105 107 110 115 115 114 116 115 112 115 118 119 116 113 110 111 112 108 105 104 102 101 98 94
61 60 63 64 64 65 66 67 68 70 72 74 76 79 84 88 92 97 99 103 105 107 108 109 111 113 111 110 108 107 106 106 107 105 102 101 101 99 97 95 92 90 86

GFSGL_250_spd_084.txt.gz
Wind_Speed
29 30 33 31 27 28 31 32 32 30 28 27 24 22 20 21 29 35 40 45 50 58 63 67 69 72 70 61 57 57 54 50 47 52 51 53 53 55 55 54 53 57 58
33 34 33 33 32 30 29 32 32 33 32 33 33 30 27 26 23 24 25 29 41 42 42 43 44 44 46 48 52 55 54 55 53 55 60 57 56 56 56 60 59 61 62
38 38 38 38 38 34 34 34 34 35 36 37 39 41 39 36 35 30 25 23 28 30 34 45 52 53 55 53 53 54 57 57 58 59 60 60 58 59 59 61 62 65 59
44 43 42 43 43 40 39 39 40 37 37 36 36 38 39 39 39 36 35 35 32 32 31 34 35 36 39 40 42 44 45 43 43 42 41 44 45 48 53 56 57 57 60
46 43 45 42 43 43 42 43 43 44 43 39 40 38 39 41 42 42 38 36 40 43 41 40 38 37 37 37 37 43 45 46 47 47 46 47 48 50 54 56 57 60 63
51 51 53 48 47 46 46 44 45 47 48 48 46 45 44 44 45 45 47 47 45 45 44 45 49 49 48 46 46 44 42 46 47 53 53 56 59 61 64 65 65 69 71
57 54 53 54 54 55 56 51 51 50 51 51 50 50 50 51 53 51 49 48 49 52 53 53 54 58 58 57 55 51 51 54 52 53 51 56 56 64 69 72 73 76 77
58 59 60 60 62 59 55 55 56 56 55 54 53 54 53 54 57 58 57 55 56 55 58 62 62 63 65 63 63 61 58 61 62 63 62 60 64 67 64 70 77 80 80
55 56 58 59 59 58 58 58 60 59 57 56 59 61 55 57 61 62 63 59 60 60 63 67 68 64 63 68 67 68 65 68 67 68 73 74 71 73 76 77 78 82 83
65 65 65 63 63 62 63 63 62 60 61 64 64 61 62 63 67 67 68 68 65 68 76 74 76 66 66 68 70 72 73 73 71 69 71 74 81 82 77 82 81 77 80
64 63 61 61 64 66 66 63 65 67 69 72 74 71 71 69 72 71 72 76 74 78 76 72 70 70 71 71 71 74 79 82 75 79 76 83 80 79 78 70 81 84 87
68 66 68 69 70 68 70 72 75 77 74 72 71 72 73 74 70 80 80 76 82 80 71 72 68 71 73 75 76 82 86 83 84 88 89 82 77 69 71 80 86 89 91
73 72 77 77 78 77 76 74 72 75 78 81 80 81 82 82 86 87 84 87 85 83 78 75 72 72 74 81 88 90 83 81 89 86 87 83 80 66 75 87 92 96 105
83 86 83 77 76 76 76 78 80 80 81 84 88 94 96 100 101 99 91 85 81 79 62 93 78 80 86 85 86 87 85 83 82 80 91 82 86 75 82 92 100 101 110
82 79 80 80 82 84 86 88 92 96 100 101 103 106 106 105 101 96 90 95 86 89 85 86 90 94 88 87 89 84 83 77 95 86 79 85 87 97 90 94 105 117 123
96 96 95 96 98 101 102 103 106 109 111 115 118 113 110 107 106 105 99 112 104 100 97 101 106 99 99 100 93 100 101 106 98 96 97 91 101 100 110 105 112 113 117
102 101 102 107 110 111 112 116 118 112 111 111 109 102 101 100 98 96 98 106 106 112 117 115 111 119 117 114 119 122 117 113 101 105 102 96 101 110 120 119 122 126 129
101 104 105 105 103 102 103 101 97 97 98 97 96 96 92 91 90 88 87 92 95 96 100 105 107 110 113 118 120 112 106 105 109 110 110 113 114 116 120 124 127 130 127
102 101 100 100 99 97 95 93 89 90 93 93 91 91 90 88 86 85 86 88 91 92 93 95 98 99 96 100 101 100 103 106 107 113 114 112 119 117 122 127 129 129 135
93 94 95 95 95 91 90 88 88 88 88 88 87 85 85 84 82 83 84 85 87 89 91 91 93 95 96 96 105 107 110 112 113 114 112 112 112 118 125 125 126 129 131
91 91 90 88 89 89 87 85 85 83 82 81 79 77 77 78 78 78 81 83 84 87 90 92 94 100 101 108 113 113 111 111 109 108 109 112 116 120 123 124 127 133 130
86 87 87 86 85 85 83 80 77 77 76 76 75 73 73 74 76 76 78 80 83 85 89 92 93 99 102 108 111 113 112 111 111 113 115 118 120 124 125 123 124 122 115
84 83 83 81 80 78 78 77 76 75 75 75 74 75 75 75 77 78 79 80 81 84 86 90 93 95 99 102 106 109 110 111 113 115 118 117 116 118 119 117 113 112 112
79 78 77 76 76 76 78 79 78 77 74 76 76 76 75 75 77 78 79 81 83 85 87 89 91 93 98 100 101 103 106 108 108 111 113 114 114 114 109 108 111 110 107
75 75 75 76 74 73 72 71 71 70 69 70 70 71 72 73 75 78 79 80 82 83 85 86 88 91 93 95 97 99 101 104 104 103 104 104 104 106 106 104 105 105 102
69 68 67 67 66 65 64 63 64 65 66 66 67 68 69 70 72 75 77 79 82 83 85 87 90 91 92 93 95 96 97 98 98 98 99 101 102 102 102 101 98 95 91

GFSGL_250_spd_087.txt.gz
Wind_Speed
32 30 29 27 27 27 26 26 24 23 24 24 25 25 25 24 23 22 21 23 25 27 31 37 44 51 60 62 63 64 67 62 54 58 58 60 58 57 55 56 60 60 58
38 35 34 36 33 29 26 28 28 28 28 27 28 29 30 29 30 30 27 28 27 23 22 26 31 39 44 43 44 44 45 47 46 49 55 57 56 56 57 61 62 62 62
39 39 36 38 39 34 33 32 33 31 32 32 32 32 30 29 30 32 32 32 32 31 32 30 31 27 28 31 34 35 37 37 38 38 45 48 49 50 49 49 49 51 53
40 41 42 41 40 40 40 39 39 37 38 37 36 37 36 35 36 35 34 33 36 37 36 35 35 35 37 36 35 35 37 35 33 33 36 42 45 49 52 54 52 53 55
46 49 51 50 49 47 45 43 41 40 41 40 41 42 41 42 43 41 40 39 39 39 40 41 41 41 42 42 43 45 46 45 45 46 43 40 44 46 52 56 53 59 60
48 52 52 51 49 49 50 50 51 49 48 46 45 48 46 47 48 47 46 45 44 43 45 43 45 45 47 49 50 52 51 55 57 57 54 51 49 53 55 60 57 61 60
54 54 54 55 54 53 54 54 54 54 52 52 53 53 50 51 53 53 53 51 50 49 51 51 51 50 52 54 53 52 55 61 61 62 63 63 59 59 60 58 66 69 70
56 59 59 58 57 57 56 57 58 57 59 60 61 58 57 56 56 57 57 58 53 53 55 56 54 59 59 58 59 58 69 71 70 68 66 63 66 67 67 65 68 71 70
53 55 57 58 58 58 59 61 62 63 64 62 60 60 61 61 63 62 62 63 63 61 58 58 63 60 63 64 65 69 70 73 77 75 72 67 67 69 70 69 73 74 76
55 56 57 58 58 59 60 61 61 62 65 63 64 65 67 66 65 63 65 68 69 72 72 69 67 66 66 70 72 71 68 69 73 74 76 74 72 73 74 77 79 78 79
62 67 68 68 68 71 71 71 72 71 70 67 68 69 70 67 68 65 69 74 78 79 77 76 73 71 70 79 79 77 83 82 78 73 75 72 72 74 78 83 82 80 84
69 69 69 69 69 70 69 70 70 73 74 71 71 74 72 72 73 77 78 79 81 77 76 79 79 78 85 89 96 88 87 84 85 79 77 80 82 83 90 87 81 83 86
75 76 76 78 77 78 78 75 77 75 76 76 77 82 85 84 83 83 80 80 82 83 83 80 83 89 92 95 92 91 82 88 87 76 80 84 89 92 88 84 91 88 86
80 80 80 81 80 78 80 79 79 80 81 82 88 91 86 84 83 81 84 85 85 89 95 93 95 79 86 87 99 86 85 89 92 89 94 81 95 99 97 101 92 88 91
85 83 82 82 84 84 86 87 88 90 93 86 82 84 86 86 88 92 96 98 101 102 103 104 98 94 102 101 103 99 93 98 99 96 89 81 99 109 111 99 106 101 109
90 91 92 92 92 92 95 95 90 87 88 91 95 100 101 102 107 109 110 111 110 110 108 113 120 120 113 110 115 117 112 107 99 104 104 113 122 122 116 112 116 115 118
94 94 95 95 97 96 92 94 97 100 101 104 107 108 106 107 111 115 117 118 118 117 115 114 109 110 114 115 120 117 116 115 113 116 119 123 128 130 127 129 128 120 116
97 99 100 101 102 103 104 103 106 112 108 105 106 109 109 106 106 109 109 106 106 103 101 101 100 99 100 102 105 106 108 108 113 121 127 129 128 127 124 124 124 130 128
104 104 105 106 106 106 106 106 107 108 107 106 105 104 103 101 99 100 101 101 97 95 96 95 94 94 93 95 99 101 102 102 103 109 113 113 115 119 120 123 125 132 129
105 105 104 102 103 105 106 107 108 108 106 103 102 100 99 97 95 95 96 98 97 94 92 90 89 90 90 92 94 97 100 102 104 107 107 111 114 116 119 120 120 123 125
102 102 102 103 104 104 104 103 102 101 101 99 97 95 96 96 97 96 94 92 91 88 85 83 83 83 83 85 89 93 96 98 101 105 109 111 111 112 113 115 117 117 119
96 97 98 99 99 99 98 97 96 96 96 96 95 95 95 94 92 89 87 85 84 82 80 80 80 81 82 84 85 86 90 95 99 102 103 104 106 109 110 110 110 112 112
90 91 92 93 94 94 94 94 94 94 94 93 91 91 90 86 84 84 82 81 84 84 82 82 83 84 84 85 86 87 88 90 93 94 96 97 97 98 100 103 103 105 105
89 89 89 91 91 91 91 91 90 88 87 86 84 83 83 84 82 81 80 78 80 80 81 82 82 81 82 84 84 84 85 85 87 89 91 93 93 94 96 98 99 98 100
85 84 84 84 84 84 83 83 82 82 81 79 78 77 75 74 74 73 72 71 72 73 75 77 77 78 78 80 81 82 83 84 86 88 89 90 91 92 91 91 92 92 93
80 80 79 78 78 77 76 75 74 72 72 72 71 70 70 70 69 68 69 69 70 71 72 72 74 75 77 78 79 80 82 83 84 85 87 88 89 88 88 87 87 87 87

GFSGL_250_spd_090.txt.gz
Wind_Speed
43 40 37 34 30 28 27 24 23 21 20 17 17 16 16 17 18 16 15 16 19 20 20 19 19 21 27 32 36 38 42 45 45 48 47 48 47 47 50 52 55 58 59
43 43 40 38 35 33 32 31 30 27 24 25 24 23 24 24 25 24 24 23 22 22 23 25 25 26 25 24 23 23 26 30 30 35 40 41 40 42 42 43 45 46 46
44 44 44 43 40 38 36 37 37 34 32 31 29 28 28 29 31 31 30 31 30 29 28 31 33 33 34 33 31 32 31 30 27 25 32 36 37 40 41 43 44 43 42
44 45 46 45 42 42 40 38 40 41 40 38 37 36 36 36 36 37 36 35 36 36 36 35 35 37 39 39 40 40 38 37 36 35 37 40 42 48 48 49 49 50 49
49 50 49 50 48 47 48 47 46 46 44 43 43 43 40 42 42 41 39 40 40 41 41 42 42 41 42 42 40 42 44 43 45 46 44 45 48 52 55 59 57 59 56
50 51 54 56 57 56 55 55 54 54 51 49 47 47 48 48 50 50 46 45 46 45 47 48 49 49 48 48 48 48 47 46 45 46 45 45 48 54 62 66 66 64 63
54 54 54 55 55 55 56 57 55 57 55 51 52 53 52 52 53 54 56 53 53 52 51 53 53 54 54 54 53 55 54 52 54 57 51 53 55 64 62 65 67 70 72
60 58 57 56 56 57 56 56 55 56 59 59 59 59 56 59 58 59 63 63 60 56 56 57 57 59 61 61 59 56 58 60 64 60 56 57 57 64 69 71 73 70 69
60 62 62 61 62 63 64 65 68 70 66 63 63 63 63 64 63 64 65 64 63 62 63 63 64 64 62 66 64 63 63 68 65 66 68 68 67 69 71 80 78 79 76
54 62 66 65 62 63 63 62 62 66 67 67 65 63 63 62 63 63 67 69 69 67 68 70 69 66 68 67 70 74 75 71 68 70 69 71 80 77 78 82 78 80 76
57 57 60 61 61 63 65 64 65 66 66 66 66 68 70 72 74 75 74 75 77 74 72 73 75 75 72 75 78 81 81 78 73 72 69 87 82 82 90 79 78 81 76
61 65 67 65 64 66 68 69 68 70 72 74 74 75 77 77 77 72 73 78 80 81 79 77 79 76 79 83 84 86 79 87 84 80 77 75 85 88 85 81 83 82 85
74 72 75 70 68 75 75 77 79 78 77 77 77 79 78 80 79 82 79 79 81 84 88 88 90 90 88 88 92 88 86 88 88 87 91 96 92 91 98 97 88 88 89
78 77 75 81 79 77 78 81 86 86 85 85 84 86 87 88 85 87 86 84 89 92 95 96 87 83 83 87 90 88 90 96 103 103 104 103 104 102 105 101 95 100 109
86 83 82 89 90 83 85 82 84 85 85 85 84 86 88 91 92 95 94 94 97 96 92 93 95 99 100 101 99 103 107 109 110 112 111 112 112 111 109 116 115 112 116
90 92 93 95 95 96 96 93 92 92 92 91 90 90 94 96 96 98 98 97 99 96 99 102 106 107 106 106 107 108 111 114 116 117 119 120 120 118 120 120 124 126 120
97 95 95 98 99 105 103 99 99 97 97 100 101 103 100 100 102 105 108 105 107 107 109 109 110 110 112 113 113 114 115 114 114 114 114 116 116 117 118 121 126 130 134
99 100 104 106 106 105 103 103 104 105 106 107 104 105 108 111 111 109 109 108 107 108 110 109 109 110 112 113 112 112 110 108 107 108 108 107 107 109 111 113 115 117 120
100 101 104 106 106 108 112 112 112 111 108 110 115 112 110 111 110 109 108 109 110 110 111 110 108 107 107 107 106 105 103 101 101 102 104 104 104 106 107 109 111 113 116
110 111 113 115 117 116 115 113 113 114 117 113 111 113 112 112 112 112 111 111 110 109 108 106 106 104 103 102 101 102 101 99 97 95 94 96 97 97 101 105 108 109 111
112 111 112 112 113 113 114 114 112 112 113 114 116 115 114 112 111 111 109 108 107 105 104 104 103 104 103 101 99 96 95 92 89 87 87 88 90 91 93 96 99 100 102
106 106 105 106 107 108 110 112 114 113 112 111 110 110 109 108 106 105 104 104 104 103 101 100 100 99 98 94 92 92 92 92 90 88 86 87 87 88 89 91 93 94 94
101 102 103 104 105 106 106 106 106 106 106 105 105 104 103 102 102 102 102 101 99 97 94 93 93 91 90 91 89 88 87 87 86 86 87 88 88 88 87 87 87 88 88
95 96 97 98 98 100 100 100 100 100 100 101 102 101 99 97 95 93 92 90 91 90 88 85 84 82 82 81 81 81 80 81 81 81 81 82 83 84 85 85 85 85 86
91 92 93 94 95 95 96 97 96 96 95 95 94 93 91 89 86 84 83 83 82 81 80 80 79 79 78 78 78 78 77 78 79 80 80 81 81 81 82 82 82 83 82
87 88 89 90 90 90 90 90 90 89 88 87 86 84 84 83 82 81 81 80 80 79 79 78 78 77 77 77 78 78 78 78 78 79 79 79 78 78 77 77 77 77 77

GFSGL_250_spd_093.txt.gz
Wind_Speed
52 49 44 41 40 34 32 30 27 25 24 22 20 20 19 18 20 21 19 21 20 22 24 25 25 24 23 23 23 26 28 31 33 42 43 46 44 46 47 46 46 47 45
53 52 48 47 46 42 39 35 33 33 32 29 26 26 25 25 24 24 25 25 24 24 24 25 25 26 29 29 30 29 30 29 25 28 31 31 32 32 34 34 35 35 35
53 53 51 50 48 44 41 41 39 38 37 37 33 31 31 30 30 30 30 30 30 31 30 30 29 31 34 34 34 36 36 36 35 33 38 37 38 39 39 40 41 40 42
53 51 52 51 49 47 45 44 43 44 44 44 43 41 40 38 38 36 36 36 36 36 37 39 38 38 40 40 40 42 41 40 40 39 43 47 45 51 47 51 48 49 49
52 49 50 51 49 49 49 47 47 48 48 49 47 47 46 45 44 43 42 41 41 43 43 43 43 44 46 46 46 50 49 48 48 47 44 47 51 53 51 53 54 59 58
55 52 45 45 50 56 54 54 54 51 51 50 49 48 50 51 50 48 46 47 46 48 50 50 53 50 51 52 54 54 53 54 55 55 53 51 53 56 56 57 60 61 58
51 54 54 50 47 52 58 57 59 55 55 55 55 56 57 56 58 56 55 53 53 54 55 56 57 57 60 58 60 59 58 59 60 61 60 60 59 59 60 62 67 64 64
50 53 53 53 54 59 60 60 58 57 58 60 61 61 59 58 58 57 59 60 61 60 63 65 62 61 62 60 60 62 64 67 67 66 67 64 66 65 67 69 73 73 71
41 51 61 63 63 63 64 62 61 63 63 61 59 59 58 59 61 65 68 68 68 68 68 65 61 61 58 66 68 68 70 70 70 68 70 68 71 70 70 74 70 73 74
48 59 73 71 70 69 67 67 67 67 66 66 68 69 71 70 71 71 67 67 67 67 66 64 65 68 69 69 69 69 68 70 70 71 76 75 75 77 74 76 76 74 76
59 73 79 69 67 68 71 72 72 73 73 72 72 74 70 71 73 73 75 72 71 72 74 74 73 74 74 71 73 75 78 79 79 80 81 83 83 81 88 85 87 90 86
74 72 70 69 67 67 65 64 67 72 76 78 76 74 74 75 74 73 73 74 75 77 79 79 78 76 76 78 81 78 80 82 83 85 86 87 88 88 92 92 94 94 96
77 79 77 76 76 75 75 75 75 75 76 77 75 77 74 77 80 80 80 80 80 82 83 85 85 85 87 84 84 83 84 91 92 94 99 98 91 89 90 94 98 98 100
72 78 79 79 83 82 81 82 82 83 82 82 83 81 81 82 83 80 84 88 89 91 90 91 89 89 88 90 92 94 93 95 97 97 98 95 98 98 103 104 105 107 108
82 77 78 87 88 89 89 90 90 91 90 90 91 89 91 90 87 87 87 88 89 91 93 94 95 95 94 99 98 97 99 103 106 106 105 105 108 111 112 112 111 112 112
90 90 93 97 96 92 93 93 94 92 89 92 89 98 101 102 100 102 95 95 96 100 101 98 99 102 105 102 104 108 112 110 109 108 109 110 112 112 112 113 111 111 112
94 93 93 95 96 92 89 90 94 99 94 96 101 101 98 105 110 110 109 108 107 107 107 106 110 110 110 110 116 110 112 111 109 108 108 108 110 111 109 108 110 111 111
97 99 100 97 96 100 102 103 103 104 107 109 112 112 113 114 113 112 113 114 114 113 113 116 116 115 117 117 115 114 111 109 108 109 109 108 110 108 108 107 106 105 105
102 101 102 101 103 103 104 107 110 110 113 117 116 117 116 115 114 113 115 118 119 123 122 122 121 121 118 116 113 112 111 111 111 110 108 106 104 103 103 103 103 103 102
111 111 110 112 113 116 119 120 119 120 121 121 123 118 116 117 118 123 125 126 124 122 123 123 120 117 114 112 112 112 110 108 107 107 105 104 103 101 100 99 97 96 94
117 117 117 118 119 121 122 121 119 121 123 122 122 122 124 126 125 125 124 125 125 120 116 114 113 111 109 108 108 107 105 103 102 101 100 98 97 94 94 93 93 93 92
119 118 119 121 124 125 123 121 117 116 117 118 120 121 123 126 127 123 119 116 114 111 110 108 107 106 105 103 102 101 99 95 95 93 92 91 91 90 89 88 86 85 85
104 107 111 113 114 115 117 118 120 121 120 120 120 120 119 115 113 111 110 108 108 106 105 103 102 101 98 97 95 94 92 89 87 86 85 84 84 83 82 82 81 81 80
97 98 100 102 103 105 106 106 107 107 108 107 108 107 106 105 106 105 105 104 103 102 100 99 98 97 93 90 87 86 86 85 84 84 84 83 82 82 81 81 80 79 79
92 92 93 94 96 97 98 99 100 100 101 101 102 102 102 102 102 101 100 100 98 97 95 94 91 90 88 87 86 84 83 82 81 79 78 77 77 77 76 75 74 74 74
87 88 89 91 92 93 94 95 96 96 97 97 98 97 97 97 96 96 95 94 92 91 89 88 86 84 82 80 80 79 78 77 77 76 75 75 74 74 74 74 74 75 74

GFSGL_250_spd_096.txt.gz
Wind_Speed
48 48 52 55 50 47 42 38 34 33 30 28 32 35 42 53 57 57 56 57 57 56 52 47 45 43 42 43 42 38 36 36 35 40 40 41 42 44 46 47 49 51 51
48 50 54 58 55 51 47 42 38 36 34 32 32 33 35 38 40 39 39 38 35 34 34 34 32 33 34 33 32 34 35 35 36 40 40 41 41 41 41 40 40 37 38
48 51 56 62 60 55 51 47 43 39 37 36 37 37 36 35 34 35 34 34 35 35 35 37 38 37 37 37 37 37 38 38 38 40 46 46 47 48 49 50 50 46 46
49 50 58 64 63 58 55 50 47 43 41 43 42 43 44 43 41 40 40 41 41 41 41 42 42 41 41 42 43 45 43 44 44 44 49 52 51 55 53 54 53 53 55
47 48 58 64 64 59 54 51 48 43 45 47 50 50 49 47 45 46 46 47 47 47 46 46 46 45 46 47 46 50 51 49 50 52 52 55 58 59 59 58 57 59 58
45 51 57 63 63 58 55 54 54 51 48 50 52 53 53 51 53 51 50 51 52 52 53 53 53 54 54 53 53 54 55 56 58 58 58 58 61 62 62 62 63 64 61
50 56 57 61 59 54 54 56 57 57 56 59 60 58 53 54 56 57 56 56 55 55 57 59 60 61 60 60 61 62 62 65 63 65 63 57 57 63 67 70 69 69 68
51 52 54 58 56 50 47 54 56 53 62 63 61 61 58 56 57 60 61 61 62 62 63 62 63 63 62 64 67 69 70 70 68 64 62 63 66 66 68 71 73 73 71
45 49 54 57 56 51 53 57 54 54 60 65 64 64 63 63 65 65 65 66 68 67 66 64 65 68 71 73 75 74 72 71 65 68 71 71 68 67 66 69 69 71 72
50 51 52 54 47 46 55 59 65 66 69 69 72 72 70 70 69 67 67 67 66 68 70 70 73 74 76 75 72 73 70 72 75 76 77 77 74 73 74 74 74 77 79
54 55 58 59 56 57 63 69 70 71 72 75 75 76 72 72 72 71 74 73 75 77 79 79 80 78 75 75 76 76 76 78 80 81 81 82 83 83 83 82 82 83 87
57 62 64 67 67 61 63 67 70 70 74 78 81 79 76 77 79 79 81 80 81 81 78 77 77 78 79 80 80 82 83 85 85 87 88 88 88 87 87 88 90 93 96
67 63 73 70 73 73 66 69 77 82 82 78 79 82 81 80 79 74 76 79 83 86 87 88 88 85 85 87 89 89 90 92 90 90 91 91 94 94 94 96 97 98 95
78 77 75 80 81 79 73 73 82 89 85 86 86 86 84 85 86 88 89 89 89 89 92 91 91 92 92 91 91 95 91 91 94 94 96 98 99 99 99 102 102 103 105
77 80 81 85 87 92 89 86 89 86 88 89 90 92 92 94 95 96 98 99 100 99 100 101 101 103 101 103 104 105 104 106 107 104 103 104 108 107 110 111 113 113 117
88 84 85 89 91 96 99 98 92 94 93 95 97 99 99 103 106 106 105 104 104 105 108 108 108 108 106 112 113 114 116 118 119 113 110 113 116 117 119 120 121 123 122
91 96 92 94 100 101 101 108 104 104 103 105 105 105 107 111 111 109 106 107 109 111 109 107 106 104 108 107 112 116 119 117 115 114 119 119 121 124 124 127 121 118 115
100 100 104 104 104 105 106 106 110 109 108 108 111 112 114 115 116 115 115 114 110 110 110 112 114 116 118 120 123 123 123 118 118 121 123 123 126 124 118 115 114 112 110
101 103 103 106 104 107 109 110 113 116 117 116 117 115 114 117 120 120 119 118 118 119 118 119 121 124 126 130 130 128 124 123 125 124 124 120 118 115 111 109 107 106 104
109 111 111 109 111 115 116 116 117 117 120 121 120 122 122 121 120 122 120 120 121 124 127 130 131 132 129 131 127 123 121 120 122 121 118 116 113 111 108 105 104 102 101
114 114 114 116 120 118 117 119 121 121 121 121 122 125 124 125 127 126 126 127 130 131 133 133 133 135 129 123 122 122 118 118 116 114 111 110 108 107 105 101 98 95 90
117 117 115 115 115 117 119 119 119 120 122 123 124 126 129 131 134 134 131 130 129 131 133 129 125 123 122 118 117 116 114 112 110 109 107 104 102 101 96 91 88 87 85
109 112 111 115 119 121 125 125 124 123 125 127 128 128 127 126 126 127 128 127 125 124 123 120 119 118 117 115 114 111 109 108 106 103 101 98 94 91 88 85 82 79 78
99 102 106 110 114 117 121 123 124 123 122 121 120 119 119 119 119 119 118 118 117 117 117 116 114 112 110 108 107 105 103 102 100 97 92 89 87 85 82 80 79 78 78
93 94 96 98 100 101 103 105 106 108 108 108 109 109 109 110 111 111 111 111 110 110 109 108 107 106 104 103 102 100 96 92 89 86 84 83 82 81 80 80 79 77 76
86 88 89 90 92 93 94 95 96 97 98 99 100 100 101 101 102 103 103 103 102 102 102 102 101 99 97 94 91 88 86 84 83 82 82 82 80 79 78 77 75 74 72

GFSGL_250_spd_099.txt.gz
Wind_Speed
55 57 51 52 53 46 52 50 46 39 34 32 33 49 54 54 57 63 62 64 67 65 69 67 65 64 67 68 63 63 65 70 61 51 45 44 41 41 41 41 42 43 45
58 59 56 52 54 50 55 56 50 46 42 37 33 33 35 53 62 59 58 60 60 63 71 72 70 66 61 60 57 53 47 43 42 44 42 41 42 42 44 44 45 46 47
64 63 59 54 54 50 56 61 55 51 47 42 39 35 32 35 40 45 47 49 52 55 56 50 49 49 51 49 47 46 45 43 43 45 48 44 45 48 47 50 51 50 52
68 66 60 54 55 50 55 64 60 55 51 46 44 41 38 39 42 45 46 46 47 47 48 48 48 49 49 48 46 46 46 45 44 45 48 51 52 54 52 55 56 57 60
65 59 55 49 49 49 53 66 64 59 54 50 45 44 42 43 46 47 48 48 48 49 49 50 50 51 49 49 49 51 52 52 53 53 53 56 58 59 59 61 62 63 65
57 54 51 49 49 51 54 63 66 61 57 54 50 46 45 47 48 51 53 52 52 53 53 52 52 53 55 56 57 57 58 59 61 61 61 60 61 64 66 66 66 69 64
53 51 50 48 48 51 52 59 65 64 62 58 55 51 51 54 53 55 54 54 55 56 56 56 56 57 58 58 59 61 65 65 65 66 64 64 64 67 69 70 68 64 66
49 50 52 50 49 47 49 53 61 64 63 62 56 55 57 61 61 62 62 60 59 61 62 61 62 64 63 64 67 69 71 69 69 68 69 71 72 73 70 69 67 70 72
48 43 46 44 45 43 45 52 56 60 62 61 59 61 61 63 67 66 66 66 66 65 65 67 68 67 69 71 72 74 74 71 70 73 74 76 78 78 77 76 73 77 77
36 37 40 46 35 33 49 55 52 58 56 57 58 61 63 64 67 71 71 71 71 70 69 68 69 67 69 72 73 72 75 76 77 78 80 81 79 78 81 80 81 82 84
23 31 41 44 52 67 64 58 62 63 63 66 69 66 64 64 65 71 73 76 75 75 73 73 74 72 72 74 77 80 81 82 85 86 86 85 83 82 83 85 88 86 85
49 52 45 53 50 56 63 62 62 61 63 61 68 68 69 70 72 75 77 79 79 79 80 77 76 77 79 81 84 86 89 87 88 89 88 88 89 90 91 94 92 91 93
54 61 54 64 66 62 65 67 64 69 71 68 64 60 72 74 75 77 81 84 88 89 86 85 88 89 88 87 87 89 92 93 95 94 94 96 97 97 97 99 101 104 107
63 64 63 64 66 66 73 73 76 75 74 75 71 79 71 77 82 89 91 93 91 91 93 93 93 95 97 97 98 97 98 100 98 99 102 105 105 109 108 108 110 104 108
73 77 75 73 67 68 69 73 77 81 82 82 84 80 79 87 98 88 90 97 97 96 97 97 98 100 101 99 101 105 104 106 111 109 109 111 114 116 114 111 109 110 114
78 80 82 85 79 86 74 89 86 84 93 97 94 94 92 96 94 93 93 99 100 99 101 102 104 105 108 109 110 114 114 114 114 113 112 113 115 114 114 116 116 121 128
81 86 94 90 95 94 93 98 93 92 97 96 103 101 105 107 108 106 103 107 104 105 107 108 109 110 116 116 116 120 123 121 122 121 121 124 122 121 123 124 127 133 130
98 93 94 97 96 101 97 97 104 106 103 101 105 108 111 115 117 117 119 116 114 112 110 114 118 119 118 121 125 127 128 128 128 127 128 126 125 127 129 131 131 127 128
103 104 104 102 101 99 107 107 104 106 108 110 112 117 118 119 123 124 125 127 129 129 128 129 130 129 128 128 127 131 132 131 132 133 133 133 133 135 132 129 130 125 122
117 115 116 117 117 116 115 115 114 117 117 117 116 116 120 121 124 127 128 130 133 134 136 135 134 135 138 134 130 129 131 132 133 133 133 132 133 128 125 126 122 117 115
108 116 122 122 120 120 122 122 120 119 121 124 125 127 129 128 128 129 133 133 135 135 137 141 140 136 134 131 132 135 137 136 132 133 130 127 127 125 121 118 114 111 109
99 103 105 110 118 123 127 128 129 129 130 130 130 129 130 131 133 133 133 133 134 134 133 132 134 136 137 133 131 133 135 133 129 127 124 123 120 118 113 111 111 110 107
89 91 96 100 102 108 115 118 123 124 127 128 130 133 133 131 132 133 135 135 134 133 134 133 132 131 130 130 127 129 128 123 120 120 119 117 113 112 110 108 105 104 101
87 87 89 90 91 92 95 98 103 108 111 111 114 117 120 123 124 125 126 126 126 127 130 129 126 125 126 124 120 119 119 118 115 113 113 112 110 107 103 101 97 92 91
84 86 88 90 92 94 96 98 100 102 103 104 107 108 109 110 112 113 115 115 114 115 115 115 114 114 115 115 115 112 111 112 110 107 104 103 100 96 93 91 90 89 88
79 81 82 84 86 88 90 92 93 95 96 98 100 101 102 104 105 106 107 108 108 109 110 110 110 109 108 108 107 106 103 101 100 97 93 91 90 89 89 88 87 85 83

GFSGL_250_spd_102.txt.gz
Wind_Speed
80 74 66 63 56 52 48 47 46 43 44 44 36 45 52 48 44 45 48 53 53 54 55 59 62 62 64 63 62 62 63 63 65 63 65 58 62 60 46 42 41 42 43
77 72 66 61 56 51 53 50 48 49 44 50 43 35 48 55 55 49 52 58 58 60 63 63 63 64 65 68 69 70 68 67 70 67 63 51 46 44 45 45 44 44 45
74 69 62 53 52 49 54 58 55 52 46 54 49 42 38 50 58 60 56 55 62 65 64 66 66 67 66 62 64 68 68 61 55 49 45 46 48 45 47 48 49 49 51
68 63 61 57 54 51 55 58 57 54 49 56 56 49 43 40 44 56 64 67 67 66 66 67 67 70 73 74 68 57 49 48 47 49 52 52 51 51 52 54 55 55 57
65 65 64 64 62 57 55 61 61 55 51 54 61 55 51 48 48 47 46 47 53 59 57 56 57 54 52 50 51 51 52 53 53 52 54 53 56 58 58 60 59 61 62
69 71 70 68 67 63 61 62 62 56 54 52 63 61 58 54 50 51 50 48 48 49 50 52 52 49 51 52 54 55 54 55 59 59 59 61 62 62 65 66 65 63 64
69 71 73 73 72 67 57 62 56 52 49 53 62 66 63 60 56 52 51 51 49 49 50 51 53 53 54 57 60 59 61 61 61 63 64 65 65 66 68 67 67 68 71
54 60 61 66 64 62 58 59 55 51 51 51 58 68 67 65 61 58 58 56 56 54 56 55 53 55 59 62 63 63 65 66 68 67 67 68 71 71 70 72 72 74 76
26 43 51 52 50 58 58 56 54 49 51 50 53 65 69 68 65 63 61 58 60 62 63 63 64 63 65 67 68 68 68 67 67 69 72 71 72 74 75 76 75 76 77
29 27 36 43 48 51 57 53 49 46 51 47 49 57 66 69 68 67 67 67 62 62 61 67 69 68 70 73 74 73 71 73 71 72 73 74 77 78 79 78 81 82 85
30 30 30 34 34 31 38 45 44 44 35 36 47 50 53 61 65 63 68 64 69 70 68 74 76 78 78 77 76 75 76 76 74 74 73 77 78 81 82 84 84 87 91
34 28 34 36 48 42 40 43 38 45 49 50 46 56 48 53 62 66 68 67 68 74 75 73 73 74 74 76 80 80 82 81 80 83 83 86 89 92 93 93 94 95 94
50 42 42 49 46 46 49 44 57 55 50 54 56 65 64 58 64 71 67 72 76 75 76 77 74 80 80 79 79 82 88 90 92 93 93 93 94 96 97 97 101 100 98
62 54 54 52 52 56 52 53 54 65 65 72 74 76 74 74 76 78 79 80 77 80 78 73 78 79 83 87 90 93 95 98 100 99 101 102 101 100 104 106 106 108 111
72 64 64 63 62 62 66 64 65 67 70 71 74 80 83 83 83 83 79 80 79 77 80 87 84 93 97 99 102 99 100 99 102 103 103 103 107 109 110 109 112 116 119
77 79 75 74 67 72 72 76 72 74 79 79 86 85 88 89 90 93 90 91 86 86 87 90 92 97 95 101 105 102 103 103 105 109 110 107 107 110 113 114 120 124 123
84 78 80 84 85 78 77 77 84 84 83 88 89 90 87 91 94 99 101 100 101 96 99 101 103 106 106 105 109 112 114 111 113 113 119 119 119 119 121 127 130 134 134
92 89 87 87 89 87 88 89 91 96 93 93 95 98 95 95 97 100 105 106 112 113 110 108 111 116 116 115 121 121 122 124 126 130 130 131 131 134 137 138 140 143 145
100 99 101 98 98 97 99 100 102 103 101 105 104 105 104 102 107 107 110 113 111 116 122 121 122 121 123 121 125 129 131 133 135 136 139 142 142 145 148 149 144 143 145
109 106 109 108 108 109 107 106 108 108 107 106 113 113 112 110 110 111 113 113 117 121 125 125 127 127 130 134 136 136 137 136 137 140 144 146 148 148 148 148 146 136 143
115 118 117 118 118 117 115 114 117 117 117 118 115 116 120 121 122 125 123 125 128 126 130 132 134 135 136 137 139 141 143 143 141 144 145 144 145 149 146 145 144 145 145
86 96 117 127 128 124 126 124 125 125 126 128 128 125 125 128 130 131 130 130 130 132 132 133 135 136 138 141 142 143 145 146 148 149 148 145 145 144 143 143 140 131 129
82 84 87 95 111 121 125 125 132 137 136 133 134 132 133 133 135 137 136 137 136 133 136 139 141 142 143 143 144 146 147 143 139 143 146 146 143 137 129 128 124 119 117
82 86 87 89 90 92 95 103 110 125 137 135 139 141 140 142 137 136 138 140 143 143 141 141 144 144 144 143 143 145 144 141 138 134 131 127 126 124 118 117 114 109 109
75 78 82 87 89 91 91 92 93 96 101 107 115 123 127 130 133 131 128 128 128 127 127 127 128 127 126 127 126 126 124 123 124 122 118 116 115 111 108 107 104 103 102
73 74 75 76 79 83 86 89 92 93 94 95 97 100 101 103 105 107 109 109 110 112 114 115 116 115 115 116 116 114 112 111 111 108 106 105 104 103 101 100 98 95 92

GFSGL_250_spd_105.txt.gz
Wind_Speed
70 68 65 64 65 66 64 65 64 59 49 45 40 38 40 37 39 39 35 37 36 37 39 40 47 49 48 51 51 49 50 54 55 58 56 56 56 56 64 70 52 49 46
71 71 69 67 67 67 69 67 65 60 52 45 44 37 41 42 39 44 44 44 44 45 45 48 50 53 54 53 54 56 57 59 60 62 64 68 68 67 60 46 45 47 50
75 73 72 72 71 71 72 63 68 57 51 47 49 46 42 49 46 43 52 52 49 50 52 52 53 56 56 56 58 60 61 63 65 64 64 64 62 50 47 49 50 51 53
78 78 78 77 75 74 73 68 62 53 53 48 50 51 45 48 53 47 48 59 57 56 56 56 58 61 61 62 63 63 63 65 66 68 69 55 50 47 49 54 54 54 56
85 81 77 76 73 64 63 57 54 51 53 51 50 49 48 50 57 54 49 52 62 66 61 62 65 66 68 65 63 65 65 67 66 59 54 53 53 55 57 58 58 59 60
84 84 77 70 63 57 56 58 57 58 58 59 54 54 50 49 57 61 56 52 50 52 56 62 67 70 72 70 70 69 66 59 54 53 55 55 58 58 59 61 62 65 64
59 61 62 62 61 61 63 61 63 65 63 65 60 58 56 53 56 63 64 59 56 54 52 51 51 53 55 57 57 56 55 54 56 57 60 61 62 62 63 66 67 68 69
60 61 61 62 63 61 63 64 65 67 67 67 65 58 60 58 57 64 70 67 63 60 59 57 56 57 58 57 55 56 56 58 61 63 63 62 62 63 65 67 70 73 74
51 46 44 43 48 60 69 77 72 70 70 72 71 61 60 60 60 61 69 72 69 67 64 61 60 61 61 61 59 61 63 63 63 62 63 65 67 67 70 71 73 76 75
54 37 25 45 32 35 47 56 63 67 74 70 68 62 62 61 57 58 65 72 72 70 68 67 67 64 61 63 65 65 66 67 68 70 72 73 73 73 74 78 79 80 81
49 40 37 36 37 33 37 39 51 62 67 68 64 63 62 59 54 50 51 64 73 73 73 72 70 70 73 73 74 74 74 76 76 76 77 78 80 82 81 83 82 81 82
53 52 46 42 40 41 38 51 64 63 60 66 62 58 57 54 51 49 55 57 66 73 71 74 75 75 78 78 80 81 79 80 79 80 81 82 81 82 83 81 82 86 88
59 55 67 65 52 44 43 49 52 52 50 53 57 58 51 48 49 48 48 52 54 58 60 68 74 73 75 76 76 79 79 78 77 79 81 84 78 80 83 88 88 92 96
61 64 69 75 72 56 49 47 48 47 51 59 63 59 49 50 49 55 62 54 64 60 63 68 72 75 75 77 77 78 79 82 86 87 86 87 85 93 94 94 98 103 104
69 74 77 77 70 69 62 60 62 62 64 64 67 67 65 72 72 74 68 71 69 70 72 77 77 80 82 81 82 86 86 89 86 83 88 94 99 99 100 103 101 103 101
78 81 79 79 79 80 77 71 68 64 69 75 75 73 70 70 72 80 85 81 81 84 86 84 89 93 91 93 89 96 98 95 93 94 98 101 107 107 104 105 110 112 113
90 88 88 86 88 87 82 80 77 76 77 81 81 78 81 82 84 83 84 87 80 89 94 95 97 97 101 91 95 94 101 101 104 107 106 106 106 111 112 113 119 119 124
94 95 96 94 94 90 92 92 88 85 85 85 89 85 85 87 88 87 87 93 92 93 102 97 100 105 105 108 111 109 111 110 110 110 112 115 121 124 119 121 125 129 133
97 102 101 102 100 99 97 98 97 95 92 93 96 98 96 95 93 93 95 98 98 104 106 110 107 105 106 109 114 113 118 121 122 123 125 124 126 128 130 131 134 136 138
79 98 107 105 105 106 106 107 105 103 102 101 101 104 107 107 105 104 105 107 107 106 110 111 114 116 117 120 118 118 122 123 123 123 127 131 131 133 135 137 138 139 142
74 80 88 106 112 111 110 110 113 114 109 110 110 112 112 113 115 115 115 116 113 119 119 117 119 120 122 123 125 128 129 129 130 130 130 132 135 136 136 140 145 150 150
76 77 81 85 91 104 115 118 119 120 121 120 115 117 121 121 121 120 121 122 126 125 126 127 127 126 128 133 135 135 135 138 139 139 138 139 142 142 145 148 148 147 152
78 79 80 82 86 88 92 102 122 122 126 127 129 128 124 124 129 128 128 130 129 131 131 131 133 135 135 132 133 135 139 143 147 148 147 150 149 147 150 151 152 153 152
77 78 80 80 82 86 88 91 94 99 112 125 128 132 133 134 136 134 137 138 136 138 140 139 139 142 144 142 142 146 145 145 145 145 142 145 149 149 154 153 150 150 146
73 74 76 78 80 82 85 88 90 93 97 100 103 117 121 127 131 132 135 140 139 135 138 135 137 142 145 145 146 147 149 150 142 140 140 141 142 142 148 148 137 128 126
69 71 72 74 75 76 78 81 86 89 91 93 96 99 102 106 115 121 123 128 133 139 144 138 136 139 139 138 139 138 134 133 133 133 137 137 133 128 124 123 120 115 111

GFSGL_250_spd_108.txt.gz
Wind_Speed
62 59 60 58 53 49 52 54 56 56 53 53 56 55 54 48 41 36 35 35 35 32 28 20 23 36 41 46 47 48 53 49 51 50 50 50 52 54 54 55 59 60 59
68 65 61 58 56 56 54 57 59 58 55 57 57 60 59 53 45 38 36 38 39 37 36 31 30 35 43 47 48 50 48 49 49 50 50 53 55 55 57 61 60 62 62
67 66 67 66 62 61 61 62 62 62 59 62 65 64 63 61 47 41 39 43 40 44 45 44 43 45 48 51 50 50 51 52 53 55 55 58 61 61 61 63 65 65 67
69 68 70 67 65 66 65 67 67 66 70 68 68 70 65 52 47 46 41 40 45 46 50 52 51 53 54 55 53 54 55 55 55 56 60 61 63 64 65 67 68 68 62
75 75 70 66 63 67 72 71 72 72 70 73 70 62 59 52 49 48 46 45 44 50 52 57 59 58 59 61 62 63 62 62 65 66 67 67 67 67 68 68 73 69 60
74 70 71 72 72 74 75 77 76 74 75 73 69 64 64 57 52 52 49 44 46 52 55 56 64 65 66 64 65 67 66 64 65 68 69 71 68 67 69 63 57 57 59
67 70 74 79 79 79 77 76 78 57 56 76 71 65 63 62 54 56 52 47 48 51 58 60 58 70 71 71 71 70 70 71 73 70 70 70 68 63 62 60 59 61 64
70 71 72 72 73 74 74 74 72 72 73 62 63 63 65 65 62 61 60 57 53 53 58 64 65 62 61 65 70 72 72 71 70 70 70 67 66 64 64 64 65 66 65
52 54 55 55 57 57 55 57 59 62 65 64 65 66 67 68 69 67 65 64 61 57 59 65 71 70 67 65 63 61 61 61 63 63 63 63 64 66 67 68 68 66 67
56 57 61 58 59 60 58 59 51 45 59 66 59 63 70 73 77 76 70 67 66 64 60 64 72 75 75 71 69 68 69 69 68 69 69 69 70 69 69 69 70 71 74
62 63 64 59 61 59 55 48 45 45 39 35 55 58 65 73 78 78 77 75 72 70 65 65 67 75 78 78 78 76 74 74 74 76 77 76 76 75 74 74 75 79 82
57 57 55 55 54 58 52 54 65 55 44 41 48 53 65 64 85 83 81 79 73 72 67 65 69 71 76 80 81 80 78 77 79 80 81 81 80 77 77 81 84 87 86
53 53 55 56 57 65 65 60 56 59 57 54 57 62 71 56 67 74 80 77 74 71 68 67 64 63 69 75 79 81 82 85 84 83 85 83 84 85 84 88 92 93 90
54 56 55 56 59 69 63 61 69 64 61 65 58 66 74 64 72 70 73 74 74 73 71 70 69 65 62 65 72 78 78 78 81 81 85 85 86 87 84 82 82 86 89
59 57 60 61 64 73 68 72 71 70 71 73 75 68 78 80 74 71 71 75 76 76 74 73 70 71 62 63 68 72 77 76 80 79 81 85 87 88 87 84 90 93 96
64 62 63 66 69 77 80 79 82 82 83 85 83 80 74 76 74 73 75 78 82 81 79 79 76 76 69 69 72 75 78 79 82 86 86 88 91 92 93 95 99 103 105
64 63 64 70 77 80 82 82 87 86 89 92 90 87 81 78 73 77 79 86 86 81 80 82 83 84 76 75 83 84 83 86 88 93 95 96 95 98 101 106 108 104 107
68 69 69 71 79 92 93 93 92 93 94 102 95 96 90 85 85 85 90 86 87 89 89 92 93 95 95 86 93 94 93 94 99 99 102 105 106 108 109 108 109 112 116
68 69 70 73 76 87 99 104 102 102 101 97 104 103 99 95 92 95 94 95 98 97 100 102 100 98 94 98 100 101 103 105 101 104 108 110 111 111 115 118 118 118 118
71 72 71 72 75 79 91 101 109 109 109 110 108 110 108 104 99 99 99 99 105 107 111 109 105 105 108 109 104 105 106 109 112 112 116 117 113 117 124 127 127 129 129
72 73 74 75 75 76 79 90 96 111 117 116 118 115 114 113 111 108 106 108 107 112 114 114 118 115 115 115 116 115 115 115 115 117 124 125 126 129 132 133 133 132 134
72 73 73 75 77 79 81 84 89 97 103 114 116 121 122 120 121 116 113 114 117 116 117 120 121 125 123 124 125 126 123 124 126 125 127 130 133 132 132 135 137 137 138
73 74 75 75 76 78 79 82 85 88 93 98 102 110 113 116 119 122 125 122 122 119 122 124 125 128 129 132 132 131 131 132 135 136 134 135 138 142 145 148 148 146 146
71 72 74 76 76 77 78 80 81 83 87 91 93 97 99 102 110 112 116 122 121 122 125 125 127 130 134 135 135 136 138 139 136 134 140 144 143 146 147 150 150 145 142
67 69 71 73 74 75 76 78 79 81 83 84 86 90 94 97 99 101 104 109 116 117 120 123 125 127 128 130 136 139 140 141 143 145 147 148 150 147 145 146 147 146 142
61 63 64 66 69 71 73 76 77 78 80 82 83 84 86 89 91 93 97 101 103 104 107 111 115 120 120 119 120 123 127 131 133 135 134 134 133 129 131 136 134 137 141

GFSGL_250_spd_111.txt.gz
Wind_Speed
70 64 60 56 56 60 65 64 60 54 50 53 54 51 53 49 45 47 47 48 41 38 36 32 32 39 39 32 40 36 40 44 54 57 58 54 56 58 57 57 53 53 52
69 67 64 60 61 61 56 52 48 48 49 53 52 51 55 52 48 45 49 52 49 43 40 37 34 39 40 26 34 38 39 44 51 51 55 61 60 58 52 51 52 55 58
72 68 65 64 61 63 63 58 54 52 50 52 55 52 53 51 48 49 52 54 53 46 43 39 41 40 42 31 32 34 41 48 54 55 55 54 54 54 53 53 54 59 61
74 72 69 68 65 63 64 62 59 56 57 59 60 58 59 59 57 60 60 58 58 48 42 43 43 45 44 43 41 43 51 56 56 57 59 59 60 59 57 58 60 63 60
75 75 72 69 67 69 67 66 66 67 69 65 65 65 68 67 66 65 60 61 55 48 43 43 47 46 51 51 51 53 56 59 61 62 61 59 60 62 61 64 66 64 65
80 81 81 76 71 69 70 70 71 70 71 70 69 68 68 68 71 70 69 65 60 53 48 49 47 53 51 57 60 62 64 66 65 66 66 64 65 65 67 68 70 73 71
69 73 75 76 75 73 72 71 73 71 66 49 58 72 72 76 81 76 71 69 63 60 53 55 51 55 57 57 60 66 70 71 72 72 72 73 75 75 73 73 73 75 74
67 70 71 72 72 73 74 75 74 72 68 69 75 80 79 76 72 75 68 63 64 64 58 58 55 55 56 60 64 63 71 74 73 74 75 76 76 77 77 76 78 81 81
61 62 65 67 67 69 72 73 71 73 72 60 59 63 76 69 70 69 74 74 75 67 62 62 63 61 60 60 64 70 70 70 77 79 76 78 79 81 83 84 81 77 74
43 49 56 62 66 68 71 72 73 74 76 79 91 87 79 69 72 76 73 67 64 64 64 64 68 69 66 65 65 67 72 75 74 74 77 83 84 83 80 77 76 74 73
48 49 47 50 52 54 56 57 59 57 58 63 68 70 76 74 72 71 71 67 67 71 67 69 70 72 73 73 71 69 71 76 80 80 80 80 79 78 80 81 80 81 80
54 55 58 56 56 58 64 65 65 66 67 66 68 67 67 76 68 54 56 66 71 69 74 77 79 81 79 77 77 76 74 75 79 84 85 86 85 84 84 84 84 84 84
60 60 60 60 62 65 70 70 74 76 74 72 71 70 70 70 63 50 62 71 74 73 67 73 77 86 83 81 85 80 81 79 79 84 89 89 91 91 90 89 90 89 89
63 63 65 69 68 66 62 64 64 68 68 69 71 68 73 67 68 69 78 74 72 74 76 78 77 79 79 85 88 85 85 84 83 83 87 86 88 89 90 90 87 88 86
70 70 70 71 70 68 71 71 70 70 71 72 76 77 79 85 76 75 81 81 83 75 88 86 89 89 87 83 88 90 89 89 87 85 88 87 85 84 84 89 91 90 87
72 74 75 76 76 75 75 73 74 75 74 77 87 87 91 87 81 85 81 84 78 80 88 82 81 83 81 82 86 91 91 93 91 88 87 85 88 90 90 93 92 95 97
77 79 80 81 79 78 77 74 72 78 80 80 90 96 93 99 96 93 90 86 91 93 90 92 89 91 96 91 87 91 92 95 94 94 91 90 89 87 89 91 97 94 93
81 81 82 82 82 81 80 78 76 78 85 87 87 97 98 98 97 98 99 98 98 100 97 94 95 90 89 92 90 94 98 99 100 97 97 97 99 97 93 96 95 96 99
74 75 75 76 77 78 78 79 78 78 79 87 93 96 105 107 106 105 105 107 106 105 103 106 106 102 93 91 90 95 103 105 104 103 103 105 106 107 109 104 107 104 106
73 74 75 75 76 77 79 80 80 81 82 86 90 99 103 109 115 114 114 116 117 118 110 108 110 105 103 100 99 99 102 112 109 109 110 115 113 113 116 115 114 116 117
74 73 74 75 75 76 78 80 82 84 86 87 89 93 98 107 110 117 120 119 117 120 119 115 111 112 110 107 106 109 108 110 112 115 115 117 120 122 124 124 121 124 123
75 74 74 74 75 77 77 78 79 81 84 88 89 91 93 97 102 111 117 119 122 124 123 122 119 116 115 113 111 112 113 115 115 118 123 123 126 129 129 132 128 129 129
73 74 74 74 75 76 77 78 79 80 82 84 86 89 92 95 97 100 104 108 114 119 120 122 123 123 122 121 117 118 117 117 118 120 120 126 130 133 136 137 137 134 135
71 72 73 73 73 74 75 76 76 77 79 81 82 84 87 89 92 96 99 102 103 106 107 111 115 117 118 116 117 120 120 120 120 121 124 127 129 131 131 132 137 141 140
65 65 65 66 67 69 70 72 74 75 76 78 79 80 81 83 86 88 91 94 97 100 101 103 104 103 105 108 111 111 112 115 118 122 126 128 131 132 134 136 136 137 137
57 57 58 59 61 63 66 68 70 71 72 74 76 78 79 80 81 83 85 87 89 92 95 98 99 100 101 103 104 105 106 106 106 108 111 114 116 118 119 119 120 120 121

GFSGL_250_spd_114.txt.gz
Wind_Speed
74 78 77 74 76 75 69 65 64 62 61 59 58 56 56 52 48 50 46 43 47 46 42 41 41 36 35 39 35 39 38 40 47 48 49 52 53 57 62 66 61 56 55
70 75 80 77 74 74 70 65 63 63 66 65 61 57 59 55 53 52 48 45 49 49 45 43 44 43 37 39 37 40 43 39 38 48 47 46 57 54 62 66 63 64 62
67 72 76 76 74 72 70 67 66 66 66 66 65 60 54 51 52 53 54 50 50 49 46 46 47 47 41 42 42 39 38 35 38 41 43 43 49 55 62 64 63 66 65
66 69 74 74 73 71 70 69 66 62 57 56 54 56 54 51 56 57 54 54 54 52 51 52 52 47 42 41 47 43 43 44 43 48 48 49 48 51 57 61 62 66 67
65 70 71 74 73 72 71 70 69 66 64 60 56 55 56 55 56 56 64 62 60 60 58 56 55 53 45 44 49 50 46 47 44 42 47 52 55 55 58 60 61 61 64
64 68 73 72 74 73 72 73 71 70 67 62 59 60 60 60 59 53 64 69 69 67 66 60 59 58 55 49 49 53 53 52 52 53 57 59 60 66 66 67 70 68 69
57 64 69 73 78 78 76 76 75 73 72 70 69 68 66 65 66 69 60 75 74 75 69 67 66 67 65 57 52 57 56 58 61 63 64 65 67 70 73 71 74 73 73
56 63 69 73 78 80 79 79 80 78 77 75 73 70 70 67 68 66 69 77 76 68 69 74 72 69 61 59 54 56 63 61 60 67 70 70 70 72 73 75 77 77 76
49 54 63 69 74 79 83 83 83 82 83 83 82 78 74 72 71 65 75 77 74 76 78 88 71 62 61 63 65 66 65 66 67 64 66 71 73 76 77 79 80 79 80
51 51 55 59 63 69 74 77 80 80 80 79 80 81 78 74 72 74 84 85 84 91 89 79 79 69 64 69 73 71 68 68 69 69 69 68 73 77 79 82 85 86 86
48 51 54 56 60 63 65 67 69 71 73 76 78 80 80 80 73 76 83 86 87 85 75 75 70 67 70 67 66 70 70 70 73 73 73 70 72 74 77 82 83 82 85
53 53 50 51 53 55 57 61 64 69 73 74 75 74 75 69 74 71 78 81 81 83 83 81 82 74 74 74 75 76 73 73 75 78 79 79 77 78 77 77 78 82 86
58 57 59 59 60 60 58 57 59 61 63 65 66 69 71 72 74 78 90 97 97 85 90 85 87 81 77 77 81 83 82 77 79 81 85 83 84 84 82 82 81 83 86
58 61 64 66 67 67 66 66 67 69 70 67 70 71 73 78 80 80 80 80 83 85 87 84 85 82 79 79 83 84 84 83 87 85 88 90 91 86 87 88 89 90 90
66 67 67 69 71 74 75 75 76 76 76 78 79 79 81 84 88 88 89 88 89 91 88 91 90 84 75 87 86 88 89 90 89 90 93 94 95 93 93 94 96 96 95
73 75 77 77 77 78 79 79 80 81 83 83 83 83 85 85 84 85 87 87 90 91 91 92 93 90 89 92 98 98 91 94 91 89 87 87 89 91 92 96 98 99 101
81 81 80 81 81 79 79 81 83 84 86 89 89 90 88 88 86 87 86 88 87 89 91 93 94 88 92 94 93 96 98 99 99 94 93 91 88 89 92 93 96 100 103
81 82 82 83 84 84 85 86 86 87 89 90 90 90 90 89 88 88 90 91 92 92 99 101 102 100 102 102 102 104 107 108 107 105 97 94 96 97 98 100 100 101 104
79 80 80 81 82 84 85 86 87 87 89 90 91 91 91 90 89 89 91 94 95 97 101 107 109 113 117 116 113 109 109 105 104 104 102 105 105 105 104 98 96 99 101
76 77 78 79 80 82 83 84 84 85 85 85 86 88 89 90 90 90 93 98 99 102 103 109 115 117 117 118 117 118 115 118 116 117 118 116 112 109 110 105 104 98 102
74 75 75 77 78 79 81 82 83 84 84 84 85 86 87 88 90 91 93 94 99 104 106 108 111 117 122 122 122 123 124 124 125 124 122 119 120 118 114 113 113 112 109
75 75 75 75 76 76 78 78 79 81 82 83 84 84 86 87 88 90 93 95 96 100 103 106 108 110 112 116 120 123 122 122 125 126 125 123 125 124 122 123 118 114 114
74 73 74 75 76 76 76 76 76 77 79 80 81 82 83 85 87 89 91 93 95 97 100 102 105 106 108 111 112 117 121 123 123 122 123 123 124 124 121 119 117 116 116
70 72 73 73 74 75 76 77 77 76 76 76 77 77 79 80 83 85 87 89 91 93 95 97 99 102 105 106 108 110 111 112 114 116 117 118 119 119 118 117 117 117 118
67 66 66 67 67 68 70 72 73 73 73 74 75 76 77 79 80 82 84 85 87 88 90 91 94 95 97 99 102 103 104 105 106 107 108 108 109 111 112 112 112 113 113
61 60 59 59 60 62 64 66 68 70 70 71 72 73 74 75 76 78 79 81 82 83 85 86 88 90 92 94 96 97 98 98 100 101 102 102 102 102 102 103 103 103 103

GFSGL_250_spd_120.txt.gz
Wind_Speed
94 87 83 84 84 84 81 80 76 71 67 63 54 54 63 63 59 58 59 56 56 56 58 54 53 52 50 50 48 48 48 44 38 37 38 38 41 45 47 44 45 49 50
98 91 90 85 83 87 83 83 78 75 68 63 55 55 64 68 67 69 62 58 58 57 58 59 56 56 54 54 52 53 52 51 44 40 40 39 40 43 48 43 41 44 45
93 95 94 90 89 91 89 87 83 77 70 72 64 66 67 69 67 66 65 65 66 63 57 58 56 54 55 58 57 57 58 56 47 43 41 41 39 40 42 48 48 45 46
81 91 93 91 92 94 94 92 89 85 79 79 78 69 67 71 72 70 70 67 68 64 62 62 62 59 60 60 60 60 54 53 50 49 46 42 43 41 43 45 47 49 47
65 75 83 91 92 91 90 90 89 85 84 82 79 77 74 70 70 76 74 72 68 67 67 66 63 60 59 64 63 60 58 52 52 53 51 46 44 46 43 44 49 53 48
36 44 53 63 69 81 86 88 88 87 84 81 81 82 78 81 78 78 77 74 72 71 70 69 65 64 57 63 62 55 57 58 52 53 55 52 50 51 52 48 49 54 56
29 34 40 50 56 61 67 71 75 78 79 81 77 75 80 80 81 84 84 84 81 79 73 70 64 53 57 65 59 57 60 66 64 65 56 56 57 58 58 59 55 54 62
33 34 34 38 45 53 58 62 65 69 72 76 76 76 78 81 82 84 84 81 78 78 78 72 65 64 69 71 70 67 66 62 64 68 67 69 66 69 61 60 56 58 63
35 38 39 38 41 45 47 53 58 64 67 70 72 73 75 78 81 85 84 82 80 79 78 76 74 75 76 79 80 77 77 79 79 79 79 76 73 70 70 65 69 57 56
40 36 38 39 40 43 45 48 51 56 61 65 69 72 75 77 80 85 87 87 83 82 80 80 79 79 79 77 79 79 83 82 82 81 85 80 76 77 72 73 73 76 67
43 45 45 47 47 46 47 49 53 54 56 63 67 72 74 77 78 82 89 90 87 84 83 83 81 82 84 81 83 84 85 85 82 79 82 82 83 81 81 81 80 81 81
52 51 53 56 56 57 60 61 62 62 62 65 65 70 72 74 77 81 86 92 94 93 91 88 87 87 86 86 87 91 89 90 91 89 92 91 92 89 84 86 88 85 82
58 60 60 62 65 66 64 66 64 65 68 68 66 65 68 72 77 79 83 86 91 94 96 96 94 92 89 90 90 91 87 95 96 97 97 95 91 90 90 83 79 80 79
65 69 68 68 72 73 74 74 74 73 73 74 75 75 74 73 75 77 80 83 86 89 92 94 96 98 97 96 96 97 95 100 96 95 96 90 93 90 86 82 83 82 80
76 78 81 81 80 80 80 79 81 82 81 81 79 77 80 82 84 84 84 85 86 87 89 90 91 92 94 95 96 97 95 94 94 94 96 95 98 91 87 86 87 86 89
78 79 78 80 78 81 83 83 84 86 85 83 85 83 83 83 84 84 84 85 85 85 85 86 89 91 92 92 92 93 94 97 97 96 99 98 101 102 98 94 92 90 90
76 77 77 77 79 80 80 82 84 85 88 88 87 85 87 89 90 90 90 91 91 91 91 91 90 91 91 93 97 99 95 97 100 100 99 102 101 105 103 103 102 103 107
81 81 81 83 83 84 84 85 86 87 89 91 92 93 94 94 95 97 99 101 101 101 100 100 100 99 98 96 97 98 101 104 108 110 114 114 115 113 113 112 110 107 106
81 82 82 82 83 83 84 85 87 88 90 92 95 97 97 98 99 102 104 106 107 108 108 108 108 107 107 108 109 110 110 110 110 110 110 112 115 119 117 120 121 121 120
78 79 78 78 78 79 79 78 79 80 81 83 86 89 94 96 97 98 100 102 105 107 110 111 111 111 112 114 115 116 117 118 118 118 119 120 121 122 122 122 122 124 124
73 74 74 74 75 76 76 77 77 78 80 81 83 86 88 91 93 95 97 99 101 102 103 104 106 108 109 112 113 116 117 117 118 120 121 121 121 120 121 121 122 123 124
69 70 71 71 72 73 74 75 77 78 80 81 83 85 87 89 91 93 95 96 97 98 100 101 102 104 106 107 107 108 109 110 111 112 113 114 115 116 116 116 116 117 118
69 69 68 68 69 69 70 71 73 74 76 77 78 80 82 83 84 86 89 90 93 94 95 96 96 97 98 99 100 102 103 104 106 107 107 108 109 109 110 110 111 112 114
69 68 67 66 67 67 67 67 67 68 68 70 71 73 74 76 78 79 81 83 86 88 90 91 92 93 94 95 96 96 97 97 98 98 100 101 102 103 104 105 105 105 106
67 65 64 63 62 62 62 62 62 62 63 65 66 68 70 72 73 74 75 76 77 79 80 82 84 86 88 90 91 92 93 93 94 95 96 96 97 98 98 99 98 99 100
66 64 63 61 60 58 57 57 56 57 57 58 59 61 63 65 66 67 68 69 69 71 72 74 75 77 77 78 80 82 83 85 87 89 90 91 91 92 93 93 94 95 95

GFSGL_250_spd_123.txt.gz
Wind_Speed
88 71 66 70 71 65 73 87 85 86 83 81 76 74 76 77 64 55 55 53 55 52 44 47 54 53 49 53 53 52 52 52 45 49 45 46 46 46 42 38 38 42 46
81 69 68 81 72 76 77 81 85 92 84 74 77 80 83 76 62 56 57 64 57 53 52 47 52 58 56 57 56 56 53 55 51 51 51 51 49 52 48 41 39 40 45
74 86 82 87 81 78 94 87 90 92 91 91 90 86 92 72 70 67 63 64 63 60 60 61 62 59 57 56 58 56 57 56 54 53 54 54 51 52 50 47 42 39 37
56 82 94 97 97 89 90 107 102 97 97 100 100 99 96 77 71 73 69 66 68 70 69 65 63 65 60 58 61 60 59 58 58 58 59 56 59 54 52 52 48 43 40
70 69 87 104 102 106 110 118 113 108 110 106 104 102 98 92 84 82 74 74 71 75 78 78 72 69 68 72 69 64 63 61 62 63 60 62 61 57 54 52 50 46 43
75 78 77 92 105 107 109 113 116 117 114 112 109 103 96 93 91 86 81 79 74 74 76 78 79 79 77 70 72 69 67 66 62 66 64 59 57 55 51 52 56 50 51
67 66 66 63 78 102 107 105 105 106 105 101 99 100 98 97 97 91 86 87 85 81 81 84 84 77 77 79 76 75 74 72 68 70 67 65 61 60 63 62 63 63 57
49 50 53 56 61 69 82 102 111 110 106 106 103 103 104 104 100 96 92 89 90 89 84 86 90 86 83 82 81 81 78 77 72 71 67 61 61 65 63 64 60 63 65
32 38 43 46 47 52 57 65 76 89 99 101 105 106 103 102 99 96 93 89 88 92 91 90 93 94 89 88 84 85 82 83 78 75 72 70 71 66 67 67 72 72 70
28 32 34 37 42 42 45 49 54 61 66 71 74 76 79 82 84 86 86 86 87 87 90 91 94 100 97 94 94 90 88 84 84 81 81 78 81 79 81 85 85 83 83
31 35 37 43 46 49 49 49 52 53 56 59 60 62 65 69 74 77 80 83 86 88 91 93 95 97 100 99 94 89 86 86 85 85 86 89 88 90 91 91 91 88 88
49 47 49 51 53 54 54 53 54 56 55 58 60 62 64 66 68 71 75 79 82 86 88 89 91 92 93 94 94 90 90 90 90 89 90 90 90 90 89 90 88 89 87
53 53 57 58 58 60 62 65 65 66 67 67 69 71 71 71 71 72 74 78 82 84 86 88 89 90 92 95 96 96 95 94 94 92 93 95 94 94 95 95 95 91 92
63 65 64 65 67 69 71 71 71 74 74 77 76 78 80 80 80 80 80 81 82 84 85 86 88 91 92 92 94 99 101 99 95 94 93 94 90 91 96 98 98 97 96
72 74 76 76 77 78 78 79 81 85 85 85 86 87 88 87 88 86 85 85 86 85 84 85 88 90 90 92 94 95 99 105 108 106 103 100 98 96 96 97 99 96 93
78 83 85 87 89 90 89 87 90 87 93 94 92 92 91 93 95 98 97 95 93 91 92 92 90 90 91 93 96 98 100 101 103 105 107 108 105 105 105 104 103 99 94
84 87 88 91 93 93 94 95 96 96 94 95 95 97 97 97 100 100 101 101 101 100 99 100 100 101 100 98 98 99 101 102 102 102 103 104 105 107 109 108 106 109 103
85 86 87 89 90 92 93 93 92 91 91 93 95 94 94 97 98 101 103 104 104 105 106 105 105 103 103 106 107 108 108 107 106 105 106 105 105 106 107 108 109 108 110
85 87 87 87 88 89 91 92 93 93 93 93 95 97 99 100 101 102 102 102 104 106 108 109 110 111 112 110 110 109 108 107 107 106 105 104 105 107 109 110 110 109 111
78 79 80 80 80 81 82 83 83 83 83 84 85 88 89 91 93 95 98 100 102 104 106 107 107 108 110 112 112 113 114 113 112 113 112 112 111 110 110 110 111 113 116
70 71 73 75 76 78 79 80 80 81 82 83 83 86 88 89 91 93 94 96 98 98 100 102 103 106 108 110 112 114 114 116 116 117 118 118 119 119 119 119 118 117 118
70 72 73 75 76 77 77 78 80 81 82 83 84 84 87 87 88 89 91 94 95 97 98 99 100 101 102 104 105 107 109 111 113 115 117 118 119 121 122 122 122 123 124
76 77 77 74 73 72 72 73 73 74 76 77 79 81 82 83 84 84 85 87 88 90 90 92 93 95 97 99 100 100 101 103 105 106 108 110 111 113 115 118 120 121 123
79 78 76 73 70 67 66 65 66 67 69 70 71 73 74 75 77 78 80 81 82 84 85 86 86 88 89 91 92 94 95 97 98 99 100 102 104 105 108 110 112 113 115
79 78 75 72 69 66 64 63 61 62 62 63 64 65 67 68 69 71 72 73 74 75 77 78 80 81 82 83 83 84 85 88 91 92 93 94 96 97 99 101 102 104 105
77 75 73 71 68 66 64 62 59 58 58 58 59 60 61 62 63 64 65 67 68 68 69 70 70 72 73 75 76 78 79 79 80 81 82 84 86 88 90 92 94 95 96